GEFSSE_prec_meanprecacc_126.txt.gz
Total_Precipitation_Accumulation
0.02 0.05 0.14 0.16 0.19 0.14 0.10 0.07 0.06 0.06 0.06 0.08 0.08 0.09 0.10 0.10 0.10 0.11 0.12 0.14 0.16 0.19 0.25 0.27 0.32 0.44 0.42 0.27 0.16 0.07 0.04 0.03 0.02 0.02 0.03 0.04 0.06 0.09 0.08 0.08 0.09 0.12 0.16
0.02 0.04 0.11 0.14 0.18 0.15 0.11 0.09 0.06 0.05 0.06 0.08 0.10 0.11 0.12 0.11 0.11 0.13 0.16 0.17 0.19 0.23 0.26 0.29 0.34 0.38 0.33 0.23 0.14 0.05 0.02 0.01 0.01 0.00 0.00 0.01 0.04 0.06 0.05 0.05 0.07 0.13 0.15
0.02 0.04 0.09 0.12 0.15 0.15 0.11 0.08 0.05 0.05 0.06 0.09 0.12 0.12 0.14 0.13 0.14 0.15 0.17 0.20 0.21 0.22 0.24 0.29 0.29 0.26 0.22 0.19 0.12 0.05 0.02 0.01 0.01 0.01 0.01 0.02 0.05 0.08 0.08 0.08 0.10 0.13 0.15
0.04 0.05 0.07 0.10 0.13 0.14 0.11 0.08 0.06 0.06 0.07 0.10 0.13 0.14 0.17 0.16 0.16 0.17 0.19 0.18 0.17 0.17 0.18 0.19 0.15 0.11 0.08 0.07 0.07 0.04 0.02 0.01 0.01 0.01 0.03 0.04 0.06 0.13 0.14 0.12 0.14 0.15 0.16
0.07 0.07 0.10 0.11 0.13 0.13 0.11 0.08 0.07 0.07 0.09 0.10 0.11 0.13 0.18 0.20 0.19 0.18 0.16 0.13 0.10 0.09 0.10 0.09 0.06 0.03 0.02 0.02 0.02 0.02 0.01 0.01 0.01 0.02 0.03 0.04 0.07 0.15 0.15 0.13 0.14 0.15 0.17
0.11 0.09 0.12 0.14 0.14 0.12 0.10 0.09 0.09 0.09 0.09 0.10 0.09 0.11 0.17 0.22 0.22 0.16 0.12 0.07 0.05 0.04 0.05 0.04 0.02 0.01 0.01 0.01 0.01 0.01 0.01 0.01 0.01 0.02 0.03 0.04 0.06 0.14 0.14 0.12 0.13 0.14 0.16
0.15 0.14 0.15 0.17 0.16 0.13 0.11 0.11 0.09 0.10 0.10 0.10 0.08 0.10 0.15 0.21 0.22 0.15 0.08 0.04 0.03 0.03 0.03 0.03 0.01 0.01 0.01 0.01 0.01 0.01 0.01 0.01 0.01 0.02 0.03 0.04 0.07 0.14 0.14 0.12 0.13 0.13 0.14
0.22 0.21 0.22 0.23 0.20 0.17 0.14 0.12 0.10 0.10 0.11 0.11 0.10 0.11 0.15 0.17 0.19 0.13 0.07 0.04 0.03 0.03 0.03 0.02 0.02 0.01 0.01 0.01 0.01 0.01 0.01 0.01 0.01 0.01 0.02 0.02 0.05 0.10 0.10 0.10 0.11 0.12 0.12
0.36 0.31 0.31 0.28 0.26 0.25 0.20 0.14 0.12 0.12 0.12 0.12 0.12 0.13 0.13 0.13 0.14 0.09 0.06 0.05 0.04 0.03 0.03 0.02 0.02 0.02 0.02 0.02 0.01 0.01 0.00 0.00 0.00 0.01 0.01 0.02 0.04 0.08 0.08 0.09 0.11 0.13 0.14
0.56 0.44 0.37 0.33 0.31 0.30 0.26 0.19 0.13 0.11 0.11 0.12 0.12 0.10 0.09 0.10 0.11 0.07 0.04 0.05 0.04 0.03 0.02 0.02 0.02 0.03 0.02 0.02 0.01 0.00 0.00 0.00 0.00 0.00 0.01 0.01 0.04 0.06 0.07 0.09 0.11 0.14 0.15
0.82 0.65 0.48 0.40 0.35 0.32 0.28 0.22 0.16 0.13 0.12 0.12 0.11 0.08 0.07 0.09 0.09 0.05 0.03 0.03 0.03 0.02 0.01 0.01 0.02 0.02 0.01 0.01 0.00 0.00 0.00 0.00 0.00 0.00 0.00 0.01 0.03 0.05 0.05 0.08 0.09 0.10 0.11
0.90 0.78 0.58 0.47 0.39 0.35 0.31 0.27 0.23 0.16 0.14 0.12 0.10 0.08 0.07 0.07 0.06 0.04 0.03 0.02 0.02 0.01 0.01 0.01 0.01 0.01 0.00 0.00 0.00 0.00 0.00 0.00 0.00 0.00 0.00 0.01 0.04 0.05 0.04 0.05 0.05 0.06 0.07
1.03 0.93 0.71 0.56 0.51 0.43 0.35 0.29 0.25 0.18 0.15 0.13 0.09 0.08 0.07 0.07 0.05 0.05 0.04 0.04 0.02 0.01 0.01 0.01 0.00 0.00 0.00 0.00 0.00 0.00 0.00 0.00 0.00 0.00 0.00 0.01 0.02 0.04 0.04 0.04 0.04 0.05 0.06
1.27 1.22 0.96 0.73 0.60 0.54 0.41 0.30 0.24 0.18 0.14 0.12 0.10 0.08 0.07 0.06 0.04 0.03 0.02 0.02 0.01 0.01 0.01 0.00 0.00 0.00 0.00 0.00 0.00 0.00 0.00 0.00 0.00 0.00 0.00 0.00 0.01 0.02 0.04 0.04 0.05 0.06 0.07
1.45 1.46 1.35 1.03 0.76 0.63 0.52 0.38 0.26 0.19 0.13 0.10 0.09 0.08 0.06 0.05 0.03 0.02 0.02 0.02 0.01 0.00 0.00 0.00 0.00 0.00 0.00 0.00 0.00 0.00 0.00 0.00 0.00 0.00 0.00 0.00 0.00 0.01 0.03 0.04 0.05 0.07 0.09
1.58 1.68 1.66 1.36 1.02 0.77 0.63 0.47 0.32 0.21 0.16 0.12 0.10 0.08 0.07 0.05 0.04 0.03 0.02 0.02 0.01 0.01 0.00 0.00 0.00 0.00 0.00 0.00 0.00 0.00 0.00 0.00 0.00 0.00 0.00 0.00 0.00 0.01 0.01 0.03 0.05 0.09 0.13
1.62 1.78 1.81 1.66 1.35 0.97 0.77 0.61 0.45 0.34 0.23 0.17 0.14 0.10 0.09 0.06 0.04 0.03 0.02 0.02 0.01 0.01 0.00 0.00 0.00 0.00 0.00 0.00 0.00 0.01 0.00 0.00 0.00 0.00 0.00 0.00 0.01 0.01 0.00 0.02 0.06 0.10 0.12
1.71 1.76 1.84 1.77 1.58 1.26 0.96 0.75 0.60 0.50 0.40 0.30 0.26 0.22 0.17 0.12 0.08 0.06 0.03 0.02 0.02 0.01 0.01 0.01 0.01 0.01 0.02 0.02 0.01 0.01 0.01 0.00 0.00 0.00 0.00 0.00 0.00 0.01 0.00 0.01 0.04 0.07 0.10
1.65 1.78 1.91 1.81 1.67 1.51 1.31 1.08 0.87 0.70 0.57 0.48 0.37 0.29 0.28 0.23 0.17 0.11 0.06 0.04 0.04 0.03 0.02 0.02 0.02 0.02 0.02 0.01 0.01 0.01 0.01 0.00 0.00 0.00 0.00 0.00 0.00 0.00 0.01 0.01 0.01 0.03 0.05
1.55 1.75 1.86 1.98 1.87 1.83 1.81 1.59 1.23 0.97 0.76 0.65 0.54 0.44 0.38 0.34 0.30 0.25 0.17 0.12 0.10 0.08 0.05 0.04 0.03 0.02 0.02 0.02 0.02 0.01 0.01 0.01 0.01 0.01 0.01 0.01 0.01 0.01 0.01 0.01 0.01 0.01 0.02
1.44 1.63 1.72 1.82 1.93 1.88 1.77 1.60 1.30 1.03 0.93 0.88 0.78 0.70 0.59 0.49 0.44 0.38 0.30 0.23 0.17 0.13 0.10 0.09 0.08 0.06 0.05 0.04 0.04 0.03 0.01 0.01 0.01 0.01 0.01 0.01 0.01 0.02 0.02 0.02 0.03 0.03 0.03
1.26 1.36 1.54 1.59 1.75 1.72 1.58 1.57 1.47 1.40 1.28 1.18 1.08 0.88 0.76 0.67 0.59 0.50 0.41 0.35 0.29 0.22 0.17 0.16 0.16 0.12 0.10 0.10 0.12 0.13 0.07 0.03 0.03 0.03 0.03 0.03 0.03 0.04 0.04 0.04 0.04 0.04 0.05
1.01 1.23 1.29 1.35 1.52 1.67 1.71 1.81 1.83 1.76 1.49 1.23 1.08 0.99 0.90 0.85 0.77 0.67 0.58 0.51 0.44 0.37 0.30 0.30 0.29 0.26 0.26 0.26 0.24 0.29 0.25 0.15 0.10 0.06 0.05 0.05 0.05 0.04 0.03 0.04 0.04 0.05 0.05
0.71 1.00 1.24 1.31 1.38 1.54 1.83 1.84 1.76 1.58 1.35 1.10 1.09 1.14 1.11 1.02 0.94 0.84 0.76 0.71 0.63 0.55 0.49 0.50 0.51 0.51 0.49 0.44 0.38 0.36 0.37 0.33 0.33 0.22 0.09 0.07 0.07 0.06 0.06 0.06 0.06 0.07 0.07
0.52 0.74 1.00 1.25 1.36 1.41 1.53 1.63 1.69 1.55 1.41 1.37 1.27 1.17 1.07 1.00 0.97 0.91 0.86 0.83 0.79 0.75 0.75 0.76 0.73 0.71 0.68 0.63 0.57 0.54 0.53 0.48 0.44 0.44 0.29 0.16 0.15 0.14 0.13 0.12 0.11 0.12 0.14
0.43 0.56 0.74 0.97 1.13 1.22 1.29 1.38 1.45 1.45 1.48 1.45 1.31 1.21 1.14 1.09 1.04 0.98 0.96 0.94 0.94 0.90 0.88 0.88 0.88 0.89 0.89 0.85 0.82 0.73 0.70 0.64 0.57 0.62 0.57 0.40 0.33 0.26 0.24 0.22 0.22 0.22 0.22

GEFSSE_prec_meanprecacc_132.txt.gz
Total_Precipitation_Accumulation
0.03 0.05 0.16 0.18 0.20 0.15 0.10 0.08 0.06 0.06 0.07 0.08 0.09 0.10 0.10 0.10 0.11 0.11 0.12 0.14 0.16 0.20 0.26 0.28 0.33 0.45 0.43 0.29 0.17 0.09 0.06 0.05 0.03 0.03 0.03 0.05 0.07 0.11 0.09 0.08 0.09 0.13 0.17
0.02 0.05 0.13 0.16 0.20 0.16 0.12 0.10 0.06 0.05 0.06 0.08 0.10 0.11 0.12 0.12 0.12 0.14 0.16 0.18 0.20 0.24 0.27 0.30 0.35 0.39 0.33 0.24 0.15 0.06 0.03 0.02 0.01 0.01 0.01 0.02 0.05 0.08 0.06 0.06 0.07 0.13 0.16
0.03 0.06 0.12 0.15 0.19 0.17 0.13 0.09 0.05 0.05 0.06 0.09 0.12 0.13 0.15 0.14 0.15 0.16 0.18 0.20 0.22 0.23 0.25 0.30 0.30 0.27 0.23 0.20 0.13 0.05 0.02 0.01 0.01 0.01 0.02 0.03 0.07 0.09 0.08 0.08 0.11 0.14 0.15
0.05 0.07 0.11 0.14 0.17 0.18 0.14 0.09 0.06 0.06 0.08 0.11 0.13 0.15 0.18 0.16 0.17 0.18 0.19 0.19 0.18 0.18 0.19 0.20 0.16 0.12 0.08 0.08 0.07 0.04 0.02 0.01 0.01 0.01 0.03 0.04 0.07 0.14 0.14 0.13 0.14 0.16 0.16
0.10 0.11 0.15 0.18 0.18 0.18 0.16 0.12 0.09 0.08 0.09 0.11 0.12 0.14 0.19 0.21 0.19 0.19 0.17 0.15 0.11 0.10 0.10 0.09 0.06 0.04 0.03 0.02 0.03 0.02 0.02 0.01 0.01 0.02 0.03 0.04 0.08 0.16 0.15 0.14 0.15 0.16 0.17
0.14 0.14 0.19 0.23 0.22 0.20 0.18 0.14 0.12 0.11 0.11 0.11 0.10 0.12 0.18 0.24 0.23 0.18 0.13 0.09 0.06 0.05 0.05 0.04 0.02 0.02 0.01 0.01 0.01 0.01 0.01 0.01 0.01 0.02 0.03 0.04 0.06 0.15 0.15 0.13 0.14 0.15 0.16
0.19 0.19 0.23 0.29 0.28 0.25 0.25 0.20 0.15 0.14 0.14 0.13 0.10 0.12 0.17 0.23 0.24 0.17 0.10 0.06 0.03 0.03 0.04 0.03 0.02 0.01 0.01 0.01 0.01 0.01 0.01 0.01 0.01 0.02 0.03 0.04 0.07 0.15 0.14 0.13 0.13 0.14 0.14
0.28 0.29 0.29 0.35 0.35 0.31 0.28 0.27 0.22 0.18 0.16 0.16 0.14 0.15 0.17 0.20 0.21 0.15 0.08 0.05 0.04 0.03 0.03 0.02 0.02 0.01 0.01 0.01 0.01 0.01 0.01 0.01 0.01 0.01 0.02 0.02 0.06 0.11 0.11 0.10 0.11 0.12 0.12
0.43 0.41 0.42 0.39 0.40 0.41 0.33 0.28 0.26 0.22 0.20 0.18 0.16 0.18 0.17 0.17 0.18 0.12 0.07 0.06 0.05 0.04 0.03 0.03 0.03 0.03 0.02 0.02 0.01 0.01 0.00 0.00 0.00 0.01 0.01 0.02 0.04 0.08 0.09 0.09 0.12 0.14 0.14
0.64 0.54 0.51 0.48 0.43 0.43 0.40 0.34 0.27 0.22 0.20 0.19 0.17 0.14 0.12 0.13 0.15 0.11 0.05 0.06 0.05 0.04 0.03 0.03 0.03 0.03 0.02 0.02 0.01 0.00 0.00 0.00 0.00 0.00 0.01 0.01 0.04 0.07 0.07 0.10 0.11 0.14 0.15
0.93 0.77 0.62 0.58 0.50 0.46 0.41 0.37 0.34 0.28 0.23 0.21 0.18 0.13 0.11 0.13 0.12 0.10 0.05 0.04 0.04 0.03 0.02 0.02 0.02 0.02 0.01 0.01 0.00 0.00 0.00 0.00 0.00 0.00 0.00 0.01 0.04 0.05 0.05 0.08 0.09 0.10 0.11
1.03 0.92 0.73 0.63 0.55 0.53 0.45 0.41 0.39 0.34 0.29 0.23 0.17 0.14 0.11 0.11 0.09 0.07 0.06 0.04 0.04 0.03 0.02 0.01 0.01 0.01 0.00 0.00 0.00 0.00 0.00 0.00 0.00 0.00 0.00 0.01 0.04 0.05 0.05 0.05 0.05 0.06 0.07
1.19 1.11 0.90 0.74 0.68 0.61 0.52 0.44 0.41 0.34 0.29 0.26 0.19 0.15 0.12 0.11 0.09 0.08 0.06 0.06 0.04 0.02 0.01 0.01 0.01 0.00 0.00 0.00 0.00 0.00 0.00 0.00 0.00 0.00 0.00 0.01 0.03 0.04 0.04 0.04 0.05 0.05 0.07
1.46 1.43 1.18 0.94 0.80 0.72 0.58 0.45 0.39 0.33 0.26 0.22 0.19 0.15 0.12 0.10 0.09 0.07 0.05 0.04 0.04 0.02 0.01 0.01 0.00 0.00 0.00 0.00 0.00 0.00 0.00 0.00 0.00 0.00 0.00 0.00 0.01 0.02 0.04 0.04 0.05 0.06 0.08
1.71 1.70 1.56 1.26 0.99 0.83 0.71 0.55 0.41 0.34 0.25 0.20 0.18 0.16 0.11 0.09 0.07 0.06 0.04 0.04 0.04 0.02 0.01 0.00 0.00 0.00 0.00 0.00 0.00 0.00 0.00 0.00 0.00 0.00 0.00 0.00 0.00 0.01 0.03 0.04 0.06 0.08 0.11
1.88 1.95 1.89 1.59 1.27 0.99 0.83 0.65 0.48 0.36 0.28 0.23 0.19 0.16 0.13 0.08 0.07 0.07 0.04 0.04 0.04 0.03 0.01 0.00 0.00 0.00 0.00 0.00 0.00 0.00 0.00 0.00 0.00 0.00 0.00 0.00 0.00 0.01 0.01 0.03 0.06 0.10 0.14
1.93 2.06 2.07 1.94 1.64 1.20 0.96 0.80 0.63 0.51 0.37 0.28 0.23 0.18 0.15 0.11 0.07 0.06 0.06 0.04 0.04 0.04 0.03 0.01 0.01 0.01 0.00 0.00 0.00 0.01 0.00 0.00 0.00 0.00 0.00 0.00 0.01 0.01 0.01 0.02 0.06 0.11 0.14
2.02 2.05 2.11 2.06 1.91 1.50 1.12 0.92 0.78 0.69 0.56 0.41 0.35 0.31 0.24 0.18 0.12 0.09 0.06 0.05 0.05 0.04 0.04 0.02 0.01 0.02 0.02 0.02 0.02 0.01 0.01 0.01 0.00 0.00 0.00 0.00 0.00 0.01 0.00 0.01 0.04 0.07 0.11
1.92 2.05 2.21 2.09 1.98 1.75 1.45 1.21 1.03 0.87 0.74 0.62 0.47 0.39 0.37 0.30 0.23 0.17 0.10 0.08 0.07 0.06 0.05 0.04 0.03 0.03 0.02 0.02 0.01 0.01 0.01 0.01 0.00 0.00 0.00 0.00 0.00 0.00 0.01 0.01 0.01 0.03 0.05
1.75 1.94 2.10 2.27 2.16 2.07 1.97 1.73 1.40 1.14 0.91 0.79 0.65 0.53 0.48 0.44 0.38 0.32 0.23 0.16 0.14 0.12 0.08 0.06 0.04 0.03 0.02 0.02 0.02 0.01 0.01 0.01 0.01 0.01 0.01 0.01 0.01 0.01 0.01 0.01 0.01 0.02 0.02
1.60 1.79 1.90 2.06 2.18 2.12 1.96 1.76 1.48 1.21 1.08 1.01 0.88 0.78 0.67 0.58 0.52 0.45 0.36 0.28 0.21 0.17 0.14 0.12 0.11 0.08 0.05 0.05 0.04 0.03 0.01 0.01 0.01 0.01 0.01 0.01 0.01 0.02 0.02 0.02 0.03 0.03 0.03
1.38 1.50 1.70 1.79 1.98 1.94 1.78 1.74 1.64 1.58 1.46 1.33 1.20 0.98 0.84 0.75 0.66 0.55 0.46 0.41 0.33 0.25 0.21 0.20 0.19 0.15 0.11 0.11 0.12 0.13 0.07 0.03 0.03 0.03 0.03 0.03 0.03 0.04 0.04 0.04 0.04 0.04 0.05
1.12 1.36 1.42 1.49 1.72 1.86 1.88 1.99 2.05 1.98 1.70 1.45 1.27 1.16 1.03 0.94 0.85 0.73 0.62 0.56 0.50 0.42 0.33 0.34 0.32 0.29 0.29 0.28 0.25 0.30 0.26 0.16 0.10 0.06 0.05 0.05 0.05 0.04 0.03 0.04 0.04 0.05 0.06
0.82 1.11 1.37 1.46 1.58 1.74 1.98 1.98 1.91 1.78 1.56 1.29 1.26 1.31 1.26 1.14 1.03 0.93 0.84 0.78 0.71 0.63 0.55 0.54 0.55 0.55 0.53 0.47 0.41 0.38 0.39 0.34 0.33 0.22 0.10 0.07 0.07 0.06 0.06 0.07 0.06 0.07 0.07
0.62 0.83 1.08 1.35 1.53 1.66 1.74 1.80 1.85 1.71 1.59 1.52 1.42 1.34 1.24 1.14 1.07 1.01 0.95 0.93 0.89 0.85 0.84 0.83 0.79 0.77 0.73 0.67 0.61 0.57 0.56 0.50 0.46 0.45 0.30 0.17 0.15 0.15 0.14 0.13 0.12 0.13 0.14
0.50 0.62 0.79 1.03 1.22 1.37 1.49 1.57 1.62 1.62 1.66 1.62 1.45 1.36 1.31 1.26 1.20 1.11 1.06 1.04 1.05 1.01 0.98 0.98 0.97 0.96 0.96 0.91 0.86 0.76 0.72 0.66 0.59 0.64 0.59 0.41 0.34 0.27 0.24 0.23 0.23 0.23 0.23

GEFSSE_prec_meanprecacc_138.txt.gz
Total_Precipitation_Accumulation
0.03 0.06 0.18 0.21 0.23 0.18 0.13 0.10 0.09 0.09 0.09 0.09 0.10 0.11 0.11 0.11 0.11 0.11 0.13 0.15 0.16 0.21 0.27 0.28 0.33 0.45 0.45 0.30 0.19 0.10 0.08 0.06 0.04 0.03 0.04 0.06 0.08 0.11 0.10 0.09 0.10 0.14 0.18
0.02 0.06 0.16 0.20 0.24 0.20 0.16 0.13 0.09 0.08 0.08 0.11 0.12 0.12 0.13 0.13 0.12 0.14 0.16 0.18 0.21 0.25 0.28 0.30 0.35 0.40 0.35 0.25 0.16 0.07 0.04 0.02 0.01 0.01 0.01 0.02 0.05 0.09 0.06 0.06 0.07 0.14 0.16
0.03 0.07 0.15 0.20 0.24 0.21 0.17 0.14 0.09 0.08 0.09 0.12 0.15 0.15 0.16 0.15 0.16 0.16 0.18 0.21 0.23 0.24 0.26 0.31 0.31 0.28 0.24 0.20 0.13 0.05 0.03 0.01 0.01 0.01 0.02 0.03 0.08 0.10 0.09 0.08 0.11 0.14 0.16
0.06 0.09 0.14 0.20 0.25 0.24 0.19 0.14 0.11 0.11 0.11 0.14 0.17 0.18 0.20 0.17 0.17 0.18 0.20 0.20 0.19 0.18 0.20 0.21 0.17 0.13 0.09 0.08 0.07 0.04 0.02 0.01 0.01 0.01 0.03 0.04 0.08 0.15 0.14 0.13 0.15 0.16 0.17
0.10 0.12 0.18 0.23 0.26 0.27 0.24 0.19 0.16 0.14 0.14 0.15 0.16 0.17 0.22 0.22 0.20 0.19 0.18 0.16 0.12 0.11 0.11 0.09 0.07 0.04 0.03 0.02 0.03 0.02 0.02 0.01 0.01 0.02 0.03 0.05 0.08 0.16 0.16 0.14 0.15 0.16 0.18
0.15 0.16 0.24 0.29 0.29 0.28 0.27 0.22 0.20 0.18 0.17 0.16 0.14 0.15 0.20 0.26 0.25 0.19 0.15 0.11 0.06 0.05 0.06 0.05 0.03 0.02 0.01 0.01 0.01 0.01 0.01 0.01 0.01 0.02 0.03 0.04 0.07 0.15 0.15 0.13 0.14 0.15 0.16
0.21 0.22 0.28 0.36 0.37 0.36 0.36 0.30 0.25 0.22 0.21 0.19 0.15 0.15 0.20 0.25 0.26 0.19 0.12 0.07 0.04 0.04 0.04 0.03 0.02 0.01 0.01 0.01 0.01 0.01 0.01 0.01 0.01 0.02 0.03 0.04 0.07 0.15 0.15 0.13 0.14 0.14 0.14
0.30 0.32 0.35 0.44 0.47 0.46 0.45 0.39 0.33 0.29 0.25 0.24 0.20 0.21 0.22 0.23 0.24 0.18 0.10 0.07 0.06 0.04 0.03 0.03 0.02 0.02 0.01 0.01 0.01 0.01 0.01 0.01 0.01 0.01 0.02 0.02 0.06 0.11 0.11 0.11 0.12 0.12 0.12
0.46 0.45 0.48 0.49 0.52 0.57 0.53 0.46 0.40 0.34 0.31 0.28 0.25 0.25 0.22 0.21 0.21 0.16 0.10 0.08 0.07 0.06 0.04 0.03 0.03 0.03 0.02 0.02 0.01 0.01 0.00 0.00 0.00 0.01 0.01 0.02 0.05 0.09 0.09 0.10 0.12 0.14 0.14
0.69 0.60 0.58 0.58 0.54 0.59 0.60 0.52 0.43 0.35 0.32 0.31 0.28 0.23 0.18 0.17 0.18 0.15 0.09 0.09 0.08 0.06 0.04 0.03 0.03 0.03 0.03 0.02 0.01 0.00 0.00 0.00 0.00 0.00 0.01 0.02 0.04 0.07 0.07 0.10 0.12 0.14 0.15
0.98 0.83 0.69 0.67 0.61 0.58 0.59 0.55 0.50 0.42 0.37 0.32 0.29 0.22 0.18 0.18 0.16 0.13 0.09 0.07 0.08 0.06 0.04 0.03 0.03 0.02 0.02 0.01 0.00 0.00 0.00 0.00 0.00 0.00 0.01 0.01 0.04 0.06 0.06 0.08 0.09 0.10 0.11
1.09 1.00 0.81 0.73 0.67 0.64 0.59 0.60 0.57 0.49 0.44 0.36 0.29 0.26 0.21 0.18 0.15 0.12 0.10 0.07 0.06 0.05 0.03 0.02 0.02 0.02 0.01 0.00 0.00 0.00 0.00 0.00 0.00 0.00 0.00 0.01 0.04 0.05 0.05 0.05 0.06 0.07 0.07
1.29 1.22 1.01 0.85 0.79 0.72 0.63 0.60 0.59 0.49 0.44 0.39 0.31 0.27 0.22 0.19 0.15 0.13 0.11 0.10 0.07 0.04 0.03 0.02 0.02 0.01 0.01 0.00 0.00 0.00 0.00 0.00 0.00 0.00 0.00 0.01 0.03 0.04 0.04 0.04 0.05 0.06 0.07
1.56 1.54 1.30 1.07 0.92 0.83 0.70 0.59 0.53 0.47 0.40 0.34 0.28 0.25 0.22 0.19 0.15 0.11 0.08 0.07 0.07 0.05 0.03 0.02 0.01 0.01 0.00 0.00 0.00 0.00 0.00 0.00 0.00 0.00 0.00 0.00 0.01 0.03 0.04 0.05 0.05 0.07 0.08
1.81 1.81 1.70 1.40 1.13 0.95 0.84 0.72 0.56 0.44 0.36 0.31 0.27 0.23 0.18 0.15 0.12 0.11 0.09 0.08 0.07 0.05 0.04 0.02 0.01 0.01 0.00 0.00 0.00 0.00 0.00 0.00 0.00 0.00 0.00 0.00 0.00 0.01 0.03 0.04 0.06 0.08 0.11
1.97 2.08 2.06 1.75 1.40 1.11 0.95 0.83 0.65 0.47 0.37 0.34 0.31 0.24 0.19 0.14 0.11 0.10 0.09 0.08 0.07 0.06 0.04 0.03 0.02 0.01 0.01 0.00 0.00 0.00 0.00 0.00 0.00 0.00 0.00 0.00 0.00 0.01 0.02 0.03 0.07 0.11 0.15
2.02 2.20 2.28 2.14 1.79 1.32 1.08 0.95 0.80 0.62 0.47 0.38 0.33 0.28 0.23 0.17 0.11 0.09 0.09 0.08 0.07 0.07 0.05 0.04 0.03 0.03 0.01 0.01 0.01 0.01 0.00 0.00 0.00 0.00 0.00 0.00 0.01 0.01 0.01 0.02 0.07 0.11 0.14
2.09 2.17 2.30 2.30 2.10 1.64 1.24 1.05 0.91 0.79 0.66 0.52 0.45 0.41 0.33 0.25 0.17 0.13 0.10 0.08 0.08 0.08 0.07 0.05 0.04 0.05 0.03 0.03 0.02 0.02 0.01 0.01 0.00 0.00 0.00 0.00 0.01 0.01 0.01 0.01 0.04 0.08 0.11
1.99 2.15 2.38 2.33 2.17 1.93 1.61 1.33 1.15 0.96 0.83 0.73 0.58 0.48 0.48 0.39 0.31 0.24 0.15 0.12 0.11 0.10 0.08 0.08 0.06 0.06 0.05 0.03 0.02 0.01 0.01 0.01 0.00 0.00 0.00 0.00 0.00 0.00 0.01 0.01 0.01 0.03 0.05
1.85 2.05 2.24 2.47 2.37 2.30 2.20 1.89 1.53 1.25 1.00 0.90 0.77 0.62 0.58 0.54 0.46 0.40 0.30 0.22 0.20 0.18 0.13 0.11 0.09 0.08 0.06 0.05 0.03 0.02 0.01 0.01 0.01 0.01 0.01 0.01 0.01 0.01 0.01 0.01 0.01 0.02 0.02
1.69 1.88 2.01 2.18 2.34 2.33 2.24 1.97 1.63 1.33 1.19 1.12 1.02 0.90 0.78 0.69 0.62 0.54 0.46 0.35 0.27 0.23 0.20 0.19 0.18 0.14 0.11 0.09 0.07 0.05 0.02 0.01 0.01 0.01 0.01 0.01 0.01 0.02 0.02 0.02 0.03 0.03 0.03
1.46 1.57 1.78 1.87 2.06 2.07 2.01 2.01 1.83 1.70 1.55 1.42 1.30 1.11 0.97 0.87 0.76 0.64 0.55 0.50 0.40 0.32 0.28 0.28 0.28 0.24 0.19 0.18 0.18 0.16 0.09 0.05 0.03 0.03 0.03 0.03 0.03 0.04 0.04 0.04 0.04 0.04 0.05
1.19 1.44 1.53 1.59 1.80 1.96 2.03 2.20 2.26 2.16 1.84 1.57 1.38 1.27 1.15 1.07 0.96 0.83 0.70 0.65 0.60 0.49 0.40 0.41 0.41 0.39 0.38 0.36 0.33 0.37 0.30 0.17 0.11 0.06 0.06 0.05 0.05 0.04 0.03 0.04 0.04 0.05 0.06
0.89 1.18 1.47 1.58 1.69 1.85 2.11 2.15 2.11 1.94 1.68 1.40 1.36 1.41 1.37 1.26 1.14 1.01 0.92 0.84 0.78 0.71 0.61 0.60 0.62 0.64 0.64 0.57 0.48 0.45 0.44 0.38 0.35 0.23 0.10 0.07 0.07 0.06 0.06 0.07 0.07 0.07 0.08
0.70 0.91 1.17 1.43 1.64 1.80 1.90 1.96 2.05 1.89 1.70 1.62 1.52 1.44 1.36 1.26 1.18 1.10 1.04 1.01 0.96 0.92 0.90 0.90 0.85 0.84 0.82 0.77 0.70 0.64 0.61 0.55 0.49 0.47 0.31 0.18 0.16 0.15 0.14 0.13 0.12 0.13 0.15
0.58 0.70 0.86 1.10 1.29 1.47 1.64 1.75 1.82 1.83 1.82 1.76 1.58 1.47 1.44 1.39 1.32 1.20 1.15 1.13 1.13 1.09 1.06 1.06 1.04 1.04 1.04 1.00 0.96 0.85 0.79 0.72 0.62 0.67 0.61 0.43 0.35 0.28 0.25 0.23 0.23 0.24 0.24

GEFSSE_prec_meanprecacc_144.txt.gz
Total_Precipitation_Accumulation
0.03 0.06 0.19 0.23 0.26 0.21 0.15 0.12 0.11 0.11 0.11 0.11 0.11 0.11 0.11 0.11 0.11 0.12 0.13 0.15 0.17 0.21 0.27 0.29 0.33 0.45 0.45 0.31 0.20 0.11 0.09 0.07 0.04 0.04 0.04 0.06 0.08 0.11 0.10 0.10 0.11 0.15 0.19
0.03 0.06 0.17 0.22 0.26 0.23 0.20 0.16 0.12 0.11 0.12 0.13 0.14 0.14 0.14 0.13 0.13 0.15 0.17 0.19 0.21 0.26 0.28 0.30 0.36 0.41 0.37 0.28 0.17 0.07 0.04 0.02 0.01 0.01 0.01 0.02 0.06 0.09 0.06 0.06 0.08 0.14 0.17
0.05 0.07 0.15 0.22 0.26 0.24 0.22 0.19 0.14 0.12 0.12 0.15 0.18 0.17 0.18 0.16 0.16 0.17 0.19 0.22 0.24 0.26 0.27 0.32 0.32 0.30 0.26 0.22 0.14 0.06 0.03 0.01 0.01 0.01 0.02 0.03 0.08 0.11 0.09 0.09 0.11 0.15 0.16
0.07 0.10 0.15 0.21 0.27 0.28 0.24 0.20 0.18 0.19 0.17 0.19 0.22 0.21 0.22 0.20 0.19 0.20 0.21 0.21 0.21 0.21 0.22 0.22 0.18 0.14 0.10 0.09 0.07 0.04 0.02 0.01 0.01 0.02 0.03 0.04 0.09 0.16 0.15 0.14 0.15 0.17 0.17
0.11 0.14 0.20 0.26 0.29 0.31 0.30 0.27 0.24 0.23 0.23 0.24 0.24 0.24 0.27 0.26 0.23 0.21 0.20 0.18 0.15 0.13 0.12 0.11 0.08 0.05 0.03 0.03 0.03 0.03 0.02 0.01 0.01 0.02 0.03 0.05 0.09 0.17 0.16 0.14 0.15 0.16 0.18
0.17 0.18 0.26 0.31 0.33 0.33 0.32 0.29 0.28 0.27 0.27 0.26 0.22 0.22 0.27 0.31 0.29 0.22 0.18 0.14 0.10 0.08 0.07 0.06 0.04 0.03 0.02 0.01 0.01 0.02 0.02 0.01 0.01 0.02 0.03 0.05 0.07 0.16 0.15 0.13 0.14 0.15 0.17
0.23 0.25 0.32 0.40 0.42 0.42 0.41 0.37 0.32 0.30 0.29 0.28 0.23 0.22 0.26 0.31 0.31 0.23 0.16 0.10 0.06 0.05 0.05 0.04 0.02 0.02 0.02 0.02 0.02 0.01 0.01 0.01 0.01 0.02 0.03 0.04 0.08 0.16 0.15 0.13 0.14 0.14 0.15
0.33 0.35 0.40 0.49 0.53 0.52 0.51 0.45 0.40 0.37 0.34 0.32 0.28 0.30 0.30 0.30 0.31 0.23 0.15 0.11 0.09 0.06 0.05 0.03 0.02 0.02 0.01 0.02 0.01 0.01 0.01 0.01 0.01 0.01 0.02 0.03 0.06 0.12 0.12 0.11 0.12 0.13 0.12
0.50 0.50 0.55 0.58 0.60 0.64 0.59 0.52 0.47 0.43 0.41 0.37 0.34 0.36 0.34 0.31 0.29 0.21 0.14 0.12 0.11 0.09 0.07 0.05 0.04 0.04 0.03 0.02 0.01 0.01 0.00 0.00 0.00 0.01 0.01 0.02 0.05 0.09 0.09 0.10 0.12 0.14 0.15
0.73 0.66 0.66 0.66 0.64 0.70 0.70 0.59 0.50 0.44 0.41 0.40 0.38 0.34 0.29 0.27 0.27 0.22 0.13 0.13 0.12 0.10 0.07 0.06 0.05 0.04 0.04 0.02 0.01 0.00 0.00 0.00 0.00 0.00 0.01 0.02 0.04 0.07 0.08 0.10 0.12 0.14 0.15
1.02 0.90 0.78 0.77 0.71 0.70 0.73 0.64 0.57 0.51 0.47 0.42 0.38 0.31 0.26 0.28 0.26 0.20 0.12 0.09 0.11 0.09 0.06 0.06 0.06 0.05 0.03 0.02 0.01 0.00 0.00 0.00 0.00 0.00 0.01 0.02 0.04 0.06 0.06 0.08 0.09 0.10 0.11
1.19 1.10 0.92 0.82 0.77 0.77 0.74 0.73 0.68 0.60 0.53 0.46 0.38 0.36 0.30 0.29 0.27 0.21 0.15 0.09 0.08 0.07 0.06 0.05 0.05 0.04 0.02 0.01 0.00 0.00 0.00 0.00 0.00 0.00 0.00 0.02 0.05 0.05 0.05 0.06 0.06 0.07 0.07
1.37 1.32 1.12 0.94 0.88 0.82 0.75 0.72 0.71 0.61 0.55 0.49 0.42 0.37 0.32 0.31 0.27 0.26 0.21 0.15 0.11 0.07 0.05 0.04 0.04 0.03 0.02 0.02 0.01 0.00 0.00 0.00 0.00 0.00 0.00 0.01 0.03 0.05 0.05 0.05 0.05 0.06 0.07
1.62 1.60 1.38 1.15 1.01 0.93 0.80 0.70 0.65 0.60 0.54 0.47 0.40 0.38 0.34 0.31 0.26 0.22 0.18 0.14 0.12 0.08 0.06 0.04 0.03 0.02 0.02 0.02 0.02 0.00 0.00 0.00 0.00 0.00 0.00 0.00 0.01 0.03 0.04 0.05 0.06 0.07 0.09
1.88 1.87 1.75 1.46 1.22 1.06 0.94 0.84 0.68 0.57 0.48 0.44 0.40 0.36 0.30 0.25 0.21 0.20 0.16 0.15 0.13 0.09 0.06 0.05 0.04 0.03 0.02 0.02 0.02 0.01 0.00 0.00 0.00 0.00 0.00 0.00 0.00 0.02 0.03 0.05 0.06 0.09 0.12
2.03 2.14 2.11 1.81 1.49 1.22 1.06 0.94 0.79 0.60 0.50 0.47 0.44 0.36 0.28 0.23 0.19 0.18 0.16 0.14 0.12 0.10 0.08 0.06 0.05 0.04 0.03 0.02 0.02 0.01 0.01 0.00 0.00 0.00 0.00 0.00 0.00 0.01 0.02 0.04 0.08 0.12 0.16
2.12 2.29 2.34 2.19 1.89 1.45 1.21 1.07 0.94 0.78 0.60 0.51 0.47 0.41 0.32 0.25 0.19 0.16 0.17 0.14 0.11 0.11 0.10 0.09 0.08 0.07 0.05 0.04 0.03 0.02 0.01 0.01 0.01 0.01 0.00 0.00 0.01 0.01 0.01 0.03 0.07 0.12 0.15
2.17 2.28 2.36 2.35 2.19 1.79 1.39 1.21 1.06 0.96 0.81 0.64 0.58 0.54 0.44 0.33 0.26 0.21 0.16 0.14 0.12 0.13 0.12 0.09 0.09 0.10 0.08 0.06 0.05 0.04 0.02 0.01 0.01 0.01 0.01 0.00 0.01 0.01 0.01 0.02 0.04 0.08 0.12
2.04 2.21 2.44 2.39 2.27 2.07 1.77 1.50 1.33 1.14 1.00 0.86 0.71 0.62 0.58 0.50 0.42 0.33 0.22 0.17 0.17 0.16 0.14 0.13 0.11 0.11 0.09 0.07 0.05 0.05 0.03 0.02 0.01 0.01 0.00 0.00 0.00 0.00 0.01 0.01 0.02 0.03 0.06
1.88 2.09 2.28 2.53 2.47 2.43 2.34 2.02 1.68 1.44 1.19 1.06 0.91 0.76 0.67 0.62 0.56 0.50 0.39 0.30 0.27 0.25 0.20 0.16 0.14 0.13 0.12 0.11 0.08 0.06 0.04 0.03 0.03 0.02 0.01 0.01 0.01 0.01 0.01 0.01 0.02 0.02 0.03
1.74 1.93 2.06 2.28 2.45 2.47 2.39 2.11 1.75 1.48 1.36 1.30 1.18 1.05 0.87 0.76 0.69 0.63 0.57 0.45 0.36 0.31 0.27 0.25 0.23 0.20 0.17 0.18 0.18 0.13 0.07 0.05 0.04 0.03 0.02 0.01 0.01 0.02 0.02 0.02 0.03 0.03 0.03
1.51 1.61 1.84 1.94 2.19 2.23 2.16 2.15 1.97 1.85 1.69 1.56 1.47 1.27 1.09 0.98 0.86 0.74 0.67 0.63 0.50 0.41 0.37 0.36 0.35 0.31 0.26 0.25 0.27 0.27 0.18 0.11 0.07 0.06 0.05 0.04 0.04 0.04 0.04 0.04 0.04 0.04 0.05
1.24 1.48 1.58 1.65 1.90 2.11 2.19 2.34 2.41 2.33 2.01 1.70 1.52 1.41 1.27 1.17 1.06 0.93 0.81 0.78 0.74 0.60 0.50 0.51 0.51 0.48 0.47 0.46 0.43 0.46 0.40 0.25 0.15 0.09 0.08 0.07 0.06 0.04 0.04 0.04 0.05 0.06 0.06
0.94 1.23 1.54 1.64 1.78 1.98 2.26 2.30 2.23 2.07 1.83 1.53 1.47 1.51 1.47 1.35 1.23 1.10 1.01 0.94 0.90 0.82 0.71 0.69 0.70 0.73 0.74 0.68 0.62 0.58 0.55 0.47 0.42 0.28 0.13 0.09 0.08 0.07 0.07 0.07 0.07 0.07 0.08
0.76 0.96 1.23 1.50 1.74 1.92 2.04 2.11 2.16 2.01 1.82 1.74 1.61 1.52 1.43 1.35 1.29 1.21 1.14 1.10 1.04 1.00 0.98 0.99 0.94 0.92 0.91 0.88 0.82 0.76 0.72 0.64 0.56 0.54 0.36 0.21 0.18 0.17 0.15 0.14 0.13 0.13 0.15
0.64 0.75 0.91 1.16 1.37 1.57 1.76 1.87 1.94 1.93 1.93 1.88 1.68 1.53 1.51 1.47 1.41 1.31 1.26 1.24 1.22 1.17 1.13 1.13 1.13 1.14 1.13 1.09 1.06 0.96 0.89 0.82 0.71 0.75 0.68 0.48 0.40 0.32 0.27 0.25 0.25 0.25 0.24

GEFSSE_prec_meanprecacc_150.txt.gz
Total_Precipitation_Accumulation
0.04 0.06 0.20 0.24 0.27 0.23 0.18 0.13 0.11 0.12 0.12 0.11 0.11 0.11 0.11 0.11 0.12 0.12 0.13 0.15 0.17 0.21 0.27 0.29 0.33 0.46 0.45 0.32 0.20 0.12 0.09 0.07 0.05 0.04 0.04 0.07 0.09 0.12 0.11 0.10 0.11 0.15 0.19
0.04 0.07 0.19 0.23 0.28 0.25 0.22 0.19 0.13 0.11 0.12 0.13 0.14 0.14 0.14 0.13 0.13 0.15 0.18 0.19 0.21 0.26 0.28 0.31 0.36 0.41 0.38 0.29 0.17 0.07 0.04 0.02 0.01 0.01 0.01 0.02 0.06 0.09 0.07 0.06 0.08 0.15 0.17
0.06 0.09 0.18 0.24 0.29 0.26 0.25 0.23 0.18 0.14 0.14 0.16 0.19 0.18 0.19 0.17 0.17 0.17 0.19 0.22 0.25 0.26 0.27 0.32 0.33 0.32 0.29 0.23 0.14 0.06 0.03 0.01 0.01 0.01 0.02 0.03 0.08 0.11 0.09 0.09 0.12 0.15 0.16
0.08 0.12 0.18 0.25 0.30 0.31 0.28 0.24 0.22 0.23 0.21 0.21 0.23 0.23 0.24 0.22 0.21 0.21 0.21 0.21 0.22 0.22 0.22 0.23 0.19 0.16 0.11 0.09 0.09 0.06 0.03 0.01 0.01 0.02 0.03 0.05 0.09 0.16 0.16 0.14 0.16 0.17 0.17
0.13 0.16 0.23 0.30 0.33 0.34 0.33 0.30 0.28 0.28 0.28 0.28 0.28 0.27 0.30 0.29 0.25 0.24 0.21 0.19 0.17 0.15 0.14 0.12 0.10 0.06 0.04 0.03 0.04 0.05 0.02 0.01 0.01 0.02 0.03 0.05 0.09 0.19 0.17 0.15 0.16 0.17 0.18
0.18 0.21 0.30 0.36 0.38 0.36 0.36 0.33 0.31 0.31 0.31 0.32 0.28 0.27 0.31 0.35 0.32 0.26 0.21 0.16 0.12 0.10 0.09 0.07 0.04 0.03 0.02 0.02 0.02 0.03 0.02 0.01 0.01 0.02 0.03 0.05 0.07 0.17 0.16 0.13 0.14 0.16 0.17
0.24 0.26 0.35 0.45 0.49 0.47 0.46 0.42 0.37 0.34 0.33 0.34 0.29 0.28 0.32 0.35 0.35 0.27 0.19 0.13 0.08 0.07 0.07 0.05 0.03 0.02 0.02 0.03 0.02 0.02 0.02 0.01 0.01 0.02 0.03 0.04 0.08 0.16 0.15 0.14 0.14 0.14 0.15
0.34 0.37 0.43 0.55 0.61 0.60 0.58 0.52 0.46 0.43 0.39 0.38 0.35 0.36 0.36 0.36 0.35 0.27 0.17 0.12 0.11 0.09 0.07 0.05 0.03 0.03 0.02 0.02 0.02 0.01 0.01 0.01 0.01 0.01 0.02 0.03 0.07 0.12 0.12 0.11 0.12 0.13 0.13
0.51 0.52 0.58 0.63 0.68 0.72 0.66 0.59 0.53 0.50 0.48 0.43 0.41 0.43 0.41 0.39 0.35 0.25 0.16 0.13 0.12 0.11 0.09 0.07 0.05 0.04 0.04 0.03 0.02 0.01 0.01 0.00 0.00 0.01 0.01 0.02 0.05 0.09 0.10 0.10 0.13 0.14 0.15
0.74 0.68 0.68 0.70 0.71 0.79 0.77 0.66 0.57 0.50 0.47 0.47 0.45 0.41 0.35 0.34 0.34 0.26 0.16 0.14 0.14 0.12 0.09 0.08 0.06 0.06 0.04 0.03 0.02 0.01 0.00 0.00 0.00 0.00 0.01 0.02 0.05 0.08 0.08 0.10 0.12 0.14 0.16
1.03 0.91 0.81 0.81 0.77 0.79 0.83 0.73 0.66 0.58 0.53 0.48 0.45 0.37 0.32 0.34 0.32 0.26 0.15 0.10 0.12 0.11 0.08 0.08 0.06 0.05 0.04 0.02 0.01 0.00 0.00 0.00 0.00 0.00 0.01 0.02 0.04 0.06 0.06 0.08 0.10 0.11 0.11
1.19 1.10 0.95 0.88 0.85 0.88 0.85 0.83 0.77 0.67 0.60 0.52 0.44 0.42 0.37 0.35 0.33 0.27 0.19 0.10 0.09 0.09 0.08 0.07 0.06 0.05 0.03 0.01 0.00 0.00 0.00 0.00 0.00 0.00 0.00 0.02 0.05 0.06 0.06 0.06 0.06 0.07 0.08
1.38 1.34 1.17 1.01 0.96 0.92 0.87 0.83 0.81 0.69 0.63 0.56 0.48 0.43 0.39 0.38 0.34 0.33 0.26 0.18 0.13 0.09 0.07 0.06 0.05 0.04 0.02 0.02 0.01 0.00 0.00 0.00 0.00 0.00 0.00 0.02 0.03 0.05 0.05 0.05 0.06 0.06 0.08
1.65 1.63 1.44 1.23 1.08 1.01 0.90 0.78 0.74 0.69 0.62 0.54 0.48 0.47 0.43 0.38 0.33 0.28 0.23 0.17 0.15 0.10 0.07 0.05 0.03 0.03 0.02 0.02 0.02 0.01 0.00 0.00 0.00 0.00 0.00 0.01 0.01 0.03 0.05 0.05 0.06 0.07 0.09
1.92 1.91 1.81 1.54 1.28 1.12 1.02 0.90 0.74 0.64 0.56 0.53 0.49 0.47 0.42 0.34 0.29 0.27 0.23 0.20 0.16 0.11 0.08 0.06 0.04 0.03 0.03 0.03 0.03 0.02 0.01 0.00 0.00 0.00 0.00 0.00 0.00 0.02 0.04 0.05 0.07 0.09 0.12
2.07 2.18 2.18 1.88 1.54 1.26 1.11 0.99 0.84 0.66 0.58 0.56 0.54 0.47 0.42 0.35 0.28 0.25 0.22 0.19 0.16 0.14 0.11 0.08 0.06 0.05 0.04 0.04 0.03 0.03 0.02 0.01 0.01 0.01 0.01 0.00 0.00 0.01 0.02 0.04 0.08 0.12 0.16
2.15 2.33 2.40 2.25 1.93 1.50 1.25 1.11 0.98 0.83 0.68 0.60 0.55 0.52 0.49 0.42 0.33 0.28 0.24 0.20 0.16 0.16 0.15 0.13 0.11 0.09 0.07 0.05 0.04 0.03 0.03 0.02 0.02 0.02 0.02 0.01 0.01 0.01 0.01 0.03 0.07 0.13 0.15
2.19 2.31 2.41 2.39 2.22 1.84 1.42 1.24 1.10 1.01 0.89 0.74 0.66 0.64 0.59 0.51 0.44 0.37 0.27 0.20 0.18 0.20 0.20 0.15 0.13 0.13 0.10 0.08 0.07 0.06 0.04 0.02 0.02 0.02 0.02 0.01 0.01 0.01 0.01 0.02 0.04 0.08 0.12
2.05 2.24 2.47 2.42 2.30 2.10 1.80 1.54 1.36 1.19 1.08 0.96 0.81 0.72 0.74 0.70 0.62 0.53 0.36 0.27 0.25 0.24 0.21 0.19 0.15 0.15 0.13 0.10 0.08 0.07 0.06 0.04 0.03 0.02 0.02 0.01 0.01 0.01 0.01 0.01 0.02 0.03 0.06
1.90 2.11 2.31 2.56 2.49 2.46 2.38 2.06 1.72 1.50 1.28 1.16 1.00 0.84 0.82 0.81 0.76 0.70 0.57 0.44 0.39 0.34 0.28 0.24 0.20 0.18 0.16 0.15 0.13 0.09 0.07 0.06 0.05 0.04 0.03 0.02 0.02 0.01 0.02 0.02 0.02 0.02 0.03
1.75 1.95 2.08 2.30 2.48 2.51 2.43 2.14 1.78 1.54 1.45 1.40 1.27 1.14 1.02 0.95 0.87 0.80 0.71 0.60 0.50 0.43 0.36 0.33 0.30 0.26 0.22 0.23 0.23 0.18 0.11 0.08 0.06 0.05 0.05 0.04 0.03 0.03 0.03 0.03 0.03 0.03 0.03
1.54 1.67 1.90 1.97 2.23 2.28 2.20 2.17 2.00 1.89 1.76 1.66 1.57 1.38 1.24 1.15 1.02 0.90 0.80 0.75 0.62 0.52 0.48 0.46 0.43 0.37 0.31 0.30 0.32 0.32 0.24 0.16 0.10 0.08 0.07 0.07 0.07 0.07 0.06 0.05 0.05 0.06 0.06
1.27 1.53 1.63 1.70 1.94 2.15 2.23 2.37 2.44 2.38 2.08 1.80 1.63 1.57 1.44 1.35 1.22 1.06 0.93 0.89 0.84 0.71 0.60 0.60 0.59 0.56 0.54 0.52 0.49 0.52 0.45 0.30 0.20 0.12 0.10 0.10 0.10 0.10 0.09 0.08 0.08 0.09 0.09
0.96 1.26 1.59 1.70 1.83 2.02 2.30 2.32 2.26 2.12 1.91 1.63 1.59 1.68 1.67 1.55 1.42 1.25 1.13 1.04 0.99 0.94 0.83 0.80 0.79 0.81 0.82 0.76 0.70 0.66 0.62 0.53 0.48 0.33 0.17 0.12 0.12 0.11 0.12 0.12 0.11 0.11 0.11
0.78 0.99 1.27 1.55 1.78 1.96 2.08 2.15 2.22 2.07 1.90 1.83 1.72 1.68 1.61 1.52 1.45 1.36 1.28 1.23 1.15 1.11 1.11 1.11 1.05 1.00 0.98 0.94 0.88 0.83 0.80 0.73 0.65 0.61 0.41 0.25 0.22 0.20 0.18 0.17 0.16 0.16 0.17
0.68 0.80 0.97 1.20 1.40 1.62 1.83 1.92 1.99 1.99 1.99 1.95 1.77 1.64 1.62 1.59 1.53 1.43 1.40 1.38 1.35 1.30 1.28 1.27 1.26 1.24 1.21 1.15 1.12 1.02 0.96 0.91 0.80 0.83 0.74 0.52 0.44 0.35 0.31 0.29 0.28 0.28 0.27

GEFSSE_prec_meanprecacc_156.txt.gz
Total_Precipitation_Accumulation
0.04 0.07 0.24 0.30 0.33 0.27 0.20 0.14 0.13 0.13 0.12 0.12 0.11 0.12 0.12 0.12 0.12 0.12 0.13 0.15 0.17 0.21 0.27 0.29 0.34 0.46 0.46 0.33 0.22 0.13 0.10 0.07 0.06 0.05 0.05 0.07 0.10 0.13 0.11 0.10 0.12 0.15 0.20
0.05 0.09 0.23 0.30 0.35 0.32 0.26 0.21 0.15 0.13 0.14 0.15 0.15 0.15 0.15 0.14 0.14 0.16 0.18 0.19 0.22 0.26 0.29 0.31 0.37 0.42 0.40 0.30 0.18 0.08 0.04 0.02 0.01 0.01 0.01 0.02 0.06 0.10 0.07 0.06 0.08 0.15 0.18
0.07 0.11 0.21 0.31 0.37 0.35 0.31 0.26 0.20 0.16 0.16 0.18 0.21 0.20 0.20 0.18 0.18 0.18 0.20 0.23 0.25 0.27 0.28 0.33 0.33 0.33 0.30 0.24 0.15 0.07 0.04 0.01 0.01 0.01 0.02 0.03 0.08 0.11 0.09 0.09 0.12 0.16 0.17
0.09 0.14 0.21 0.30 0.39 0.40 0.37 0.30 0.26 0.26 0.23 0.24 0.26 0.26 0.26 0.23 0.22 0.22 0.22 0.22 0.23 0.22 0.23 0.24 0.20 0.16 0.12 0.10 0.09 0.07 0.04 0.01 0.01 0.02 0.03 0.05 0.10 0.17 0.16 0.15 0.16 0.18 0.18
0.15 0.19 0.26 0.34 0.39 0.42 0.41 0.38 0.34 0.32 0.33 0.32 0.32 0.31 0.33 0.32 0.28 0.25 0.23 0.21 0.18 0.16 0.15 0.14 0.11 0.07 0.05 0.04 0.04 0.06 0.04 0.01 0.01 0.02 0.03 0.05 0.09 0.20 0.18 0.15 0.16 0.17 0.19
0.21 0.24 0.34 0.41 0.43 0.42 0.42 0.40 0.38 0.36 0.36 0.37 0.33 0.32 0.36 0.39 0.36 0.28 0.22 0.17 0.13 0.11 0.10 0.08 0.06 0.04 0.03 0.03 0.03 0.03 0.03 0.02 0.01 0.02 0.03 0.05 0.08 0.18 0.16 0.14 0.15 0.16 0.18
0.26 0.28 0.37 0.50 0.56 0.55 0.53 0.49 0.44 0.41 0.39 0.40 0.35 0.33 0.37 0.41 0.41 0.31 0.21 0.15 0.10 0.09 0.09 0.07 0.04 0.04 0.03 0.03 0.03 0.02 0.02 0.01 0.01 0.02 0.03 0.04 0.09 0.18 0.16 0.14 0.14 0.15 0.16
0.36 0.39 0.46 0.60 0.66 0.67 0.66 0.60 0.55 0.51 0.46 0.44 0.41 0.43 0.42 0.42 0.43 0.33 0.21 0.16 0.14 0.11 0.09 0.07 0.05 0.04 0.03 0.03 0.03 0.02 0.01 0.01 0.01 0.01 0.02 0.03 0.07 0.13 0.13 0.12 0.13 0.14 0.13
0.52 0.54 0.61 0.66 0.72 0.77 0.73 0.66 0.62 0.59 0.56 0.51 0.48 0.49 0.47 0.45 0.41 0.31 0.20 0.17 0.16 0.15 0.12 0.09 0.07 0.06 0.05 0.04 0.03 0.02 0.01 0.00 0.00 0.01 0.01 0.02 0.05 0.10 0.10 0.11 0.13 0.15 0.15
0.75 0.69 0.70 0.72 0.74 0.82 0.82 0.72 0.64 0.58 0.56 0.56 0.52 0.48 0.40 0.38 0.40 0.34 0.20 0.17 0.17 0.15 0.13 0.11 0.08 0.08 0.06 0.04 0.03 0.01 0.01 0.00 0.00 0.00 0.01 0.02 0.05 0.09 0.09 0.11 0.12 0.15 0.16
1.04 0.93 0.82 0.82 0.79 0.82 0.87 0.79 0.72 0.64 0.60 0.57 0.52 0.42 0.38 0.39 0.36 0.31 0.20 0.13 0.14 0.14 0.12 0.11 0.09 0.08 0.06 0.04 0.02 0.01 0.01 0.00 0.00 0.00 0.01 0.02 0.05 0.07 0.07 0.09 0.10 0.11 0.12
1.20 1.12 0.96 0.89 0.87 0.90 0.89 0.89 0.84 0.74 0.65 0.59 0.50 0.46 0.41 0.41 0.39 0.33 0.26 0.15 0.12 0.13 0.12 0.11 0.10 0.08 0.05 0.03 0.01 0.00 0.00 0.00 0.00 0.00 0.00 0.02 0.05 0.07 0.07 0.07 0.06 0.07 0.08
1.38 1.35 1.18 1.02 0.99 0.96 0.90 0.88 0.89 0.79 0.70 0.62 0.55 0.50 0.44 0.44 0.41 0.40 0.33 0.24 0.17 0.12 0.11 0.10 0.08 0.06 0.04 0.02 0.01 0.00 0.00 0.00 0.00 0.00 0.01 0.02 0.04 0.06 0.06 0.06 0.06 0.07 0.08
1.65 1.64 1.44 1.24 1.10 1.04 0.96 0.84 0.81 0.79 0.73 0.63 0.54 0.55 0.51 0.45 0.39 0.35 0.31 0.24 0.20 0.13 0.10 0.08 0.06 0.05 0.04 0.03 0.02 0.01 0.00 0.00 0.00 0.00 0.01 0.01 0.02 0.04 0.06 0.06 0.06 0.08 0.09
1.93 1.92 1.82 1.54 1.29 1.15 1.08 0.97 0.82 0.72 0.65 0.64 0.58 0.54 0.48 0.41 0.35 0.34 0.32 0.29 0.23 0.16 0.11 0.09 0.07 0.05 0.04 0.04 0.04 0.02 0.01 0.01 0.01 0.00 0.00 0.00 0.01 0.02 0.05 0.07 0.08 0.10 0.13
2.08 2.19 2.19 1.89 1.55 1.29 1.16 1.04 0.91 0.73 0.66 0.66 0.64 0.56 0.50 0.42 0.35 0.32 0.31 0.29 0.26 0.21 0.16 0.12 0.09 0.07 0.06 0.05 0.04 0.03 0.03 0.02 0.01 0.01 0.01 0.01 0.01 0.01 0.03 0.06 0.10 0.13 0.17
2.16 2.34 2.41 2.26 1.94 1.52 1.29 1.15 1.04 0.89 0.75 0.66 0.61 0.59 0.57 0.52 0.43 0.37 0.34 0.30 0.27 0.25 0.23 0.18 0.15 0.13 0.09 0.07 0.05 0.04 0.04 0.03 0.02 0.02 0.02 0.01 0.01 0.01 0.02 0.04 0.10 0.15 0.17
2.20 2.33 2.42 2.40 2.24 1.86 1.45 1.27 1.15 1.06 0.95 0.79 0.71 0.69 0.65 0.59 0.53 0.49 0.40 0.32 0.30 0.32 0.29 0.23 0.18 0.16 0.12 0.10 0.08 0.07 0.05 0.04 0.03 0.03 0.02 0.01 0.02 0.02 0.01 0.03 0.06 0.11 0.14
2.07 2.26 2.49 2.43 2.31 2.13 1.83 1.57 1.41 1.25 1.14 1.01 0.84 0.76 0.80 0.77 0.70 0.64 0.49 0.39 0.37 0.36 0.32 0.30 0.24 0.20 0.16 0.12 0.10 0.09 0.08 0.06 0.05 0.04 0.02 0.02 0.02 0.02 0.02 0.03 0.03 0.04 0.08
1.92 2.14 2.33 2.58 2.50 2.47 2.40 2.08 1.74 1.54 1.32 1.19 1.03 0.88 0.87 0.88 0.86 0.82 0.70 0.58 0.53 0.47 0.40 0.34 0.29 0.26 0.22 0.19 0.17 0.13 0.10 0.08 0.07 0.05 0.04 0.03 0.03 0.03 0.03 0.03 0.03 0.03 0.04
1.76 1.97 2.10 2.31 2.49 2.53 2.44 2.15 1.79 1.55 1.47 1.43 1.29 1.16 1.06 1.00 0.96 0.91 0.86 0.77 0.67 0.59 0.50 0.45 0.41 0.35 0.30 0.29 0.29 0.22 0.14 0.10 0.08 0.07 0.06 0.06 0.05 0.04 0.05 0.05 0.05 0.05 0.05
1.54 1.68 1.91 1.99 2.24 2.30 2.22 2.18 2.02 1.91 1.78 1.68 1.58 1.39 1.26 1.21 1.10 0.99 0.92 0.89 0.78 0.70 0.65 0.62 0.58 0.51 0.44 0.40 0.40 0.39 0.29 0.19 0.12 0.09 0.09 0.09 0.09 0.09 0.08 0.07 0.07 0.07 0.07
1.28 1.54 1.66 1.73 1.96 2.18 2.25 2.39 2.46 2.39 2.10 1.83 1.66 1.58 1.46 1.40 1.30 1.15 1.03 1.00 0.97 0.84 0.76 0.77 0.76 0.71 0.69 0.67 0.62 0.64 0.53 0.35 0.22 0.14 0.11 0.11 0.12 0.12 0.11 0.11 0.10 0.11 0.10
0.96 1.27 1.61 1.74 1.88 2.07 2.34 2.35 2.28 2.14 1.92 1.67 1.65 1.71 1.69 1.59 1.48 1.33 1.22 1.15 1.12 1.06 0.95 0.95 0.95 0.95 0.95 0.90 0.85 0.80 0.73 0.59 0.52 0.35 0.18 0.14 0.14 0.13 0.14 0.15 0.14 0.13 0.13
0.80 1.01 1.29 1.58 1.82 2.01 2.13 2.18 2.24 2.10 1.92 1.86 1.77 1.73 1.66 1.57 1.52 1.43 1.37 1.33 1.28 1.25 1.22 1.23 1.19 1.13 1.09 1.04 0.99 0.95 0.92 0.82 0.71 0.66 0.45 0.28 0.25 0.22 0.21 0.20 0.19 0.19 0.20
0.71 0.83 1.02 1.28 1.47 1.68 1.87 1.96 2.02 2.03 2.03 1.98 1.80 1.68 1.67 1.65 1.61 1.52 1.49 1.49 1.47 1.44 1.40 1.37 1.36 1.35 1.31 1.24 1.20 1.10 1.05 0.99 0.87 0.88 0.79 0.56 0.47 0.39 0.34 0.32 0.31 0.31 0.30

GEFSSE_prec_meanprecacc_162.txt.gz
Total_Precipitation_Accumulation
0.05 0.08 0.26 0.37 0.40 0.32 0.23 0.16 0.14 0.14 0.14 0.13 0.13 0.14 0.14 0.15 0.14 0.14 0.15 0.16 0.18 0.22 0.28 0.30 0.35 0.47 0.48 0.34 0.22 0.13 0.10 0.08 0.07 0.06 0.05 0.08 0.10 0.13 0.11 0.10 0.12 0.16 0.20
0.05 0.09 0.26 0.36 0.44 0.40 0.33 0.24 0.16 0.14 0.15 0.16 0.17 0.17 0.17 0.16 0.16 0.18 0.20 0.20 0.23 0.27 0.30 0.32 0.37 0.44 0.41 0.30 0.18 0.08 0.04 0.02 0.01 0.01 0.01 0.02 0.06 0.10 0.07 0.06 0.09 0.16 0.19
0.07 0.12 0.24 0.35 0.44 0.44 0.41 0.33 0.24 0.19 0.18 0.20 0.23 0.22 0.22 0.20 0.20 0.21 0.22 0.24 0.27 0.28 0.29 0.34 0.34 0.34 0.31 0.24 0.15 0.07 0.04 0.02 0.01 0.01 0.02 0.03 0.08 0.12 0.10 0.10 0.13 0.17 0.18
0.10 0.15 0.23 0.33 0.43 0.47 0.46 0.39 0.33 0.31 0.28 0.27 0.29 0.29 0.29 0.26 0.25 0.25 0.25 0.24 0.24 0.23 0.24 0.25 0.21 0.17 0.13 0.11 0.09 0.07 0.04 0.02 0.01 0.02 0.03 0.05 0.10 0.17 0.17 0.16 0.18 0.19 0.19
0.16 0.20 0.30 0.38 0.43 0.47 0.47 0.46 0.42 0.39 0.38 0.37 0.37 0.36 0.37 0.34 0.30 0.28 0.26 0.23 0.20 0.17 0.16 0.16 0.12 0.08 0.05 0.04 0.05 0.06 0.04 0.02 0.01 0.02 0.03 0.05 0.10 0.21 0.19 0.16 0.17 0.18 0.20
0.22 0.25 0.36 0.44 0.47 0.46 0.47 0.45 0.45 0.43 0.43 0.43 0.38 0.37 0.42 0.44 0.41 0.32 0.26 0.21 0.16 0.13 0.11 0.10 0.07 0.06 0.04 0.03 0.03 0.04 0.03 0.02 0.01 0.02 0.04 0.05 0.09 0.18 0.17 0.14 0.15 0.17 0.18
0.28 0.31 0.41 0.56 0.61 0.59 0.58 0.54 0.49 0.47 0.45 0.45 0.41 0.39 0.42 0.46 0.46 0.37 0.26 0.19 0.13 0.11 0.10 0.08 0.05 0.05 0.04 0.04 0.04 0.03 0.02 0.01 0.01 0.02 0.04 0.05 0.10 0.18 0.17 0.14 0.15 0.16 0.16
0.37 0.41 0.52 0.68 0.73 0.72 0.69 0.64 0.60 0.57 0.53 0.49 0.47 0.48 0.47 0.48 0.48 0.38 0.26 0.20 0.17 0.14 0.12 0.09 0.06 0.05 0.04 0.04 0.03 0.03 0.01 0.01 0.01 0.01 0.02 0.03 0.07 0.13 0.14 0.13 0.13 0.14 0.14
0.54 0.57 0.66 0.73 0.79 0.85 0.78 0.69 0.65 0.63 0.62 0.57 0.54 0.55 0.52 0.49 0.46 0.35 0.24 0.20 0.20 0.18 0.15 0.12 0.10 0.09 0.07 0.05 0.03 0.02 0.01 0.00 0.01 0.01 0.01 0.02 0.05 0.10 0.11 0.12 0.14 0.16 0.15
0.76 0.71 0.72 0.76 0.79 0.88 0.87 0.76 0.65 0.60 0.59 0.61 0.60 0.53 0.45 0.42 0.43 0.38 0.23 0.20 0.20 0.19 0.16 0.14 0.11 0.10 0.09 0.06 0.03 0.02 0.01 0.00 0.00 0.00 0.01 0.02 0.05 0.09 0.09 0.12 0.13 0.15 0.16
1.06 0.94 0.84 0.84 0.81 0.85 0.90 0.82 0.75 0.66 0.61 0.60 0.60 0.50 0.42 0.43 0.40 0.35 0.23 0.15 0.17 0.17 0.15 0.15 0.14 0.11 0.09 0.06 0.03 0.01 0.01 0.00 0.01 0.01 0.01 0.02 0.05 0.08 0.08 0.10 0.11 0.11 0.12
1.22 1.15 1.00 0.91 0.89 0.92 0.92 0.92 0.88 0.77 0.68 0.61 0.55 0.57 0.49 0.45 0.44 0.37 0.30 0.18 0.16 0.16 0.15 0.16 0.15 0.15 0.10 0.05 0.03 0.01 0.01 0.00 0.00 0.01 0.01 0.02 0.06 0.07 0.08 0.08 0.07 0.07 0.08
1.40 1.37 1.22 1.06 1.02 1.00 0.94 0.90 0.92 0.82 0.74 0.67 0.60 0.58 0.59 0.53 0.46 0.45 0.38 0.29 0.23 0.16 0.15 0.15 0.15 0.13 0.10 0.06 0.04 0.02 0.01 0.01 0.01 0.01 0.01 0.02 0.04 0.07 0.08 0.08 0.07 0.07 0.08
1.66 1.65 1.46 1.28 1.15 1.09 1.02 0.89 0.84 0.81 0.75 0.67 0.60 0.62 0.62 0.57 0.46 0.39 0.35 0.30 0.26 0.19 0.16 0.15 0.13 0.12 0.09 0.07 0.05 0.02 0.01 0.01 0.01 0.01 0.01 0.01 0.02 0.06 0.08 0.09 0.09 0.09 0.10
1.93 1.92 1.83 1.56 1.31 1.17 1.11 1.02 0.88 0.77 0.69 0.68 0.64 0.60 0.56 0.51 0.44 0.38 0.34 0.34 0.30 0.23 0.17 0.15 0.15 0.12 0.10 0.08 0.07 0.04 0.02 0.01 0.01 0.01 0.01 0.01 0.01 0.03 0.07 0.09 0.11 0.12 0.14
2.09 2.19 2.20 1.90 1.57 1.31 1.18 1.08 0.96 0.78 0.70 0.70 0.70 0.63 0.58 0.50 0.44 0.39 0.33 0.32 0.30 0.28 0.23 0.18 0.16 0.15 0.14 0.11 0.09 0.06 0.04 0.02 0.02 0.01 0.01 0.01 0.01 0.02 0.03 0.07 0.13 0.18 0.21
2.16 2.34 2.42 2.27 1.95 1.53 1.30 1.16 1.06 0.92 0.80 0.72 0.68 0.67 0.65 0.60 0.53 0.47 0.39 0.34 0.30 0.30 0.30 0.26 0.23 0.21 0.18 0.15 0.12 0.09 0.06 0.04 0.03 0.03 0.02 0.02 0.02 0.02 0.02 0.05 0.12 0.19 0.22
2.21 2.34 2.42 2.41 2.25 1.86 1.46 1.28 1.16 1.07 0.97 0.84 0.79 0.78 0.73 0.68 0.62 0.60 0.49 0.38 0.35 0.38 0.37 0.31 0.26 0.25 0.20 0.17 0.15 0.13 0.10 0.07 0.05 0.03 0.03 0.02 0.02 0.02 0.02 0.03 0.07 0.13 0.18
2.08 2.27 2.50 2.46 2.34 2.14 1.84 1.57 1.42 1.26 1.15 1.02 0.88 0.83 0.87 0.85 0.79 0.73 0.59 0.48 0.43 0.42 0.40 0.39 0.34 0.30 0.24 0.18 0.15 0.14 0.12 0.09 0.07 0.05 0.03 0.02 0.02 0.02 0.03 0.03 0.04 0.05 0.09
1.93 2.16 2.34 2.59 2.54 2.51 2.41 2.09 1.75 1.55 1.34 1.21 1.05 0.91 0.91 0.93 0.92 0.90 0.79 0.66 0.61 0.54 0.47 0.43 0.41 0.39 0.35 0.30 0.24 0.18 0.15 0.12 0.10 0.07 0.06 0.04 0.04 0.04 0.04 0.04 0.04 0.04 0.05
1.77 1.99 2.11 2.32 2.52 2.57 2.47 2.16 1.80 1.57 1.49 1.45 1.31 1.17 1.09 1.03 0.99 0.96 0.93 0.85 0.75 0.65 0.57 0.53 0.50 0.47 0.44 0.44 0.42 0.32 0.21 0.15 0.12 0.09 0.08 0.07 0.06 0.06 0.06 0.06 0.06 0.06 0.06
1.54 1.69 1.93 2.00 2.25 2.32 2.25 2.21 2.03 1.92 1.80 1.70 1.60 1.41 1.28 1.22 1.12 1.02 0.96 0.94 0.85 0.77 0.73 0.73 0.69 0.64 0.58 0.56 0.56 0.53 0.40 0.27 0.18 0.12 0.11 0.10 0.10 0.10 0.10 0.09 0.08 0.09 0.09
1.28 1.55 1.67 1.73 1.97 2.19 2.27 2.40 2.47 2.41 2.11 1.84 1.68 1.59 1.47 1.41 1.31 1.18 1.06 1.04 1.01 0.89 0.81 0.83 0.86 0.85 0.85 0.82 0.77 0.81 0.70 0.47 0.31 0.20 0.15 0.13 0.13 0.13 0.12 0.12 0.12 0.12 0.12
0.96 1.27 1.61 1.75 1.88 2.08 2.35 2.36 2.30 2.16 1.94 1.68 1.67 1.72 1.70 1.60 1.49 1.35 1.25 1.18 1.15 1.09 0.99 1.00 1.02 1.05 1.09 1.07 1.02 0.94 0.86 0.69 0.62 0.44 0.24 0.18 0.17 0.15 0.16 0.17 0.16 0.15 0.15
0.80 1.01 1.29 1.58 1.82 2.02 2.15 2.20 2.25 2.11 1.93 1.87 1.79 1.76 1.67 1.58 1.53 1.45 1.39 1.35 1.30 1.27 1.25 1.27 1.24 1.21 1.19 1.17 1.14 1.10 1.07 0.95 0.81 0.74 0.52 0.34 0.30 0.26 0.23 0.22 0.21 0.22 0.23
0.71 0.84 1.02 1.28 1.48 1.69 1.89 1.99 2.05 2.05 2.04 1.99 1.82 1.72 1.71 1.69 1.63 1.53 1.51 1.50 1.49 1.47 1.43 1.40 1.40 1.41 1.39 1.33 1.29 1.20 1.15 1.09 0.95 0.96 0.86 0.62 0.54 0.46 0.40 0.36 0.34 0.34 0.33

GEFSSE_prec_meanprecacc_168.txt.gz
Total_Precipitation_Accumulation
0.06 0.10 0.28 0.39 0.41 0.34 0.25 0.18 0.16 0.16 0.16 0.15 0.15 0.15 0.15 0.16 0.15 0.15 0.16 0.17 0.19 0.23 0.30 0.32 0.36 0.48 0.49 0.35 0.23 0.13 0.10 0.08 0.07 0.06 0.06 0.08 0.10 0.13 0.12 0.11 0.12 0.16 0.21
0.06 0.11 0.27 0.38 0.45 0.41 0.35 0.26 0.18 0.16 0.17 0.18 0.19 0.19 0.18 0.17 0.17 0.19 0.21 0.22 0.25 0.29 0.32 0.34 0.38 0.45 0.43 0.31 0.18 0.08 0.04 0.02 0.01 0.01 0.01 0.02 0.06 0.10 0.07 0.07 0.09 0.17 0.20
0.08 0.14 0.25 0.37 0.46 0.46 0.42 0.35 0.26 0.21 0.20 0.23 0.25 0.24 0.24 0.22 0.21 0.22 0.24 0.27 0.30 0.31 0.31 0.37 0.36 0.36 0.32 0.25 0.15 0.07 0.04 0.02 0.01 0.01 0.02 0.03 0.09 0.12 0.10 0.10 0.14 0.18 0.19
0.10 0.17 0.25 0.35 0.46 0.49 0.48 0.42 0.37 0.33 0.30 0.30 0.32 0.32 0.32 0.28 0.26 0.26 0.27 0.27 0.27 0.26 0.26 0.27 0.23 0.19 0.14 0.11 0.10 0.07 0.04 0.02 0.01 0.02 0.03 0.05 0.10 0.18 0.18 0.16 0.18 0.19 0.19
0.17 0.22 0.32 0.40 0.46 0.51 0.50 0.49 0.46 0.42 0.41 0.40 0.39 0.39 0.41 0.39 0.33 0.30 0.28 0.26 0.22 0.20 0.19 0.19 0.15 0.10 0.06 0.05 0.06 0.06 0.04 0.02 0.01 0.02 0.03 0.05 0.10 0.21 0.20 0.17 0.17 0.18 0.20
0.23 0.27 0.38 0.46 0.49 0.49 0.50 0.48 0.48 0.46 0.46 0.46 0.41 0.40 0.45 0.49 0.45 0.35 0.29 0.23 0.18 0.16 0.14 0.13 0.10 0.08 0.06 0.04 0.04 0.04 0.03 0.02 0.01 0.02 0.04 0.06 0.09 0.19 0.18 0.15 0.15 0.17 0.18
0.29 0.33 0.43 0.57 0.62 0.61 0.60 0.55 0.50 0.49 0.49 0.50 0.45 0.42 0.46 0.50 0.51 0.41 0.30 0.22 0.16 0.14 0.13 0.11 0.08 0.07 0.06 0.05 0.05 0.04 0.02 0.01 0.01 0.03 0.05 0.07 0.10 0.19 0.17 0.15 0.15 0.16 0.17
0.39 0.43 0.54 0.69 0.75 0.74 0.71 0.65 0.61 0.58 0.55 0.54 0.53 0.53 0.50 0.51 0.52 0.43 0.30 0.23 0.20 0.17 0.14 0.12 0.09 0.07 0.06 0.05 0.04 0.03 0.02 0.01 0.01 0.01 0.02 0.04 0.08 0.14 0.15 0.13 0.14 0.15 0.14
0.56 0.60 0.69 0.76 0.82 0.88 0.80 0.70 0.66 0.64 0.63 0.59 0.59 0.60 0.54 0.51 0.48 0.39 0.27 0.23 0.22 0.21 0.18 0.15 0.13 0.11 0.09 0.07 0.05 0.03 0.01 0.01 0.01 0.01 0.02 0.03 0.06 0.11 0.11 0.12 0.14 0.16 0.15
0.77 0.73 0.75 0.79 0.82 0.92 0.92 0.78 0.66 0.60 0.60 0.62 0.63 0.60 0.49 0.44 0.45 0.40 0.26 0.22 0.22 0.21 0.19 0.17 0.14 0.13 0.11 0.08 0.05 0.02 0.01 0.01 0.00 0.01 0.02 0.02 0.05 0.09 0.10 0.12 0.14 0.16 0.16
1.07 0.96 0.87 0.88 0.85 0.89 0.96 0.85 0.77 0.67 0.62 0.60 0.61 0.55 0.49 0.48 0.46 0.40 0.26 0.16 0.19 0.19 0.17 0.18 0.17 0.15 0.12 0.09 0.05 0.02 0.01 0.01 0.01 0.01 0.02 0.02 0.05 0.08 0.09 0.10 0.12 0.12 0.12
1.23 1.16 1.02 0.94 0.94 0.98 0.97 0.97 0.94 0.81 0.70 0.63 0.57 0.58 0.55 0.51 0.49 0.43 0.34 0.20 0.18 0.18 0.17 0.19 0.19 0.19 0.15 0.10 0.06 0.03 0.02 0.01 0.01 0.01 0.01 0.02 0.06 0.08 0.09 0.09 0.08 0.08 0.09
1.41 1.38 1.24 1.09 1.06 1.04 0.99 0.95 0.97 0.86 0.78 0.72 0.66 0.63 0.62 0.59 0.52 0.53 0.45 0.33 0.28 0.20 0.19 0.19 0.20 0.17 0.15 0.12 0.10 0.06 0.03 0.03 0.02 0.02 0.02 0.02 0.05 0.08 0.10 0.10 0.08 0.08 0.09
1.68 1.67 1.49 1.32 1.20 1.15 1.08 0.94 0.88 0.84 0.79 0.72 0.65 0.68 0.68 0.63 0.53 0.49 0.46 0.35 0.30 0.24 0.21 0.21 0.19 0.16 0.14 0.14 0.14 0.09 0.06 0.04 0.02 0.02 0.02 0.01 0.02 0.07 0.09 0.11 0.11 0.10 0.11
1.95 1.93 1.84 1.58 1.35 1.22 1.18 1.08 0.92 0.79 0.71 0.71 0.68 0.65 0.61 0.56 0.49 0.46 0.45 0.41 0.35 0.27 0.22 0.22 0.22 0.19 0.16 0.14 0.14 0.11 0.08 0.06 0.04 0.02 0.02 0.01 0.01 0.03 0.07 0.10 0.12 0.14 0.16
2.10 2.21 2.21 1.91 1.58 1.33 1.22 1.14 1.02 0.84 0.73 0.73 0.73 0.67 0.63 0.55 0.49 0.47 0.41 0.39 0.36 0.33 0.29 0.25 0.23 0.25 0.23 0.19 0.16 0.13 0.13 0.11 0.08 0.06 0.03 0.02 0.01 0.02 0.04 0.08 0.14 0.19 0.23
2.17 2.35 2.42 2.27 1.96 1.54 1.31 1.19 1.09 0.98 0.85 0.76 0.72 0.70 0.69 0.65 0.59 0.56 0.49 0.43 0.39 0.38 0.37 0.33 0.31 0.31 0.29 0.24 0.19 0.16 0.14 0.12 0.09 0.08 0.06 0.04 0.03 0.02 0.02 0.06 0.13 0.21 0.24
2.22 2.34 2.43 2.41 2.25 1.87 1.47 1.29 1.17 1.09 1.01 0.88 0.82 0.81 0.77 0.73 0.68 0.68 0.60 0.49 0.44 0.46 0.44 0.39 0.34 0.33 0.29 0.27 0.23 0.19 0.16 0.12 0.10 0.08 0.07 0.05 0.04 0.04 0.03 0.04 0.08 0.14 0.19
2.09 2.28 2.50 2.46 2.34 2.15 1.84 1.58 1.43 1.27 1.17 1.05 0.91 0.85 0.89 0.88 0.84 0.80 0.67 0.56 0.51 0.50 0.48 0.47 0.41 0.38 0.32 0.27 0.25 0.24 0.20 0.15 0.12 0.10 0.07 0.05 0.04 0.04 0.04 0.04 0.05 0.06 0.10
1.93 2.16 2.34 2.60 2.54 2.51 2.41 2.09 1.76 1.56 1.35 1.23 1.06 0.93 0.92 0.94 0.94 0.93 0.84 0.72 0.67 0.60 0.53 0.51 0.48 0.47 0.44 0.39 0.34 0.29 0.26 0.21 0.17 0.13 0.10 0.08 0.06 0.05 0.05 0.05 0.05 0.05 0.05
1.77 1.99 2.11 2.32 2.52 2.57 2.47 2.17 1.81 1.58 1.51 1.46 1.32 1.18 1.10 1.04 1.01 0.99 0.97 0.90 0.80 0.70 0.62 0.58 0.57 0.54 0.52 0.53 0.53 0.43 0.31 0.25 0.20 0.16 0.13 0.11 0.08 0.07 0.07 0.07 0.07 0.07 0.06
1.55 1.70 1.93 2.00 2.25 2.32 2.26 2.21 2.05 1.94 1.83 1.72 1.62 1.42 1.29 1.24 1.14 1.05 0.99 0.98 0.91 0.82 0.78 0.78 0.75 0.70 0.64 0.63 0.66 0.63 0.48 0.35 0.24 0.18 0.16 0.15 0.13 0.13 0.11 0.10 0.09 0.10 0.10
1.28 1.55 1.67 1.74 1.97 2.19 2.27 2.40 2.49 2.43 2.13 1.86 1.69 1.61 1.49 1.42 1.33 1.20 1.09 1.07 1.05 0.93 0.85 0.88 0.91 0.90 0.90 0.88 0.84 0.92 0.81 0.55 0.37 0.25 0.20 0.18 0.17 0.16 0.15 0.14 0.13 0.13 0.13
0.97 1.28 1.61 1.75 1.88 2.08 2.35 2.36 2.30 2.18 1.97 1.71 1.69 1.74 1.71 1.60 1.50 1.36 1.26 1.20 1.17 1.12 1.03 1.04 1.06 1.10 1.14 1.12 1.06 1.00 0.94 0.79 0.72 0.51 0.29 0.23 0.21 0.19 0.20 0.19 0.18 0.17 0.17
0.80 1.01 1.29 1.58 1.82 2.02 2.15 2.21 2.26 2.11 1.94 1.89 1.82 1.78 1.68 1.58 1.53 1.46 1.40 1.36 1.32 1.30 1.28 1.30 1.28 1.25 1.23 1.22 1.18 1.15 1.14 1.03 0.91 0.84 0.60 0.40 0.35 0.31 0.28 0.26 0.24 0.24 0.25
0.71 0.84 1.02 1.28 1.48 1.69 1.89 1.99 2.05 2.05 2.05 2.01 1.83 1.74 1.73 1.70 1.64 1.53 1.52 1.51 1.50 1.48 1.45 1.43 1.43 1.45 1.43 1.37 1.34 1.25 1.20 1.16 1.03 1.04 0.94 0.69 0.61 0.51 0.44 0.40 0.37 0.36 0.35

GEFSSE_prec_meanprecacc_174.txt.gz
Total_Precipitation_Accumulation
0.08 0.11 0.29 0.40 0.42 0.34 0.25 0.19 0.17 0.17 0.16 0.15 0.15 0.15 0.15 0.16 0.16 0.15 0.16 0.18 0.20 0.25 0.31 0.34 0.38 0.49 0.50 0.36 0.23 0.13 0.10 0.08 0.07 0.06 0.06 0.08 0.11 0.14 0.12 0.11 0.13 0.17 0.22
0.07 0.13 0.28 0.39 0.46 0.42 0.35 0.27 0.19 0.16 0.18 0.19 0.20 0.19 0.19 0.18 0.17 0.19 0.22 0.23 0.26 0.31 0.33 0.36 0.40 0.46 0.44 0.32 0.19 0.08 0.04 0.02 0.01 0.01 0.01 0.02 0.07 0.11 0.08 0.07 0.09 0.17 0.20
0.09 0.14 0.26 0.38 0.46 0.46 0.43 0.36 0.27 0.22 0.21 0.23 0.26 0.25 0.25 0.22 0.22 0.22 0.25 0.28 0.32 0.32 0.33 0.38 0.39 0.38 0.34 0.27 0.16 0.07 0.04 0.02 0.01 0.01 0.02 0.03 0.09 0.12 0.10 0.10 0.14 0.18 0.19
0.11 0.17 0.26 0.37 0.47 0.50 0.49 0.42 0.37 0.34 0.31 0.31 0.34 0.34 0.34 0.29 0.27 0.27 0.28 0.28 0.29 0.28 0.28 0.29 0.26 0.23 0.16 0.12 0.11 0.08 0.05 0.02 0.01 0.02 0.03 0.05 0.10 0.18 0.18 0.17 0.19 0.20 0.20
0.19 0.22 0.33 0.42 0.47 0.51 0.51 0.49 0.46 0.43 0.42 0.41 0.41 0.41 0.44 0.40 0.35 0.32 0.29 0.27 0.24 0.21 0.20 0.21 0.17 0.13 0.09 0.07 0.06 0.07 0.05 0.03 0.02 0.02 0.04 0.05 0.10 0.21 0.20 0.18 0.18 0.18 0.21
0.25 0.28 0.39 0.47 0.50 0.49 0.50 0.49 0.49 0.47 0.47 0.47 0.42 0.43 0.49 0.52 0.46 0.37 0.31 0.26 0.20 0.18 0.16 0.15 0.12 0.10 0.08 0.06 0.05 0.05 0.04 0.02 0.01 0.03 0.05 0.07 0.09 0.19 0.19 0.16 0.16 0.17 0.19
0.31 0.34 0.45 0.58 0.64 0.62 0.60 0.56 0.50 0.50 0.49 0.50 0.46 0.45 0.50 0.54 0.54 0.43 0.33 0.25 0.18 0.16 0.15 0.13 0.10 0.09 0.08 0.07 0.06 0.05 0.03 0.02 0.02 0.03 0.05 0.07 0.11 0.20 0.19 0.16 0.16 0.17 0.17
0.40 0.45 0.56 0.71 0.76 0.75 0.72 0.66 0.61 0.58 0.55 0.54 0.54 0.56 0.55 0.55 0.56 0.45 0.32 0.26 0.23 0.18 0.16 0.13 0.11 0.09 0.08 0.08 0.07 0.05 0.03 0.02 0.01 0.01 0.02 0.04 0.08 0.15 0.16 0.14 0.14 0.15 0.14
0.58 0.62 0.71 0.78 0.84 0.89 0.81 0.70 0.67 0.64 0.64 0.60 0.59 0.62 0.58 0.55 0.51 0.41 0.29 0.26 0.25 0.23 0.19 0.16 0.14 0.12 0.10 0.09 0.07 0.05 0.03 0.01 0.01 0.01 0.02 0.03 0.06 0.11 0.12 0.13 0.15 0.17 0.16
0.79 0.75 0.77 0.81 0.85 0.94 0.94 0.79 0.67 0.61 0.61 0.63 0.63 0.60 0.50 0.46 0.48 0.42 0.26 0.23 0.24 0.23 0.20 0.18 0.15 0.15 0.13 0.10 0.07 0.05 0.03 0.01 0.01 0.01 0.02 0.02 0.06 0.10 0.10 0.13 0.16 0.18 0.18
1.08 0.98 0.88 0.90 0.88 0.93 0.98 0.88 0.78 0.68 0.63 0.61 0.61 0.55 0.50 0.49 0.46 0.41 0.27 0.17 0.20 0.20 0.19 0.19 0.18 0.17 0.15 0.11 0.08 0.04 0.03 0.02 0.01 0.01 0.02 0.02 0.05 0.08 0.09 0.12 0.13 0.14 0.14
1.24 1.17 1.03 0.96 0.95 1.01 1.00 1.00 0.97 0.84 0.72 0.64 0.58 0.59 0.56 0.51 0.50 0.43 0.34 0.21 0.19 0.19 0.18 0.20 0.20 0.21 0.16 0.12 0.09 0.06 0.04 0.03 0.02 0.02 0.01 0.02 0.06 0.09 0.10 0.10 0.09 0.10 0.10
1.42 1.39 1.25 1.11 1.08 1.06 1.02 0.99 1.02 0.91 0.81 0.74 0.67 0.64 0.63 0.60 0.53 0.53 0.45 0.34 0.28 0.20 0.20 0.20 0.21 0.18 0.15 0.14 0.13 0.09 0.06 0.04 0.03 0.03 0.02 0.03 0.05 0.09 0.12 0.12 0.10 0.10 0.11
1.68 1.67 1.49 1.33 1.23 1.18 1.10 0.97 0.92 0.89 0.82 0.74 0.67 0.69 0.69 0.64 0.54 0.50 0.47 0.37 0.32 0.25 0.22 0.22 0.20 0.17 0.14 0.15 0.15 0.12 0.09 0.06 0.04 0.03 0.02 0.02 0.03 0.07 0.10 0.12 0.12 0.11 0.13
1.95 1.94 1.85 1.59 1.38 1.26 1.20 1.11 0.94 0.81 0.73 0.73 0.70 0.66 0.62 0.57 0.50 0.47 0.47 0.45 0.39 0.30 0.24 0.23 0.23 0.20 0.17 0.16 0.15 0.13 0.11 0.09 0.07 0.05 0.03 0.01 0.02 0.04 0.08 0.11 0.14 0.15 0.18
2.11 2.21 2.21 1.91 1.59 1.35 1.25 1.18 1.05 0.86 0.74 0.74 0.74 0.68 0.64 0.56 0.50 0.49 0.43 0.43 0.41 0.37 0.33 0.28 0.25 0.27 0.25 0.22 0.18 0.16 0.16 0.15 0.13 0.09 0.06 0.04 0.03 0.03 0.05 0.10 0.16 0.22 0.25
2.19 2.37 2.43 2.28 1.97 1.55 1.34 1.25 1.16 1.02 0.87 0.77 0.73 0.71 0.70 0.66 0.60 0.58 0.51 0.47 0.43 0.42 0.41 0.37 0.34 0.35 0.33 0.29 0.23 0.20 0.18 0.16 0.13 0.12 0.10 0.08 0.07 0.05 0.04 0.07 0.15 0.23 0.26
2.25 2.37 2.45 2.42 2.26 1.88 1.48 1.32 1.22 1.15 1.04 0.90 0.84 0.83 0.78 0.74 0.71 0.71 0.63 0.53 0.49 0.52 0.50 0.43 0.38 0.38 0.33 0.31 0.27 0.23 0.20 0.17 0.15 0.13 0.12 0.09 0.08 0.07 0.05 0.05 0.09 0.16 0.21
2.12 2.30 2.52 2.47 2.35 2.16 1.85 1.59 1.44 1.30 1.21 1.09 0.93 0.86 0.90 0.89 0.86 0.83 0.71 0.59 0.55 0.56 0.54 0.53 0.47 0.43 0.37 0.32 0.30 0.28 0.25 0.21 0.18 0.16 0.13 0.10 0.07 0.06 0.06 0.06 0.06 0.07 0.11
1.96 2.18 2.36 2.62 2.56 2.52 2.42 2.10 1.77 1.57 1.37 1.24 1.09 0.96 0.94 0.95 0.95 0.95 0.86 0.74 0.70 0.64 0.56 0.54 0.53 0.53 0.49 0.44 0.40 0.34 0.31 0.28 0.24 0.19 0.16 0.13 0.10 0.08 0.07 0.07 0.07 0.06 0.06
1.79 2.01 2.13 2.34 2.53 2.58 2.48 2.17 1.82 1.59 1.52 1.46 1.32 1.19 1.12 1.06 1.02 1.01 0.98 0.91 0.81 0.72 0.64 0.60 0.60 0.58 0.58 0.60 0.60 0.49 0.38 0.32 0.28 0.23 0.19 0.17 0.14 0.12 0.11 0.11 0.11 0.10 0.09
1.56 1.71 1.95 2.02 2.27 2.33 2.27 2.22 2.05 1.94 1.83 1.72 1.62 1.42 1.30 1.25 1.15 1.06 1.00 0.99 0.91 0.83 0.79 0.79 0.77 0.72 0.67 0.68 0.73 0.69 0.55 0.43 0.32 0.24 0.21 0.20 0.19 0.19 0.17 0.15 0.14 0.14 0.13
1.30 1.56 1.68 1.75 1.98 2.20 2.28 2.41 2.49 2.44 2.13 1.86 1.69 1.61 1.49 1.42 1.33 1.20 1.09 1.07 1.05 0.94 0.86 0.89 0.93 0.92 0.92 0.91 0.88 0.97 0.86 0.60 0.43 0.30 0.25 0.23 0.22 0.23 0.22 0.21 0.18 0.17 0.18
0.98 1.29 1.62 1.76 1.89 2.09 2.36 2.37 2.31 2.18 1.97 1.71 1.69 1.74 1.71 1.61 1.51 1.36 1.27 1.20 1.18 1.13 1.04 1.05 1.08 1.12 1.16 1.14 1.09 1.03 0.97 0.81 0.75 0.54 0.33 0.27 0.25 0.23 0.25 0.26 0.24 0.21 0.21
0.82 1.03 1.30 1.59 1.83 2.02 2.15 2.21 2.26 2.12 1.94 1.89 1.82 1.78 1.70 1.59 1.54 1.46 1.40 1.37 1.33 1.30 1.29 1.31 1.29 1.27 1.26 1.24 1.20 1.17 1.17 1.06 0.94 0.87 0.64 0.44 0.39 0.34 0.30 0.29 0.28 0.28 0.29
0.72 0.85 1.03 1.29 1.48 1.69 1.89 1.99 2.05 2.05 2.05 2.01 1.83 1.75 1.75 1.72 1.64 1.54 1.52 1.52 1.52 1.49 1.45 1.44 1.45 1.47 1.45 1.39 1.36 1.28 1.24 1.19 1.07 1.08 0.97 0.73 0.65 0.55 0.48 0.43 0.40 0.39 0.39

GEFSSE_prec_meanprecacc_180.txt.gz
Total_Precipitation_Accumulation
0.08 0.11 0.30 0.41 0.43 0.35 0.26 0.19 0.18 0.18 0.18 0.17 0.17 0.16 0.16 0.16 0.16 0.15 0.17 0.19 0.21 0.26 0.32 0.35 0.39 0.51 0.51 0.37 0.24 0.14 0.11 0.09 0.07 0.07 0.07 0.09 0.11 0.14 0.13 0.12 0.13 0.17 0.23
0.07 0.13 0.29 0.41 0.48 0.43 0.36 0.27 0.19 0.17 0.19 0.20 0.22 0.21 0.20 0.19 0.18 0.20 0.22 0.25 0.29 0.33 0.36 0.38 0.42 0.48 0.45 0.34 0.19 0.09 0.05 0.03 0.02 0.02 0.02 0.03 0.07 0.11 0.08 0.07 0.10 0.18 0.21
0.09 0.15 0.28 0.41 0.50 0.47 0.43 0.36 0.27 0.22 0.21 0.24 0.28 0.28 0.27 0.24 0.23 0.24 0.26 0.30 0.33 0.34 0.35 0.41 0.41 0.41 0.36 0.29 0.17 0.08 0.05 0.02 0.01 0.01 0.02 0.03 0.09 0.13 0.11 0.11 0.14 0.19 0.20
0.12 0.19 0.28 0.39 0.50 0.52 0.49 0.43 0.37 0.34 0.31 0.31 0.35 0.36 0.37 0.32 0.28 0.27 0.29 0.30 0.30 0.29 0.30 0.32 0.28 0.26 0.18 0.15 0.13 0.09 0.06 0.03 0.02 0.02 0.03 0.05 0.10 0.19 0.18 0.18 0.20 0.21 0.21
0.21 0.25 0.37 0.45 0.51 0.54 0.53 0.51 0.47 0.43 0.42 0.41 0.41 0.42 0.46 0.44 0.37 0.33 0.30 0.28 0.25 0.23 0.21 0.22 0.18 0.14 0.11 0.09 0.08 0.09 0.06 0.04 0.03 0.03 0.04 0.06 0.10 0.22 0.20 0.19 0.19 0.19 0.22
0.29 0.31 0.44 0.52 0.54 0.54 0.53 0.51 0.50 0.48 0.47 0.47 0.43 0.43 0.49 0.53 0.49 0.39 0.32 0.27 0.21 0.20 0.18 0.16 0.13 0.12 0.10 0.08 0.07 0.07 0.05 0.03 0.02 0.03 0.05 0.07 0.09 0.20 0.19 0.17 0.17 0.19 0.20
0.37 0.40 0.52 0.65 0.69 0.66 0.64 0.59 0.53 0.52 0.51 0.51 0.46 0.45 0.50 0.56 0.57 0.46 0.34 0.26 0.20 0.17 0.16 0.13 0.11 0.10 0.10 0.09 0.08 0.06 0.05 0.04 0.03 0.03 0.05 0.07 0.11 0.20 0.19 0.16 0.17 0.18 0.18
0.48 0.53 0.64 0.78 0.82 0.79 0.76 0.70 0.64 0.61 0.57 0.56 0.55 0.58 0.55 0.56 0.58 0.49 0.34 0.28 0.25 0.19 0.17 0.14 0.12 0.11 0.10 0.09 0.08 0.06 0.04 0.03 0.02 0.02 0.03 0.04 0.08 0.16 0.16 0.15 0.15 0.17 0.15
0.67 0.72 0.80 0.85 0.90 0.93 0.84 0.74 0.71 0.67 0.66 0.62 0.61 0.64 0.59 0.56 0.53 0.45 0.31 0.27 0.27 0.25 0.20 0.17 0.16 0.14 0.12 0.11 0.09 0.06 0.05 0.03 0.02 0.02 0.02 0.03 0.06 0.12 0.13 0.14 0.16 0.18 0.17
0.87 0.87 0.87 0.88 0.92 0.99 0.97 0.82 0.70 0.64 0.63 0.65 0.65 0.62 0.51 0.47 0.49 0.44 0.28 0.25 0.27 0.26 0.22 0.19 0.17 0.16 0.14 0.11 0.08 0.06 0.05 0.04 0.02 0.02 0.03 0.03 0.06 0.10 0.11 0.14 0.16 0.18 0.19
1.15 1.08 0.99 0.96 0.94 0.98 1.03 0.92 0.81 0.70 0.66 0.63 0.63 0.57 0.51 0.51 0.48 0.42 0.27 0.18 0.22 0.23 0.21 0.20 0.20 0.18 0.15 0.12 0.09 0.05 0.04 0.04 0.03 0.03 0.03 0.03 0.06 0.09 0.10 0.12 0.13 0.14 0.15
1.29 1.23 1.13 1.04 1.01 1.05 1.06 1.06 1.01 0.86 0.74 0.65 0.59 0.61 0.57 0.53 0.51 0.44 0.35 0.21 0.20 0.21 0.21 0.21 0.21 0.22 0.18 0.13 0.09 0.07 0.05 0.04 0.04 0.03 0.03 0.03 0.07 0.10 0.12 0.11 0.09 0.10 0.12
1.46 1.42 1.31 1.18 1.14 1.11 1.07 1.05 1.07 0.93 0.83 0.76 0.69 0.66 0.65 0.61 0.55 0.55 0.46 0.35 0.29 0.22 0.22 0.21 0.22 0.19 0.16 0.15 0.13 0.09 0.07 0.05 0.05 0.05 0.03 0.04 0.06 0.10 0.14 0.15 0.12 0.11 0.12
1.70 1.69 1.51 1.38 1.29 1.23 1.14 1.02 0.97 0.93 0.85 0.76 0.69 0.72 0.72 0.67 0.57 0.52 0.49 0.39 0.33 0.26 0.24 0.23 0.21 0.18 0.15 0.15 0.16 0.12 0.10 0.07 0.05 0.05 0.04 0.03 0.04 0.09 0.13 0.16 0.16 0.14 0.14
1.96 1.95 1.86 1.60 1.41 1.30 1.24 1.15 0.99 0.86 0.76 0.76 0.74 0.69 0.65 0.60 0.53 0.50 0.50 0.47 0.40 0.31 0.26 0.25 0.24 0.21 0.18 0.16 0.16 0.14 0.12 0.10 0.08 0.06 0.04 0.02 0.03 0.05 0.11 0.14 0.17 0.18 0.20
2.12 2.22 2.22 1.92 1.60 1.37 1.29 1.23 1.10 0.91 0.79 0.76 0.76 0.71 0.67 0.60 0.53 0.53 0.47 0.46 0.43 0.40 0.35 0.30 0.27 0.29 0.26 0.23 0.19 0.17 0.18 0.16 0.14 0.11 0.07 0.04 0.03 0.04 0.08 0.13 0.20 0.25 0.29
2.21 2.38 2.44 2.29 1.97 1.56 1.36 1.27 1.19 1.06 0.93 0.83 0.75 0.72 0.71 0.68 0.62 0.60 0.55 0.51 0.47 0.45 0.44 0.41 0.38 0.38 0.34 0.30 0.24 0.22 0.20 0.18 0.15 0.14 0.12 0.09 0.08 0.06 0.06 0.11 0.20 0.28 0.30
2.27 2.38 2.46 2.43 2.27 1.89 1.50 1.36 1.26 1.17 1.07 0.95 0.88 0.85 0.79 0.75 0.72 0.72 0.65 0.56 0.52 0.55 0.53 0.46 0.42 0.41 0.35 0.31 0.28 0.24 0.21 0.18 0.17 0.16 0.15 0.11 0.09 0.08 0.07 0.08 0.14 0.22 0.27
2.15 2.32 2.54 2.48 2.36 2.16 1.86 1.61 1.47 1.33 1.24 1.12 0.97 0.89 0.91 0.89 0.86 0.84 0.71 0.61 0.57 0.58 0.56 0.56 0.50 0.45 0.39 0.33 0.31 0.29 0.26 0.22 0.19 0.18 0.15 0.13 0.10 0.09 0.09 0.08 0.09 0.11 0.17
1.99 2.21 2.39 2.63 2.57 2.53 2.43 2.11 1.78 1.59 1.39 1.27 1.11 0.98 0.95 0.95 0.95 0.95 0.86 0.75 0.72 0.65 0.58 0.55 0.55 0.55 0.51 0.46 0.42 0.36 0.32 0.29 0.25 0.21 0.18 0.15 0.12 0.11 0.10 0.10 0.09 0.09 0.10
1.83 2.04 2.16 2.37 2.55 2.59 2.49 2.18 1.83 1.60 1.53 1.48 1.34 1.20 1.12 1.06 1.02 1.01 0.99 0.91 0.83 0.74 0.66 0.62 0.61 0.60 0.59 0.62 0.62 0.51 0.40 0.34 0.29 0.24 0.21 0.19 0.16 0.14 0.14 0.14 0.15 0.14 0.14
1.60 1.74 1.96 2.04 2.29 2.35 2.28 2.23 2.06 1.95 1.84 1.73 1.63 1.43 1.30 1.25 1.15 1.06 1.01 0.99 0.92 0.85 0.81 0.81 0.78 0.73 0.68 0.70 0.75 0.73 0.59 0.47 0.35 0.26 0.24 0.23 0.22 0.22 0.19 0.18 0.17 0.18 0.18
1.33 1.59 1.70 1.77 2.00 2.22 2.30 2.43 2.51 2.45 2.14 1.87 1.70 1.61 1.49 1.42 1.33 1.20 1.09 1.08 1.06 0.96 0.88 0.91 0.94 0.93 0.93 0.92 0.89 1.00 0.89 0.64 0.47 0.34 0.28 0.26 0.26 0.28 0.27 0.26 0.23 0.23 0.23
1.01 1.33 1.65 1.78 1.91 2.11 2.38 2.38 2.32 2.20 1.98 1.72 1.70 1.75 1.71 1.61 1.51 1.36 1.27 1.20 1.18 1.14 1.06 1.07 1.09 1.13 1.17 1.15 1.10 1.04 0.98 0.83 0.77 0.57 0.36 0.30 0.28 0.26 0.28 0.30 0.28 0.26 0.25
0.84 1.07 1.36 1.62 1.85 2.05 2.18 2.23 2.28 2.13 1.96 1.90 1.83 1.79 1.70 1.59 1.54 1.46 1.40 1.37 1.33 1.31 1.30 1.33 1.31 1.29 1.28 1.26 1.22 1.18 1.18 1.07 0.95 0.89 0.65 0.45 0.41 0.37 0.33 0.31 0.31 0.32 0.33
0.73 0.87 1.08 1.33 1.51 1.72 1.93 2.03 2.09 2.08 2.08 2.02 1.84 1.75 1.75 1.72 1.64 1.54 1.52 1.52 1.52 1.49 1.46 1.44 1.45 1.48 1.46 1.41 1.38 1.29 1.25 1.21 1.08 1.09 0.99 0.74 0.67 0.57 0.50 0.45 0.42 0.41 0.42

GEFSSE_prec_meanprecacc_186.txt.gz
Total_Precipitation_Accumulation
0.09 0.12 0.32 0.44 0.46 0.37 0.27 0.20 0.19 0.19 0.19 0.19 0.19 0.19 0.17 0.17 0.17 0.16 0.18 0.20 0.22 0.28 0.34 0.37 0.41 0.53 0.52 0.38 0.25 0.16 0.12 0.09 0.08 0.08 0.08 0.10 0.12 0.15 0.13 0.12 0.14 0.18 0.24
0.08 0.14 0.32 0.46 0.53 0.45 0.37 0.28 0.20 0.18 0.20 0.22 0.23 0.23 0.22 0.20 0.19 0.21 0.24 0.27 0.30 0.34 0.37 0.40 0.44 0.50 0.47 0.35 0.21 0.10 0.06 0.04 0.02 0.02 0.02 0.03 0.08 0.12 0.09 0.08 0.10 0.18 0.21
0.10 0.17 0.31 0.47 0.56 0.52 0.45 0.37 0.28 0.22 0.22 0.26 0.29 0.29 0.29 0.27 0.25 0.25 0.28 0.32 0.35 0.35 0.36 0.42 0.43 0.42 0.37 0.29 0.18 0.09 0.06 0.04 0.02 0.02 0.02 0.04 0.10 0.13 0.11 0.11 0.15 0.20 0.21
0.13 0.21 0.33 0.46 0.60 0.58 0.52 0.44 0.38 0.35 0.32 0.33 0.36 0.37 0.38 0.34 0.31 0.30 0.30 0.32 0.32 0.30 0.30 0.32 0.30 0.27 0.19 0.15 0.13 0.10 0.08 0.05 0.03 0.03 0.04 0.05 0.11 0.19 0.19 0.18 0.21 0.22 0.22
0.23 0.28 0.43 0.52 0.62 0.64 0.58 0.53 0.49 0.45 0.44 0.42 0.42 0.43 0.47 0.45 0.39 0.36 0.33 0.30 0.27 0.24 0.22 0.22 0.19 0.15 0.11 0.09 0.09 0.09 0.07 0.05 0.04 0.03 0.04 0.06 0.11 0.22 0.21 0.19 0.19 0.20 0.23
0.31 0.35 0.50 0.60 0.66 0.68 0.61 0.56 0.53 0.50 0.49 0.48 0.44 0.44 0.50 0.54 0.50 0.41 0.36 0.29 0.23 0.21 0.19 0.16 0.14 0.12 0.10 0.08 0.07 0.07 0.06 0.05 0.03 0.03 0.05 0.07 0.10 0.20 0.19 0.17 0.17 0.19 0.21
0.42 0.46 0.59 0.73 0.82 0.80 0.73 0.66 0.57 0.55 0.53 0.53 0.48 0.46 0.51 0.56 0.57 0.48 0.37 0.29 0.21 0.18 0.17 0.14 0.12 0.11 0.10 0.09 0.08 0.07 0.05 0.04 0.04 0.04 0.06 0.07 0.11 0.20 0.19 0.17 0.17 0.18 0.19
0.53 0.61 0.74 0.88 0.93 0.93 0.85 0.77 0.71 0.65 0.60 0.58 0.58 0.59 0.57 0.57 0.59 0.50 0.36 0.29 0.26 0.21 0.18 0.16 0.13 0.12 0.11 0.10 0.09 0.08 0.05 0.03 0.03 0.03 0.03 0.04 0.09 0.16 0.17 0.15 0.16 0.17 0.16
0.74 0.81 0.90 0.97 1.01 1.05 0.94 0.84 0.79 0.75 0.70 0.65 0.64 0.66 0.61 0.57 0.55 0.46 0.33 0.28 0.28 0.26 0.21 0.18 0.17 0.15 0.13 0.12 0.11 0.08 0.06 0.03 0.02 0.02 0.03 0.04 0.07 0.12 0.14 0.15 0.17 0.18 0.18
0.95 0.98 0.99 1.01 1.05 1.10 1.06 0.92 0.80 0.73 0.69 0.70 0.68 0.63 0.53 0.48 0.51 0.46 0.30 0.27 0.28 0.27 0.23 0.20 0.17 0.16 0.15 0.12 0.10 0.08 0.06 0.05 0.03 0.03 0.03 0.04 0.07 0.10 0.12 0.15 0.17 0.19 0.19
1.23 1.19 1.12 1.10 1.07 1.09 1.12 1.00 0.92 0.82 0.75 0.71 0.69 0.60 0.53 0.52 0.50 0.45 0.29 0.20 0.23 0.25 0.22 0.21 0.20 0.18 0.16 0.13 0.10 0.06 0.05 0.05 0.04 0.04 0.04 0.04 0.07 0.10 0.11 0.14 0.14 0.15 0.15
1.36 1.34 1.27 1.20 1.19 1.18 1.15 1.13 1.10 0.97 0.86 0.77 0.68 0.66 0.60 0.55 0.54 0.47 0.37 0.23 0.21 0.23 0.23 0.23 0.22 0.23 0.18 0.13 0.10 0.08 0.06 0.05 0.05 0.04 0.04 0.04 0.08 0.11 0.13 0.13 0.11 0.11 0.12
1.53 1.51 1.44 1.35 1.37 1.29 1.18 1.13 1.14 1.03 0.95 0.88 0.80 0.75 0.70 0.64 0.56 0.58 0.49 0.37 0.31 0.23 0.24 0.23 0.23 0.20 0.17 0.16 0.14 0.10 0.08 0.06 0.06 0.05 0.04 0.05 0.07 0.12 0.16 0.18 0.15 0.13 0.14
1.78 1.79 1.63 1.53 1.51 1.45 1.28 1.10 1.04 1.00 0.93 0.87 0.80 0.83 0.81 0.73 0.59 0.53 0.51 0.41 0.36 0.28 0.26 0.25 0.22 0.19 0.16 0.17 0.17 0.13 0.11 0.08 0.06 0.06 0.04 0.03 0.05 0.10 0.16 0.19 0.20 0.18 0.18
2.03 2.03 1.95 1.72 1.59 1.51 1.41 1.25 1.06 0.92 0.82 0.82 0.83 0.79 0.76 0.68 0.58 0.52 0.51 0.49 0.43 0.34 0.28 0.27 0.25 0.22 0.19 0.18 0.17 0.15 0.13 0.11 0.09 0.08 0.05 0.03 0.03 0.06 0.12 0.17 0.21 0.23 0.25
2.18 2.29 2.29 1.99 1.71 1.53 1.43 1.34 1.18 0.99 0.86 0.82 0.82 0.78 0.75 0.69 0.60 0.56 0.50 0.49 0.46 0.42 0.39 0.34 0.30 0.30 0.27 0.24 0.20 0.18 0.18 0.17 0.15 0.13 0.09 0.07 0.05 0.05 0.09 0.15 0.24 0.31 0.35
2.27 2.44 2.49 2.34 2.03 1.65 1.47 1.36 1.26 1.12 1.00 0.90 0.80 0.76 0.77 0.75 0.70 0.65 0.59 0.53 0.50 0.48 0.48 0.45 0.42 0.41 0.36 0.31 0.25 0.23 0.21 0.18 0.16 0.15 0.14 0.12 0.10 0.08 0.07 0.13 0.23 0.33 0.37
2.32 2.44 2.51 2.46 2.30 1.93 1.57 1.42 1.30 1.21 1.11 1.02 0.95 0.89 0.84 0.81 0.79 0.78 0.68 0.59 0.55 0.59 0.57 0.51 0.46 0.45 0.38 0.34 0.29 0.26 0.22 0.20 0.18 0.17 0.16 0.13 0.12 0.10 0.08 0.09 0.15 0.24 0.32
2.19 2.38 2.60 2.51 2.39 2.18 1.89 1.65 1.51 1.35 1.26 1.16 1.02 0.95 0.97 0.94 0.92 0.88 0.73 0.63 0.60 0.61 0.59 0.59 0.55 0.50 0.43 0.37 0.34 0.31 0.27 0.23 0.20 0.18 0.16 0.14 0.12 0.11 0.11 0.10 0.11 0.13 0.20
2.02 2.26 2.45 2.67 2.59 2.55 2.45 2.14 1.80 1.61 1.41 1.30 1.14 1.01 0.99 1.00 1.00 0.99 0.88 0.76 0.73 0.67 0.60 0.58 0.58 0.61 0.57 0.51 0.46 0.38 0.34 0.30 0.26 0.22 0.19 0.17 0.14 0.12 0.12 0.12 0.12 0.11 0.14
1.86 2.08 2.21 2.40 2.57 2.61 2.51 2.20 1.84 1.61 1.54 1.49 1.34 1.21 1.13 1.08 1.06 1.04 1.01 0.92 0.83 0.76 0.68 0.64 0.62 0.63 0.67 0.71 0.69 0.55 0.42 0.35 0.30 0.25 0.22 0.20 0.17 0.15 0.15 0.16 0.18 0.18 0.18
1.63 1.78 2.02 2.08 2.30 2.36 2.29 2.24 2.06 1.95 1.84 1.73 1.63 1.43 1.30 1.25 1.16 1.08 1.02 1.00 0.92 0.85 0.84 0.86 0.83 0.76 0.72 0.76 0.83 0.79 0.63 0.49 0.36 0.27 0.25 0.24 0.23 0.23 0.21 0.20 0.20 0.22 0.24
1.36 1.62 1.74 1.80 2.02 2.23 2.31 2.43 2.51 2.45 2.14 1.87 1.70 1.61 1.49 1.42 1.33 1.21 1.11 1.08 1.06 0.96 0.89 0.94 0.99 0.99 0.98 0.96 0.95 1.08 0.97 0.69 0.50 0.35 0.29 0.27 0.27 0.29 0.29 0.28 0.27 0.27 0.28
1.03 1.36 1.67 1.80 1.93 2.12 2.38 2.39 2.33 2.20 1.98 1.72 1.70 1.75 1.71 1.61 1.51 1.36 1.27 1.21 1.18 1.14 1.07 1.08 1.11 1.16 1.21 1.19 1.14 1.08 1.04 0.90 0.83 0.61 0.38 0.31 0.29 0.27 0.30 0.31 0.30 0.28 0.28
0.86 1.11 1.39 1.64 1.87 2.07 2.19 2.24 2.28 2.14 1.96 1.91 1.83 1.79 1.70 1.59 1.54 1.46 1.40 1.38 1.33 1.31 1.30 1.34 1.33 1.32 1.32 1.31 1.26 1.22 1.21 1.11 0.99 0.93 0.68 0.47 0.43 0.38 0.34 0.33 0.32 0.34 0.35
0.75 0.90 1.14 1.38 1.53 1.74 1.95 2.04 2.09 2.09 2.08 2.03 1.85 1.76 1.75 1.72 1.64 1.54 1.52 1.52 1.52 1.49 1.46 1.44 1.46 1.50 1.49 1.45 1.43 1.35 1.29 1.24 1.11 1.12 1.01 0.76 0.68 0.59 0.52 0.47 0.44 0.43 0.44

GEFSSE_prec_meanprecacc_192.txt.gz
Total_Precipitation_Accumulation
0.09 0.13 0.34 0.46 0.48 0.39 0.29 0.22 0.21 0.21 0.21 0.20 0.20 0.20 0.18 0.19 0.18 0.17 0.19 0.21 0.23 0.28 0.35 0.38 0.41 0.54 0.53 0.38 0.26 0.17 0.13 0.10 0.09 0.08 0.08 0.10 0.13 0.15 0.14 0.13 0.15 0.20 0.25
0.08 0.15 0.34 0.50 0.56 0.49 0.39 0.31 0.22 0.20 0.21 0.23 0.24 0.24 0.23 0.22 0.22 0.23 0.26 0.28 0.31 0.35 0.38 0.42 0.45 0.50 0.48 0.35 0.21 0.10 0.07 0.05 0.03 0.03 0.02 0.03 0.08 0.12 0.09 0.08 0.11 0.20 0.23
0.10 0.18 0.35 0.52 0.62 0.57 0.49 0.40 0.31 0.25 0.25 0.28 0.31 0.30 0.30 0.28 0.28 0.29 0.32 0.34 0.36 0.36 0.37 0.44 0.44 0.42 0.38 0.30 0.18 0.10 0.07 0.05 0.04 0.02 0.02 0.04 0.10 0.14 0.11 0.12 0.16 0.20 0.22
0.13 0.22 0.35 0.50 0.65 0.64 0.58 0.49 0.43 0.40 0.36 0.35 0.38 0.39 0.39 0.35 0.33 0.35 0.35 0.35 0.35 0.31 0.32 0.34 0.30 0.28 0.19 0.16 0.14 0.10 0.08 0.05 0.04 0.03 0.04 0.06 0.12 0.20 0.20 0.19 0.21 0.23 0.23
0.24 0.29 0.44 0.55 0.67 0.69 0.63 0.60 0.55 0.51 0.49 0.47 0.45 0.45 0.48 0.46 0.41 0.39 0.37 0.34 0.30 0.26 0.23 0.24 0.20 0.16 0.12 0.09 0.09 0.09 0.07 0.06 0.04 0.04 0.04 0.06 0.11 0.23 0.22 0.19 0.19 0.20 0.23
0.35 0.39 0.52 0.63 0.72 0.75 0.68 0.63 0.60 0.58 0.56 0.54 0.49 0.48 0.52 0.55 0.52 0.43 0.38 0.32 0.26 0.23 0.20 0.18 0.15 0.13 0.11 0.09 0.07 0.08 0.07 0.05 0.04 0.04 0.05 0.07 0.10 0.20 0.20 0.17 0.17 0.19 0.22
0.47 0.52 0.64 0.77 0.89 0.94 0.86 0.74 0.65 0.62 0.60 0.59 0.53 0.51 0.54 0.59 0.60 0.49 0.39 0.31 0.24 0.21 0.18 0.15 0.12 0.12 0.11 0.10 0.09 0.07 0.06 0.05 0.04 0.04 0.06 0.08 0.11 0.21 0.20 0.17 0.17 0.18 0.19
0.60 0.67 0.80 0.94 1.00 1.08 1.01 0.87 0.79 0.73 0.68 0.63 0.62 0.63 0.61 0.61 0.63 0.52 0.38 0.31 0.28 0.22 0.19 0.17 0.14 0.12 0.11 0.11 0.10 0.08 0.06 0.04 0.03 0.03 0.04 0.06 0.10 0.17 0.18 0.16 0.16 0.17 0.16
0.82 0.90 1.00 1.06 1.08 1.20 1.08 0.92 0.87 0.83 0.79 0.72 0.68 0.69 0.64 0.61 0.60 0.50 0.35 0.30 0.29 0.27 0.22 0.20 0.18 0.16 0.14 0.13 0.11 0.09 0.07 0.03 0.02 0.02 0.03 0.05 0.08 0.13 0.15 0.16 0.17 0.19 0.18
1.04 1.10 1.12 1.13 1.15 1.26 1.22 1.02 0.89 0.82 0.80 0.79 0.74 0.67 0.56 0.52 0.55 0.50 0.33 0.30 0.29 0.27 0.23 0.21 0.18 0.18 0.16 0.13 0.10 0.08 0.06 0.05 0.04 0.04 0.04 0.05 0.08 0.12 0.14 0.16 0.18 0.20 0.20
1.32 1.32 1.30 1.24 1.18 1.23 1.27 1.10 1.00 0.91 0.86 0.81 0.77 0.65 0.56 0.55 0.54 0.48 0.32 0.23 0.26 0.26 0.23 0.22 0.22 0.20 0.17 0.13 0.10 0.07 0.05 0.05 0.05 0.05 0.06 0.05 0.08 0.12 0.14 0.16 0.16 0.17 0.17
1.43 1.46 1.44 1.33 1.31 1.30 1.29 1.24 1.20 1.06 0.96 0.88 0.78 0.74 0.66 0.61 0.59 0.51 0.40 0.25 0.23 0.25 0.25 0.25 0.24 0.24 0.19 0.14 0.11 0.09 0.07 0.05 0.06 0.06 0.05 0.05 0.09 0.12 0.15 0.16 0.14 0.14 0.14
1.60 1.62 1.58 1.48 1.49 1.40 1.32 1.24 1.25 1.13 1.05 0.98 0.89 0.84 0.78 0.71 0.62 0.63 0.55 0.41 0.34 0.26 0.27 0.26 0.26 0.21 0.18 0.17 0.16 0.11 0.09 0.08 0.07 0.06 0.04 0.05 0.08 0.13 0.18 0.21 0.18 0.16 0.16
1.88 1.90 1.75 1.65 1.62 1.56 1.40 1.21 1.12 1.10 1.03 0.96 0.88 0.90 0.88 0.79 0.66 0.59 0.57 0.47 0.40 0.31 0.29 0.28 0.24 0.21 0.18 0.19 0.19 0.15 0.12 0.09 0.07 0.07 0.04 0.04 0.05 0.11 0.17 0.21 0.22 0.21 0.22
2.12 2.13 2.05 1.83 1.70 1.60 1.51 1.37 1.13 1.01 0.92 0.91 0.89 0.86 0.84 0.76 0.64 0.58 0.59 0.57 0.49 0.39 0.34 0.31 0.28 0.24 0.21 0.20 0.20 0.17 0.15 0.13 0.11 0.09 0.06 0.04 0.03 0.06 0.13 0.18 0.23 0.26 0.29
2.28 2.37 2.36 2.09 1.82 1.62 1.51 1.44 1.27 1.06 0.94 0.90 0.88 0.85 0.83 0.77 0.68 0.62 0.56 0.58 0.55 0.50 0.45 0.41 0.35 0.34 0.31 0.27 0.23 0.20 0.20 0.19 0.17 0.14 0.11 0.08 0.06 0.06 0.09 0.16 0.27 0.35 0.38
2.36 2.53 2.57 2.43 2.12 1.73 1.54 1.44 1.34 1.19 1.08 0.98 0.86 0.82 0.83 0.82 0.77 0.72 0.65 0.60 0.58 0.57 0.55 0.53 0.50 0.47 0.41 0.34 0.28 0.26 0.23 0.20 0.17 0.17 0.15 0.14 0.12 0.09 0.08 0.14 0.24 0.35 0.40
2.39 2.53 2.60 2.56 2.39 2.01 1.65 1.51 1.39 1.28 1.19 1.09 1.02 0.96 0.89 0.86 0.85 0.84 0.73 0.64 0.61 0.64 0.62 0.56 0.52 0.51 0.43 0.38 0.33 0.28 0.24 0.21 0.19 0.18 0.17 0.14 0.14 0.13 0.11 0.11 0.17 0.26 0.34
2.24 2.45 2.69 2.62 2.51 2.29 1.98 1.74 1.60 1.43 1.32 1.22 1.07 1.00 1.02 0.99 0.95 0.93 0.78 0.68 0.65 0.65 0.63 0.62 0.58 0.54 0.46 0.41 0.38 0.34 0.30 0.25 0.22 0.20 0.18 0.15 0.14 0.14 0.13 0.12 0.13 0.15 0.22
2.06 2.32 2.53 2.77 2.70 2.66 2.54 2.20 1.87 1.67 1.47 1.35 1.18 1.04 1.02 1.03 1.02 1.03 0.92 0.80 0.77 0.71 0.63 0.60 0.60 0.63 0.60 0.55 0.51 0.45 0.39 0.33 0.28 0.24 0.21 0.18 0.15 0.13 0.13 0.13 0.13 0.12 0.16
1.89 2.13 2.27 2.48 2.64 2.69 2.58 2.24 1.87 1.64 1.58 1.52 1.37 1.23 1.14 1.09 1.07 1.06 1.04 0.95 0.87 0.79 0.71 0.66 0.64 0.65 0.69 0.74 0.74 0.62 0.50 0.42 0.34 0.27 0.24 0.21 0.18 0.16 0.16 0.17 0.19 0.19 0.19
1.65 1.80 2.05 2.14 2.36 2.41 2.34 2.27 2.08 1.97 1.87 1.76 1.65 1.45 1.31 1.25 1.16 1.09 1.04 1.03 0.95 0.88 0.87 0.88 0.85 0.78 0.73 0.78 0.85 0.83 0.68 0.55 0.41 0.31 0.26 0.24 0.23 0.24 0.22 0.21 0.21 0.23 0.25
1.36 1.63 1.76 1.84 2.06 2.27 2.34 2.45 2.52 2.46 2.15 1.89 1.72 1.63 1.50 1.43 1.33 1.21 1.12 1.11 1.08 0.97 0.91 0.95 1.00 1.01 1.00 0.99 0.97 1.09 0.99 0.73 0.54 0.39 0.32 0.29 0.27 0.30 0.29 0.28 0.27 0.28 0.30
1.03 1.36 1.69 1.84 1.97 2.15 2.41 2.40 2.33 2.20 1.99 1.73 1.71 1.76 1.72 1.61 1.51 1.36 1.28 1.22 1.20 1.16 1.08 1.10 1.12 1.17 1.22 1.20 1.15 1.09 1.05 0.91 0.85 0.64 0.41 0.33 0.31 0.29 0.30 0.32 0.31 0.29 0.29
0.87 1.11 1.40 1.66 1.91 2.11 2.22 2.26 2.30 2.15 1.96 1.91 1.83 1.80 1.70 1.59 1.54 1.46 1.41 1.38 1.35 1.32 1.31 1.35 1.34 1.33 1.32 1.32 1.27 1.23 1.22 1.11 1.00 0.95 0.70 0.50 0.46 0.40 0.36 0.34 0.33 0.35 0.36
0.75 0.90 1.15 1.41 1.56 1.77 1.99 2.08 2.11 2.10 2.09 2.04 1.85 1.76 1.76 1.72 1.64 1.54 1.52 1.52 1.53 1.51 1.47 1.45 1.47 1.50 1.50 1.46 1.44 1.36 1.30 1.25 1.12 1.13 1.03 0.78 0.70 0.61 0.53 0.48 0.45 0.45 0.45

GEFSSE_prec_meanprecacc_198.txt.gz
Total_Precipitation_Accumulation
0.10 0.14 0.36 0.48 0.52 0.42 0.33 0.26 0.23 0.22 0.22 0.21 0.21 0.20 0.19 0.19 0.19 0.19 0.20 0.22 0.24 0.29 0.36 0.39 0.42 0.55 0.54 0.39 0.27 0.17 0.14 0.11 0.09 0.09 0.08 0.11 0.13 0.16 0.14 0.14 0.16 0.21 0.27
0.10 0.16 0.36 0.51 0.60 0.52 0.44 0.34 0.25 0.21 0.22 0.24 0.25 0.25 0.24 0.22 0.22 0.25 0.28 0.30 0.32 0.36 0.39 0.43 0.46 0.51 0.48 0.36 0.21 0.10 0.07 0.05 0.04 0.03 0.02 0.03 0.08 0.12 0.10 0.09 0.12 0.20 0.24
0.12 0.20 0.36 0.53 0.65 0.60 0.54 0.46 0.35 0.29 0.26 0.29 0.32 0.32 0.32 0.29 0.29 0.31 0.34 0.36 0.39 0.38 0.39 0.45 0.45 0.43 0.38 0.30 0.19 0.10 0.07 0.05 0.04 0.03 0.03 0.04 0.11 0.14 0.12 0.12 0.16 0.21 0.23
0.16 0.23 0.36 0.51 0.67 0.66 0.62 0.55 0.49 0.45 0.39 0.37 0.39 0.41 0.42 0.37 0.35 0.36 0.37 0.37 0.38 0.35 0.34 0.35 0.31 0.28 0.20 0.16 0.14 0.11 0.09 0.06 0.04 0.04 0.04 0.06 0.12 0.21 0.21 0.20 0.22 0.23 0.23
0.28 0.33 0.46 0.57 0.68 0.72 0.66 0.65 0.60 0.58 0.54 0.50 0.47 0.48 0.51 0.48 0.42 0.41 0.38 0.36 0.33 0.29 0.27 0.26 0.21 0.16 0.12 0.10 0.09 0.10 0.08 0.06 0.04 0.04 0.04 0.06 0.12 0.24 0.23 0.21 0.21 0.21 0.24
0.41 0.44 0.56 0.66 0.74 0.77 0.70 0.66 0.66 0.64 0.63 0.60 0.53 0.52 0.55 0.58 0.54 0.44 0.39 0.34 0.28 0.25 0.23 0.20 0.17 0.14 0.11 0.09 0.08 0.08 0.07 0.06 0.04 0.04 0.05 0.07 0.10 0.21 0.21 0.18 0.18 0.20 0.22
0.57 0.60 0.68 0.81 0.92 0.96 0.89 0.80 0.72 0.68 0.66 0.65 0.58 0.55 0.58 0.62 0.62 0.51 0.41 0.33 0.25 0.22 0.19 0.16 0.14 0.13 0.12 0.10 0.09 0.08 0.06 0.05 0.04 0.04 0.06 0.08 0.11 0.21 0.20 0.18 0.18 0.19 0.20
0.71 0.75 0.85 0.99 1.04 1.12 1.05 0.94 0.87 0.80 0.73 0.69 0.67 0.67 0.64 0.64 0.67 0.56 0.40 0.33 0.29 0.23 0.20 0.17 0.15 0.13 0.12 0.12 0.11 0.09 0.06 0.04 0.03 0.03 0.04 0.06 0.10 0.18 0.19 0.17 0.18 0.18 0.17
0.94 1.00 1.04 1.09 1.12 1.24 1.11 0.97 0.95 0.91 0.87 0.80 0.74 0.74 0.67 0.64 0.63 0.54 0.38 0.32 0.31 0.28 0.23 0.20 0.19 0.17 0.14 0.13 0.12 0.09 0.07 0.04 0.02 0.02 0.03 0.05 0.08 0.15 0.18 0.18 0.19 0.21 0.19
1.16 1.22 1.17 1.15 1.18 1.30 1.24 1.04 0.93 0.87 0.86 0.89 0.83 0.73 0.58 0.53 0.58 0.54 0.37 0.33 0.31 0.28 0.24 0.22 0.19 0.19 0.17 0.13 0.11 0.08 0.07 0.05 0.04 0.04 0.05 0.05 0.09 0.13 0.16 0.19 0.20 0.22 0.22
1.46 1.44 1.40 1.29 1.22 1.27 1.29 1.12 1.03 0.94 0.89 0.90 0.88 0.70 0.60 0.57 0.56 0.51 0.35 0.26 0.29 0.28 0.24 0.23 0.23 0.21 0.18 0.14 0.11 0.07 0.06 0.06 0.05 0.05 0.06 0.05 0.09 0.13 0.15 0.18 0.19 0.19 0.18
1.57 1.57 1.57 1.41 1.35 1.34 1.32 1.26 1.22 1.09 0.98 0.93 0.87 0.80 0.70 0.64 0.62 0.54 0.43 0.28 0.26 0.27 0.27 0.27 0.26 0.26 0.20 0.15 0.11 0.09 0.07 0.06 0.07 0.06 0.05 0.05 0.10 0.14 0.17 0.18 0.17 0.18 0.17
1.71 1.73 1.76 1.60 1.55 1.45 1.35 1.27 1.27 1.16 1.08 1.02 0.96 0.89 0.83 0.77 0.67 0.68 0.60 0.46 0.37 0.28 0.29 0.27 0.28 0.23 0.20 0.18 0.16 0.12 0.09 0.08 0.08 0.07 0.05 0.06 0.09 0.15 0.21 0.24 0.21 0.20 0.22
1.96 1.98 1.93 1.84 1.72 1.61 1.45 1.26 1.15 1.13 1.06 1.00 0.93 0.95 0.92 0.84 0.73 0.65 0.63 0.52 0.45 0.35 0.31 0.29 0.25 0.21 0.19 0.19 0.20 0.15 0.12 0.10 0.08 0.07 0.05 0.04 0.05 0.12 0.18 0.23 0.24 0.24 0.29
2.20 2.19 2.16 2.05 1.85 1.67 1.56 1.41 1.16 1.03 0.95 0.96 0.95 0.90 0.87 0.79 0.69 0.66 0.67 0.63 0.54 0.44 0.38 0.34 0.29 0.25 0.22 0.21 0.21 0.17 0.15 0.13 0.11 0.09 0.06 0.04 0.04 0.07 0.14 0.19 0.24 0.29 0.33
2.35 2.43 2.43 2.22 2.03 1.72 1.57 1.50 1.30 1.09 0.97 0.95 0.94 0.90 0.87 0.80 0.70 0.66 0.63 0.66 0.62 0.56 0.51 0.46 0.39 0.37 0.33 0.29 0.25 0.21 0.20 0.19 0.17 0.15 0.12 0.09 0.06 0.07 0.11 0.17 0.28 0.36 0.41
2.45 2.61 2.64 2.51 2.31 1.90 1.62 1.51 1.39 1.23 1.11 1.02 0.92 0.89 0.87 0.85 0.81 0.75 0.68 0.65 0.65 0.65 0.65 0.62 0.56 0.52 0.45 0.37 0.30 0.28 0.24 0.21 0.18 0.18 0.16 0.15 0.14 0.11 0.10 0.15 0.26 0.36 0.41
2.48 2.63 2.70 2.65 2.52 2.18 1.79 1.62 1.47 1.33 1.23 1.13 1.06 1.02 0.93 0.90 0.90 0.89 0.77 0.67 0.65 0.70 0.71 0.65 0.61 0.57 0.46 0.40 0.35 0.30 0.27 0.23 0.21 0.19 0.18 0.15 0.14 0.14 0.12 0.13 0.18 0.28 0.35
2.30 2.54 2.78 2.72 2.61 2.43 2.13 1.89 1.72 1.51 1.38 1.27 1.12 1.05 1.07 1.04 1.01 1.00 0.84 0.71 0.67 0.68 0.67 0.69 0.66 0.61 0.51 0.44 0.41 0.36 0.32 0.27 0.23 0.21 0.18 0.16 0.14 0.14 0.14 0.13 0.14 0.17 0.24
2.12 2.39 2.62 2.86 2.79 2.79 2.69 2.35 2.03 1.78 1.53 1.40 1.23 1.09 1.07 1.08 1.08 1.10 1.00 0.85 0.81 0.74 0.65 0.63 0.64 0.69 0.65 0.58 0.54 0.47 0.41 0.35 0.30 0.26 0.22 0.19 0.16 0.14 0.13 0.13 0.13 0.13 0.17
1.94 2.20 2.36 2.53 2.70 2.77 2.71 2.39 2.03 1.78 1.67 1.58 1.41 1.27 1.18 1.13 1.11 1.12 1.12 1.02 0.91 0.82 0.73 0.68 0.66 0.67 0.72 0.77 0.76 0.64 0.52 0.44 0.36 0.30 0.26 0.22 0.19 0.16 0.16 0.17 0.20 0.20 0.20
1.70 1.86 2.15 2.19 2.40 2.45 2.40 2.39 2.20 2.08 1.96 1.83 1.69 1.48 1.34 1.28 1.19 1.12 1.10 1.08 0.99 0.91 0.89 0.89 0.85 0.79 0.75 0.80 0.87 0.84 0.69 0.57 0.43 0.33 0.29 0.26 0.25 0.24 0.22 0.21 0.21 0.24 0.26
1.40 1.69 1.83 1.92 2.10 2.30 2.37 2.51 2.59 2.52 2.21 1.93 1.75 1.66 1.53 1.45 1.36 1.24 1.15 1.15 1.12 1.00 0.93 0.96 1.01 1.02 1.01 1.00 0.98 1.10 1.00 0.73 0.54 0.40 0.33 0.30 0.29 0.31 0.30 0.29 0.28 0.29 0.30
1.05 1.40 1.73 1.90 2.01 2.18 2.44 2.45 2.37 2.24 2.02 1.76 1.74 1.78 1.75 1.64 1.53 1.39 1.30 1.25 1.23 1.18 1.09 1.11 1.13 1.18 1.23 1.21 1.16 1.10 1.05 0.91 0.86 0.65 0.41 0.34 0.32 0.30 0.31 0.33 0.31 0.29 0.29
0.88 1.13 1.42 1.70 1.96 2.15 2.25 2.29 2.33 2.17 1.98 1.92 1.85 1.81 1.72 1.62 1.56 1.48 1.43 1.40 1.37 1.33 1.31 1.35 1.35 1.34 1.34 1.33 1.29 1.24 1.22 1.11 1.00 0.95 0.71 0.50 0.46 0.41 0.36 0.35 0.34 0.35 0.37
0.76 0.91 1.17 1.43 1.59 1.82 2.03 2.11 2.14 2.11 2.10 2.04 1.86 1.77 1.77 1.74 1.66 1.56 1.54 1.54 1.54 1.52 1.47 1.45 1.47 1.51 1.51 1.47 1.45 1.36 1.31 1.25 1.12 1.14 1.03 0.78 0.70 0.61 0.54 0.48 0.46 0.45 0.45

GEFSSE_prec_meanprecacc_204.txt.gz
Total_Precipitation_Accumulation
0.10 0.14 0.38 0.52 0.54 0.46 0.36 0.30 0.27 0.26 0.25 0.24 0.24 0.23 0.21 0.21 0.20 0.20 0.21 0.23 0.25 0.31 0.38 0.40 0.44 0.57 0.56 0.40 0.28 0.19 0.15 0.12 0.10 0.10 0.09 0.11 0.15 0.17 0.15 0.14 0.16 0.22 0.28
0.10 0.17 0.38 0.55 0.63 0.55 0.47 0.37 0.28 0.25 0.26 0.27 0.29 0.29 0.27 0.24 0.24 0.26 0.29 0.31 0.33 0.37 0.40 0.44 0.48 0.52 0.49 0.37 0.23 0.12 0.08 0.05 0.04 0.03 0.03 0.04 0.09 0.14 0.11 0.10 0.12 0.21 0.25
0.13 0.21 0.39 0.57 0.68 0.63 0.56 0.48 0.38 0.33 0.31 0.32 0.35 0.36 0.36 0.32 0.32 0.33 0.35 0.39 0.40 0.39 0.40 0.46 0.46 0.44 0.39 0.31 0.21 0.12 0.08 0.05 0.04 0.03 0.03 0.05 0.11 0.15 0.13 0.13 0.17 0.23 0.24
0.18 0.26 0.39 0.57 0.72 0.70 0.65 0.57 0.52 0.51 0.44 0.42 0.42 0.44 0.46 0.40 0.38 0.40 0.40 0.40 0.40 0.37 0.36 0.36 0.32 0.29 0.21 0.17 0.16 0.12 0.09 0.07 0.04 0.04 0.04 0.06 0.12 0.22 0.22 0.21 0.24 0.26 0.26
0.30 0.36 0.50 0.63 0.75 0.78 0.70 0.68 0.63 0.65 0.61 0.56 0.52 0.51 0.54 0.51 0.46 0.44 0.41 0.39 0.35 0.32 0.29 0.28 0.22 0.17 0.13 0.10 0.10 0.11 0.09 0.07 0.05 0.04 0.04 0.06 0.12 0.25 0.23 0.22 0.22 0.23 0.26
0.44 0.49 0.63 0.74 0.81 0.84 0.76 0.72 0.69 0.70 0.70 0.67 0.58 0.56 0.58 0.61 0.57 0.47 0.42 0.37 0.30 0.27 0.26 0.23 0.19 0.15 0.11 0.10 0.09 0.09 0.08 0.06 0.04 0.04 0.05 0.07 0.10 0.21 0.22 0.19 0.19 0.21 0.24
0.63 0.67 0.77 0.90 1.01 1.03 0.96 0.87 0.78 0.73 0.73 0.73 0.64 0.59 0.61 0.66 0.66 0.54 0.43 0.35 0.27 0.24 0.21 0.18 0.15 0.15 0.13 0.10 0.10 0.08 0.07 0.05 0.04 0.04 0.06 0.08 0.12 0.22 0.21 0.19 0.19 0.20 0.21
0.82 0.85 0.95 1.09 1.14 1.20 1.12 1.00 0.93 0.85 0.78 0.77 0.75 0.72 0.67 0.68 0.71 0.60 0.44 0.36 0.31 0.25 0.22 0.20 0.17 0.15 0.14 0.12 0.11 0.09 0.06 0.04 0.03 0.03 0.04 0.06 0.11 0.19 0.20 0.19 0.19 0.19 0.18
1.08 1.14 1.14 1.19 1.22 1.32 1.19 1.02 0.99 0.96 0.91 0.86 0.82 0.79 0.69 0.66 0.66 0.58 0.43 0.36 0.33 0.29 0.25 0.22 0.21 0.19 0.16 0.15 0.13 0.10 0.07 0.04 0.02 0.02 0.03 0.05 0.09 0.16 0.20 0.20 0.21 0.23 0.21
1.35 1.42 1.33 1.27 1.28 1.37 1.33 1.12 0.97 0.90 0.90 0.95 0.90 0.77 0.61 0.55 0.59 0.56 0.40 0.36 0.34 0.30 0.26 0.24 0.21 0.20 0.19 0.15 0.12 0.09 0.07 0.05 0.04 0.04 0.05 0.06 0.09 0.14 0.18 0.21 0.22 0.24 0.24
1.65 1.67 1.60 1.43 1.31 1.35 1.38 1.21 1.09 0.99 0.94 0.96 0.96 0.75 0.61 0.59 0.57 0.52 0.37 0.28 0.32 0.31 0.26 0.25 0.25 0.23 0.20 0.16 0.13 0.08 0.06 0.06 0.05 0.05 0.06 0.06 0.10 0.15 0.18 0.21 0.20 0.21 0.21
1.75 1.79 1.80 1.59 1.44 1.41 1.39 1.34 1.31 1.15 1.03 0.98 0.96 0.84 0.72 0.66 0.63 0.55 0.45 0.31 0.29 0.31 0.30 0.29 0.28 0.29 0.22 0.16 0.13 0.11 0.08 0.06 0.07 0.06 0.05 0.05 0.10 0.15 0.20 0.21 0.19 0.19 0.19
1.94 1.96 1.99 1.81 1.69 1.53 1.41 1.32 1.34 1.21 1.11 1.07 1.06 0.94 0.85 0.78 0.68 0.69 0.62 0.49 0.41 0.32 0.33 0.31 0.31 0.26 0.22 0.19 0.17 0.12 0.10 0.09 0.08 0.07 0.05 0.06 0.10 0.17 0.24 0.27 0.24 0.22 0.24
2.15 2.22 2.17 2.06 1.91 1.73 1.51 1.30 1.20 1.18 1.09 1.03 1.00 1.00 0.94 0.85 0.74 0.66 0.64 0.54 0.48 0.39 0.35 0.33 0.29 0.25 0.22 0.22 0.22 0.16 0.12 0.10 0.08 0.07 0.05 0.04 0.06 0.14 0.20 0.25 0.26 0.26 0.31
2.37 2.37 2.37 2.26 2.02 1.77 1.63 1.46 1.20 1.07 0.98 0.99 0.99 0.95 0.90 0.80 0.69 0.66 0.67 0.64 0.57 0.47 0.42 0.39 0.34 0.29 0.25 0.25 0.24 0.19 0.16 0.13 0.11 0.10 0.07 0.04 0.04 0.08 0.16 0.21 0.26 0.31 0.36
2.51 2.59 2.61 2.43 2.19 1.84 1.63 1.54 1.34 1.12 1.00 0.98 0.97 0.93 0.90 0.82 0.71 0.67 0.63 0.67 0.65 0.61 0.56 0.52 0.45 0.41 0.37 0.33 0.28 0.24 0.22 0.19 0.17 0.15 0.12 0.09 0.06 0.07 0.12 0.20 0.32 0.40 0.45
2.60 2.76 2.80 2.67 2.46 2.04 1.70 1.55 1.43 1.26 1.14 1.05 0.94 0.91 0.90 0.88 0.82 0.76 0.69 0.66 0.68 0.70 0.72 0.70 0.64 0.59 0.50 0.41 0.34 0.31 0.27 0.22 0.18 0.18 0.16 0.15 0.14 0.11 0.11 0.18 0.30 0.40 0.46
2.63 2.76 2.81 2.76 2.65 2.33 1.90 1.68 1.52 1.37 1.26 1.16 1.09 1.04 0.96 0.94 0.93 0.90 0.78 0.68 0.67 0.74 0.77 0.74 0.69 0.65 0.54 0.46 0.38 0.34 0.29 0.25 0.22 0.19 0.18 0.15 0.15 0.14 0.12 0.14 0.21 0.32 0.40
2.42 2.67 2.89 2.79 2.69 2.56 2.27 1.99 1.78 1.55 1.41 1.30 1.16 1.09 1.11 1.08 1.05 1.02 0.85 0.72 0.69 0.70 0.71 0.74 0.72 0.68 0.58 0.50 0.44 0.40 0.35 0.29 0.25 0.22 0.19 0.16 0.14 0.14 0.14 0.14 0.15 0.19 0.27
2.20 2.49 2.72 2.93 2.86 2.89 2.80 2.47 2.12 1.85 1.59 1.44 1.27 1.13 1.12 1.13 1.12 1.13 1.02 0.86 0.82 0.77 0.68 0.67 0.69 0.75 0.71 0.63 0.58 0.51 0.44 0.38 0.33 0.28 0.24 0.20 0.16 0.14 0.14 0.13 0.13 0.14 0.18
2.00 2.27 2.43 2.61 2.78 2.86 2.79 2.48 2.13 1.89 1.76 1.64 1.45 1.31 1.24 1.19 1.16 1.16 1.14 1.03 0.93 0.85 0.77 0.71 0.71 0.73 0.77 0.82 0.80 0.67 0.54 0.46 0.39 0.33 0.29 0.24 0.20 0.17 0.17 0.17 0.20 0.20 0.20
1.74 1.91 2.19 2.24 2.47 2.53 2.47 2.46 2.29 2.17 2.06 1.94 1.78 1.53 1.39 1.35 1.26 1.19 1.15 1.11 1.01 0.94 0.93 0.93 0.90 0.85 0.80 0.84 0.91 0.89 0.72 0.59 0.45 0.35 0.32 0.31 0.27 0.26 0.23 0.22 0.22 0.24 0.26
1.44 1.72 1.86 1.95 2.15 2.37 2.44 2.57 2.67 2.60 2.30 2.04 1.87 1.76 1.61 1.53 1.44 1.32 1.22 1.19 1.15 1.04 0.98 1.02 1.06 1.07 1.06 1.04 1.02 1.15 1.04 0.76 0.56 0.41 0.34 0.32 0.32 0.32 0.31 0.30 0.29 0.30 0.30
1.10 1.44 1.76 1.93 2.05 2.23 2.51 2.51 2.43 2.31 2.08 1.82 1.82 1.87 1.84 1.71 1.61 1.47 1.38 1.30 1.27 1.22 1.15 1.16 1.17 1.22 1.28 1.25 1.19 1.14 1.08 0.93 0.87 0.65 0.41 0.34 0.32 0.31 0.32 0.33 0.32 0.30 0.30
0.92 1.18 1.45 1.73 2.00 2.19 2.29 2.34 2.37 2.21 2.02 1.96 1.90 1.88 1.80 1.69 1.64 1.55 1.49 1.45 1.40 1.37 1.36 1.41 1.40 1.38 1.38 1.38 1.32 1.26 1.25 1.13 1.01 0.95 0.71 0.50 0.46 0.41 0.37 0.35 0.34 0.36 0.37
0.80 0.96 1.21 1.46 1.62 1.85 2.07 2.14 2.17 2.14 2.12 2.06 1.88 1.80 1.82 1.80 1.73 1.63 1.61 1.60 1.58 1.55 1.51 1.49 1.52 1.55 1.55 1.51 1.49 1.38 1.32 1.27 1.13 1.14 1.03 0.78 0.70 0.61 0.54 0.49 0.46 0.45 0.46

GEFSSE_prec_meanprecacc_210.txt.gz
Total_Precipitation_Accumulation
0.10 0.15 0.40 0.55 0.58 0.49 0.40 0.32 0.29 0.29 0.28 0.26 0.27 0.26 0.24 0.23 0.22 0.21 0.22 0.24 0.26 0.32 0.40 0.43 0.48 0.59 0.58 0.41 0.28 0.19 0.15 0.12 0.11 0.11 0.10 0.12 0.15 0.18 0.16 0.15 0.17 0.23 0.29
0.11 0.18 0.41 0.60 0.68 0.61 0.51 0.41 0.31 0.28 0.28 0.30 0.32 0.32 0.30 0.27 0.26 0.28 0.31 0.33 0.34 0.39 0.43 0.47 0.50 0.54 0.51 0.39 0.23 0.13 0.08 0.06 0.05 0.04 0.03 0.04 0.09 0.14 0.11 0.10 0.13 0.22 0.26
0.13 0.23 0.42 0.61 0.74 0.71 0.62 0.52 0.41 0.37 0.34 0.35 0.38 0.39 0.39 0.35 0.35 0.36 0.37 0.40 0.42 0.41 0.43 0.49 0.48 0.45 0.40 0.32 0.22 0.13 0.08 0.06 0.04 0.03 0.03 0.05 0.12 0.16 0.14 0.14 0.18 0.24 0.26
0.19 0.28 0.42 0.61 0.79 0.79 0.72 0.62 0.55 0.55 0.48 0.44 0.45 0.47 0.48 0.43 0.42 0.43 0.43 0.43 0.43 0.40 0.40 0.39 0.34 0.31 0.22 0.18 0.17 0.14 0.10 0.07 0.04 0.04 0.04 0.06 0.13 0.22 0.23 0.22 0.25 0.28 0.28
0.31 0.38 0.53 0.68 0.83 0.87 0.78 0.74 0.69 0.69 0.66 0.59 0.55 0.55 0.57 0.54 0.48 0.48 0.45 0.43 0.38 0.35 0.32 0.31 0.24 0.18 0.14 0.11 0.11 0.12 0.09 0.07 0.05 0.04 0.04 0.07 0.12 0.25 0.24 0.23 0.23 0.24 0.28
0.45 0.51 0.68 0.81 0.90 0.94 0.85 0.80 0.77 0.76 0.76 0.72 0.62 0.61 0.62 0.64 0.59 0.49 0.45 0.40 0.34 0.31 0.29 0.26 0.21 0.16 0.13 0.11 0.10 0.09 0.08 0.06 0.04 0.04 0.05 0.07 0.10 0.22 0.22 0.20 0.20 0.22 0.25
0.65 0.72 0.84 0.99 1.12 1.15 1.06 0.97 0.88 0.81 0.78 0.78 0.70 0.65 0.66 0.69 0.68 0.56 0.45 0.37 0.31 0.28 0.25 0.22 0.19 0.17 0.14 0.12 0.12 0.09 0.07 0.05 0.04 0.04 0.06 0.08 0.12 0.22 0.22 0.20 0.20 0.21 0.21
0.85 0.91 1.04 1.20 1.26 1.33 1.24 1.11 1.05 0.96 0.85 0.82 0.80 0.77 0.72 0.73 0.75 0.62 0.46 0.38 0.34 0.28 0.25 0.23 0.21 0.18 0.16 0.14 0.12 0.10 0.06 0.04 0.03 0.03 0.04 0.06 0.11 0.20 0.22 0.20 0.19 0.20 0.19
1.12 1.20 1.24 1.30 1.35 1.47 1.33 1.14 1.10 1.07 1.00 0.93 0.88 0.84 0.74 0.71 0.71 0.61 0.45 0.39 0.36 0.32 0.28 0.26 0.25 0.23 0.19 0.17 0.14 0.10 0.07 0.04 0.03 0.03 0.03 0.05 0.09 0.17 0.22 0.22 0.23 0.24 0.22
1.40 1.49 1.45 1.42 1.43 1.54 1.49 1.25 1.08 1.00 0.98 1.01 0.95 0.81 0.63 0.57 0.62 0.59 0.43 0.38 0.36 0.33 0.29 0.28 0.26 0.25 0.22 0.18 0.14 0.10 0.08 0.06 0.04 0.04 0.05 0.06 0.09 0.15 0.19 0.22 0.23 0.26 0.26
1.70 1.72 1.70 1.60 1.48 1.53 1.56 1.35 1.23 1.11 1.04 1.03 1.01 0.78 0.63 0.61 0.59 0.54 0.39 0.31 0.34 0.33 0.28 0.28 0.30 0.30 0.25 0.20 0.15 0.10 0.08 0.06 0.05 0.05 0.06 0.06 0.11 0.16 0.20 0.22 0.21 0.22 0.22
1.78 1.83 1.88 1.75 1.66 1.61 1.60 1.51 1.44 1.27 1.16 1.10 1.03 0.89 0.75 0.67 0.64 0.56 0.46 0.32 0.31 0.32 0.31 0.31 0.31 0.34 0.29 0.22 0.17 0.14 0.10 0.07 0.07 0.06 0.06 0.06 0.12 0.17 0.21 0.22 0.20 0.21 0.20
1.97 2.01 2.05 1.92 1.87 1.76 1.66 1.53 1.47 1.30 1.22 1.19 1.16 0.99 0.88 0.80 0.70 0.71 0.64 0.50 0.42 0.33 0.34 0.32 0.34 0.30 0.26 0.24 0.22 0.17 0.12 0.11 0.09 0.07 0.05 0.08 0.13 0.20 0.26 0.28 0.25 0.24 0.26
2.21 2.27 2.23 2.13 2.05 1.93 1.76 1.55 1.36 1.26 1.17 1.12 1.11 1.07 0.96 0.87 0.76 0.67 0.66 0.56 0.49 0.39 0.36 0.34 0.31 0.28 0.26 0.26 0.26 0.20 0.14 0.12 0.10 0.08 0.05 0.05 0.09 0.18 0.24 0.27 0.28 0.29 0.34
2.47 2.45 2.44 2.33 2.15 1.97 1.86 1.71 1.40 1.19 1.06 1.05 1.06 1.02 0.95 0.81 0.70 0.67 0.68 0.66 0.58 0.47 0.42 0.39 0.35 0.31 0.29 0.29 0.28 0.22 0.18 0.15 0.12 0.11 0.08 0.06 0.05 0.11 0.20 0.25 0.29 0.34 0.39
2.63 2.70 2.69 2.51 2.31 2.00 1.82 1.76 1.56 1.26 1.08 1.04 1.01 0.98 0.95 0.84 0.72 0.67 0.64 0.68 0.66 0.61 0.57 0.52 0.46 0.44 0.41 0.38 0.33 0.28 0.25 0.22 0.18 0.16 0.12 0.09 0.07 0.09 0.15 0.25 0.37 0.46 0.50
2.73 2.90 2.89 2.76 2.56 2.18 1.88 1.73 1.61 1.39 1.22 1.12 0.97 0.93 0.94 0.91 0.84 0.77 0.69 0.67 0.68 0.70 0.72 0.70 0.65 0.62 0.55 0.47 0.40 0.38 0.32 0.26 0.20 0.19 0.17 0.16 0.14 0.12 0.12 0.21 0.35 0.45 0.51
2.77 2.90 2.94 2.88 2.75 2.45 2.07 1.86 1.69 1.49 1.34 1.22 1.12 1.06 0.98 0.96 0.95 0.91 0.78 0.68 0.67 0.74 0.77 0.74 0.70 0.67 0.58 0.52 0.45 0.40 0.36 0.29 0.25 0.21 0.19 0.16 0.16 0.14 0.13 0.15 0.24 0.35 0.44
2.54 2.80 3.03 2.92 2.80 2.68 2.41 2.18 1.97 1.69 1.50 1.36 1.18 1.10 1.12 1.09 1.07 1.04 0.86 0.73 0.69 0.70 0.71 0.75 0.73 0.70 0.61 0.54 0.51 0.47 0.42 0.35 0.28 0.25 0.20 0.17 0.16 0.15 0.15 0.14 0.16 0.20 0.29
2.28 2.59 2.82 3.04 2.95 2.97 2.90 2.60 2.30 2.02 1.70 1.51 1.31 1.15 1.13 1.14 1.14 1.15 1.04 0.87 0.82 0.77 0.69 0.68 0.70 0.76 0.74 0.67 0.62 0.56 0.51 0.45 0.38 0.30 0.25 0.21 0.17 0.15 0.15 0.14 0.14 0.15 0.19
2.06 2.35 2.50 2.70 2.87 2.92 2.86 2.57 2.25 2.02 1.87 1.72 1.50 1.33 1.26 1.21 1.18 1.18 1.17 1.06 0.93 0.86 0.77 0.72 0.72 0.74 0.80 0.86 0.85 0.71 0.58 0.51 0.43 0.35 0.30 0.25 0.21 0.18 0.18 0.19 0.21 0.21 0.22
1.77 1.97 2.26 2.31 2.54 2.59 2.52 2.51 2.37 2.27 2.15 2.02 1.83 1.56 1.41 1.37 1.29 1.20 1.17 1.14 1.03 0.96 0.94 0.94 0.91 0.87 0.84 0.89 0.96 0.93 0.77 0.63 0.49 0.37 0.34 0.32 0.28 0.27 0.25 0.23 0.23 0.25 0.27
1.46 1.76 1.93 2.03 2.20 2.42 2.48 2.61 2.71 2.66 2.38 2.11 1.92 1.80 1.65 1.56 1.48 1.35 1.25 1.24 1.19 1.07 1.00 1.03 1.08 1.09 1.08 1.08 1.07 1.20 1.08 0.80 0.59 0.44 0.36 0.35 0.33 0.33 0.31 0.31 0.30 0.30 0.31
1.11 1.46 1.81 2.00 2.11 2.27 2.55 2.55 2.47 2.34 2.13 1.88 1.87 1.92 1.89 1.77 1.66 1.51 1.42 1.35 1.32 1.26 1.17 1.18 1.19 1.23 1.30 1.28 1.25 1.19 1.12 0.97 0.90 0.68 0.44 0.37 0.34 0.32 0.33 0.33 0.32 0.31 0.31
0.93 1.19 1.49 1.78 2.05 2.24 2.33 2.37 2.40 2.23 2.05 2.01 1.94 1.91 1.83 1.73 1.67 1.59 1.53 1.51 1.47 1.44 1.41 1.43 1.42 1.39 1.39 1.40 1.37 1.32 1.29 1.17 1.04 0.98 0.73 0.52 0.48 0.43 0.38 0.35 0.35 0.36 0.38
0.81 0.97 1.23 1.49 1.64 1.88 2.09 2.16 2.19 2.16 2.15 2.10 1.91 1.83 1.84 1.82 1.75 1.64 1.62 1.63 1.64 1.62 1.57 1.55 1.56 1.58 1.57 1.53 1.52 1.42 1.37 1.32 1.18 1.17 1.05 0.80 0.72 0.62 0.55 0.50 0.46 0.45 0.46

GEFSSE_prec_meanprecacc_216.txt.gz
Total_Precipitation_Accumulation
0.10 0.15 0.41 0.57 0.61 0.52 0.43 0.36 0.34 0.34 0.32 0.30 0.29 0.27 0.24 0.24 0.23 0.22 0.23 0.25 0.27 0.34 0.42 0.45 0.50 0.62 0.59 0.42 0.29 0.19 0.15 0.13 0.11 0.11 0.10 0.13 0.17 0.19 0.16 0.15 0.18 0.24 0.30
0.11 0.18 0.41 0.61 0.71 0.65 0.56 0.46 0.37 0.34 0.33 0.34 0.34 0.34 0.31 0.28 0.27 0.29 0.32 0.34 0.36 0.41 0.45 0.50 0.53 0.57 0.53 0.40 0.24 0.13 0.08 0.06 0.05 0.04 0.03 0.04 0.10 0.15 0.12 0.11 0.13 0.23 0.28
0.14 0.23 0.42 0.62 0.76 0.75 0.68 0.58 0.49 0.44 0.40 0.40 0.41 0.42 0.42 0.37 0.36 0.37 0.39 0.42 0.44 0.44 0.45 0.52 0.50 0.48 0.43 0.34 0.22 0.13 0.09 0.06 0.05 0.03 0.04 0.06 0.12 0.16 0.14 0.14 0.19 0.25 0.28
0.19 0.28 0.43 0.63 0.81 0.83 0.77 0.68 0.63 0.63 0.55 0.50 0.50 0.51 0.52 0.46 0.44 0.46 0.45 0.45 0.45 0.43 0.43 0.42 0.36 0.33 0.25 0.21 0.19 0.15 0.10 0.07 0.05 0.04 0.06 0.08 0.14 0.23 0.24 0.23 0.26 0.29 0.29
0.31 0.39 0.56 0.71 0.86 0.91 0.83 0.80 0.76 0.78 0.74 0.67 0.61 0.62 0.63 0.59 0.51 0.50 0.47 0.46 0.41 0.39 0.36 0.34 0.27 0.20 0.17 0.14 0.13 0.13 0.10 0.07 0.05 0.04 0.05 0.08 0.13 0.26 0.25 0.23 0.23 0.25 0.29
0.45 0.52 0.70 0.83 0.94 0.98 0.89 0.85 0.86 0.87 0.86 0.81 0.70 0.68 0.70 0.71 0.64 0.52 0.48 0.43 0.37 0.34 0.32 0.28 0.23 0.18 0.15 0.14 0.13 0.11 0.09 0.07 0.05 0.04 0.06 0.08 0.11 0.22 0.22 0.20 0.20 0.22 0.25
0.66 0.73 0.85 1.02 1.16 1.20 1.11 1.02 0.96 0.92 0.90 0.90 0.80 0.74 0.74 0.77 0.76 0.60 0.48 0.40 0.33 0.30 0.27 0.24 0.20 0.19 0.16 0.15 0.16 0.12 0.08 0.06 0.05 0.05 0.07 0.09 0.13 0.23 0.23 0.20 0.20 0.21 0.22
0.86 0.92 1.06 1.23 1.30 1.38 1.30 1.18 1.13 1.06 0.97 0.94 0.91 0.87 0.81 0.81 0.83 0.68 0.50 0.41 0.36 0.30 0.26 0.25 0.23 0.20 0.18 0.17 0.16 0.13 0.08 0.05 0.04 0.04 0.05 0.07 0.12 0.21 0.23 0.21 0.20 0.21 0.20
1.13 1.22 1.26 1.34 1.39 1.52 1.38 1.21 1.19 1.18 1.12 1.04 1.00 0.95 0.84 0.80 0.77 0.67 0.50 0.43 0.39 0.34 0.29 0.27 0.27 0.24 0.21 0.20 0.18 0.14 0.10 0.05 0.03 0.03 0.04 0.06 0.10 0.19 0.23 0.24 0.24 0.25 0.24
1.42 1.51 1.48 1.46 1.49 1.60 1.54 1.33 1.18 1.10 1.10 1.12 1.06 0.91 0.71 0.65 0.69 0.64 0.47 0.42 0.39 0.35 0.31 0.29 0.28 0.27 0.25 0.20 0.17 0.15 0.11 0.08 0.05 0.05 0.05 0.06 0.10 0.16 0.21 0.24 0.25 0.27 0.27
1.73 1.75 1.74 1.64 1.55 1.60 1.62 1.41 1.31 1.21 1.16 1.15 1.12 0.87 0.71 0.69 0.65 0.59 0.41 0.33 0.36 0.34 0.30 0.30 0.32 0.31 0.27 0.21 0.17 0.13 0.11 0.09 0.07 0.07 0.07 0.07 0.11 0.17 0.22 0.24 0.23 0.23 0.23
1.83 1.88 1.91 1.78 1.72 1.69 1.67 1.58 1.52 1.39 1.29 1.23 1.14 0.98 0.84 0.76 0.72 0.62 0.49 0.34 0.33 0.33 0.33 0.33 0.33 0.36 0.31 0.24 0.20 0.17 0.13 0.10 0.09 0.08 0.06 0.07 0.14 0.19 0.23 0.23 0.22 0.22 0.21
2.03 2.07 2.10 1.96 1.92 1.83 1.74 1.61 1.54 1.42 1.36 1.33 1.30 1.10 0.97 0.90 0.78 0.76 0.68 0.54 0.45 0.34 0.36 0.33 0.35 0.33 0.29 0.26 0.25 0.21 0.17 0.15 0.12 0.09 0.07 0.09 0.15 0.23 0.29 0.30 0.27 0.27 0.29
2.26 2.33 2.28 2.19 2.12 2.00 1.88 1.68 1.47 1.36 1.29 1.26 1.26 1.21 1.07 0.98 0.85 0.75 0.70 0.60 0.52 0.41 0.38 0.36 0.33 0.30 0.28 0.31 0.31 0.27 0.22 0.18 0.14 0.12 0.09 0.08 0.11 0.21 0.27 0.30 0.31 0.34 0.41
2.52 2.52 2.51 2.40 2.22 2.05 1.98 1.86 1.54 1.31 1.17 1.17 1.19 1.16 1.08 0.93 0.79 0.74 0.73 0.70 0.61 0.50 0.45 0.42 0.38 0.33 0.31 0.32 0.32 0.26 0.24 0.21 0.19 0.17 0.13 0.11 0.08 0.13 0.24 0.29 0.33 0.37 0.43
2.70 2.77 2.77 2.59 2.38 2.08 1.92 1.88 1.70 1.43 1.24 1.18 1.14 1.09 1.08 0.96 0.79 0.73 0.70 0.72 0.69 0.64 0.58 0.55 0.49 0.46 0.42 0.39 0.35 0.31 0.29 0.27 0.25 0.24 0.20 0.16 0.12 0.12 0.18 0.29 0.42 0.50 0.54
2.79 2.96 2.96 2.84 2.64 2.25 1.97 1.86 1.76 1.56 1.40 1.31 1.12 1.03 1.01 0.99 0.90 0.81 0.75 0.72 0.72 0.73 0.74 0.72 0.68 0.64 0.56 0.48 0.41 0.39 0.34 0.30 0.25 0.25 0.23 0.21 0.18 0.15 0.14 0.23 0.39 0.50 0.56
2.83 2.97 3.01 2.96 2.83 2.52 2.15 1.98 1.86 1.66 1.50 1.41 1.31 1.17 1.05 1.02 1.01 0.95 0.82 0.74 0.71 0.76 0.79 0.76 0.72 0.68 0.59 0.53 0.46 0.41 0.37 0.32 0.28 0.26 0.24 0.21 0.20 0.17 0.15 0.17 0.26 0.39 0.47
2.64 2.87 3.10 3.00 2.87 2.74 2.47 2.27 2.13 1.90 1.68 1.50 1.36 1.23 1.20 1.15 1.12 1.09 0.89 0.75 0.73 0.73 0.73 0.77 0.75 0.71 0.62 0.55 0.51 0.47 0.43 0.38 0.32 0.29 0.25 0.21 0.20 0.18 0.17 0.16 0.17 0.22 0.31
2.40 2.69 2.89 3.12 3.02 3.05 2.96 2.67 2.42 2.21 1.92 1.66 1.43 1.27 1.22 1.20 1.18 1.20 1.07 0.89 0.85 0.79 0.71 0.70 0.72 0.77 0.75 0.68 0.63 0.56 0.52 0.48 0.42 0.35 0.30 0.25 0.21 0.18 0.18 0.17 0.16 0.17 0.22
2.16 2.44 2.57 2.78 2.96 3.01 2.93 2.63 2.33 2.14 2.06 1.89 1.61 1.43 1.34 1.28 1.22 1.21 1.19 1.07 0.95 0.88 0.79 0.74 0.74 0.75 0.81 0.88 0.86 0.72 0.60 0.55 0.47 0.40 0.34 0.29 0.24 0.20 0.20 0.22 0.24 0.24 0.24
1.86 2.04 2.31 2.38 2.65 2.70 2.62 2.58 2.43 2.35 2.27 2.17 1.95 1.65 1.49 1.44 1.34 1.23 1.18 1.15 1.04 0.97 0.96 0.95 0.92 0.88 0.85 0.90 0.98 0.95 0.78 0.67 0.53 0.41 0.37 0.35 0.31 0.29 0.27 0.26 0.27 0.29 0.31
1.54 1.83 1.97 2.08 2.30 2.55 2.60 2.70 2.79 2.74 2.47 2.21 2.03 1.89 1.71 1.62 1.54 1.39 1.26 1.25 1.21 1.09 1.02 1.05 1.09 1.10 1.09 1.09 1.09 1.21 1.09 0.82 0.62 0.47 0.39 0.37 0.35 0.35 0.33 0.33 0.33 0.34 0.36
1.18 1.53 1.86 2.05 2.18 2.39 2.69 2.66 2.55 2.41 2.21 1.96 1.95 1.98 1.95 1.81 1.71 1.56 1.45 1.38 1.35 1.29 1.20 1.20 1.20 1.25 1.30 1.29 1.26 1.20 1.13 0.98 0.91 0.70 0.46 0.38 0.36 0.34 0.34 0.35 0.34 0.33 0.35
0.97 1.24 1.54 1.82 2.11 2.33 2.46 2.50 2.52 2.31 2.11 2.06 2.00 1.97 1.87 1.77 1.71 1.63 1.56 1.54 1.50 1.46 1.43 1.47 1.44 1.41 1.41 1.41 1.38 1.33 1.30 1.18 1.05 0.99 0.75 0.53 0.49 0.44 0.39 0.37 0.36 0.38 0.41
0.85 1.00 1.27 1.52 1.68 1.93 2.19 2.26 2.29 2.25 2.21 2.16 1.97 1.87 1.87 1.86 1.78 1.67 1.65 1.65 1.65 1.63 1.59 1.57 1.59 1.61 1.59 1.54 1.53 1.43 1.38 1.34 1.19 1.19 1.07 0.81 0.73 0.63 0.56 0.50 0.47 0.47 0.48

GEFSSE_prec_meanprecacc_222.txt.gz
Total_Precipitation_Accumulation
0.10 0.15 0.42 0.58 0.61 0.53 0.44 0.37 0.35 0.35 0.35 0.32 0.30 0.28 0.25 0.24 0.23 0.23 0.24 0.26 0.28 0.35 0.43 0.46 0.51 0.63 0.60 0.43 0.29 0.20 0.16 0.13 0.12 0.12 0.12 0.15 0.19 0.21 0.17 0.16 0.18 0.25 0.32
0.11 0.19 0.42 0.62 0.72 0.66 0.57 0.47 0.39 0.35 0.34 0.36 0.37 0.36 0.32 0.28 0.28 0.30 0.33 0.35 0.37 0.42 0.46 0.50 0.54 0.58 0.54 0.41 0.24 0.13 0.09 0.07 0.06 0.04 0.03 0.05 0.11 0.16 0.13 0.11 0.14 0.24 0.30
0.14 0.23 0.43 0.63 0.78 0.76 0.69 0.60 0.51 0.46 0.42 0.43 0.45 0.45 0.44 0.39 0.37 0.38 0.40 0.43 0.45 0.45 0.47 0.53 0.51 0.48 0.44 0.35 0.23 0.14 0.09 0.07 0.05 0.03 0.04 0.06 0.13 0.17 0.15 0.15 0.20 0.27 0.30
0.19 0.28 0.43 0.64 0.83 0.84 0.79 0.70 0.64 0.66 0.59 0.55 0.54 0.55 0.55 0.48 0.46 0.47 0.47 0.47 0.48 0.45 0.46 0.44 0.36 0.33 0.26 0.22 0.20 0.16 0.12 0.08 0.05 0.04 0.06 0.08 0.14 0.24 0.25 0.24 0.27 0.30 0.31
0.32 0.39 0.56 0.72 0.87 0.93 0.85 0.83 0.78 0.81 0.78 0.72 0.66 0.65 0.67 0.63 0.56 0.53 0.49 0.48 0.43 0.42 0.39 0.36 0.27 0.21 0.17 0.15 0.14 0.15 0.11 0.08 0.05 0.05 0.05 0.08 0.13 0.27 0.26 0.24 0.24 0.25 0.30
0.45 0.52 0.71 0.85 0.96 1.00 0.91 0.88 0.88 0.89 0.90 0.87 0.75 0.73 0.75 0.76 0.68 0.56 0.50 0.45 0.39 0.36 0.34 0.29 0.24 0.18 0.15 0.15 0.13 0.13 0.11 0.07 0.05 0.04 0.06 0.08 0.11 0.23 0.23 0.21 0.21 0.23 0.26
0.66 0.73 0.86 1.04 1.19 1.22 1.13 1.05 0.98 0.94 0.94 0.95 0.87 0.80 0.81 0.84 0.82 0.65 0.51 0.41 0.35 0.32 0.29 0.25 0.21 0.20 0.17 0.16 0.17 0.13 0.10 0.07 0.05 0.05 0.07 0.09 0.14 0.24 0.23 0.21 0.21 0.22 0.23
0.87 0.93 1.06 1.26 1.33 1.41 1.32 1.20 1.15 1.09 1.00 0.98 0.97 0.93 0.89 0.90 0.90 0.73 0.53 0.43 0.39 0.33 0.29 0.27 0.24 0.20 0.19 0.17 0.17 0.14 0.10 0.06 0.04 0.04 0.05 0.07 0.13 0.23 0.25 0.23 0.22 0.22 0.21
1.15 1.24 1.28 1.36 1.45 1.58 1.42 1.23 1.21 1.20 1.14 1.08 1.05 1.01 0.92 0.91 0.86 0.71 0.53 0.46 0.43 0.37 0.31 0.29 0.28 0.25 0.22 0.20 0.18 0.15 0.11 0.07 0.04 0.03 0.04 0.06 0.11 0.20 0.25 0.27 0.27 0.27 0.25
1.44 1.54 1.51 1.48 1.54 1.67 1.59 1.35 1.20 1.13 1.12 1.15 1.10 0.97 0.79 0.74 0.78 0.70 0.49 0.44 0.43 0.38 0.33 0.31 0.29 0.28 0.25 0.20 0.18 0.15 0.12 0.10 0.06 0.05 0.06 0.07 0.11 0.18 0.22 0.26 0.27 0.29 0.29
1.77 1.79 1.77 1.67 1.58 1.65 1.67 1.44 1.34 1.24 1.19 1.18 1.15 0.93 0.79 0.79 0.75 0.65 0.45 0.35 0.39 0.37 0.33 0.32 0.34 0.32 0.28 0.22 0.18 0.13 0.11 0.12 0.09 0.07 0.07 0.07 0.13 0.19 0.24 0.26 0.25 0.25 0.25
1.87 1.92 1.96 1.82 1.75 1.75 1.73 1.60 1.55 1.42 1.32 1.26 1.17 1.05 0.94 0.85 0.81 0.68 0.54 0.37 0.36 0.36 0.35 0.35 0.35 0.38 0.32 0.25 0.20 0.17 0.14 0.12 0.12 0.09 0.07 0.08 0.16 0.22 0.26 0.26 0.24 0.24 0.23
2.06 2.11 2.16 2.00 1.95 1.89 1.82 1.65 1.56 1.44 1.39 1.37 1.33 1.16 1.09 1.01 0.89 0.84 0.72 0.58 0.48 0.37 0.38 0.36 0.38 0.35 0.30 0.27 0.26 0.21 0.18 0.17 0.15 0.10 0.07 0.10 0.18 0.25 0.31 0.33 0.30 0.30 0.31
2.29 2.38 2.34 2.24 2.16 2.06 1.96 1.73 1.50 1.39 1.32 1.29 1.29 1.27 1.21 1.13 0.97 0.84 0.76 0.64 0.55 0.44 0.40 0.38 0.34 0.31 0.29 0.32 0.32 0.27 0.23 0.19 0.15 0.13 0.09 0.09 0.13 0.24 0.31 0.34 0.34 0.38 0.44
2.56 2.57 2.58 2.47 2.29 2.11 2.04 1.91 1.59 1.36 1.21 1.21 1.23 1.23 1.20 1.09 0.94 0.84 0.78 0.75 0.65 0.52 0.47 0.44 0.39 0.35 0.33 0.33 0.33 0.27 0.25 0.23 0.20 0.18 0.15 0.13 0.11 0.17 0.29 0.34 0.37 0.41 0.45
2.74 2.83 2.85 2.68 2.47 2.14 1.96 1.92 1.74 1.48 1.29 1.24 1.19 1.16 1.19 1.13 0.99 0.88 0.78 0.78 0.74 0.67 0.62 0.58 0.51 0.48 0.44 0.41 0.37 0.32 0.30 0.28 0.27 0.28 0.25 0.20 0.15 0.14 0.21 0.34 0.47 0.55 0.58
2.83 3.01 3.04 2.94 2.74 2.34 2.02 1.91 1.80 1.61 1.47 1.38 1.19 1.11 1.12 1.17 1.12 1.01 0.87 0.81 0.78 0.77 0.77 0.75 0.69 0.66 0.57 0.49 0.42 0.40 0.35 0.31 0.27 0.27 0.26 0.24 0.21 0.17 0.16 0.27 0.44 0.55 0.60
2.87 3.01 3.07 3.05 2.93 2.62 2.23 2.04 1.90 1.70 1.59 1.52 1.39 1.26 1.15 1.16 1.20 1.15 0.96 0.86 0.82 0.82 0.82 0.79 0.74 0.70 0.61 0.55 0.47 0.43 0.39 0.34 0.30 0.28 0.26 0.23 0.22 0.20 0.17 0.19 0.29 0.42 0.51
2.68 2.92 3.17 3.10 2.98 2.84 2.57 2.34 2.17 1.94 1.77 1.65 1.48 1.35 1.31 1.27 1.26 1.26 1.03 0.88 0.86 0.83 0.77 0.80 0.78 0.73 0.64 0.57 0.53 0.49 0.45 0.40 0.34 0.31 0.27 0.23 0.23 0.22 0.19 0.18 0.19 0.24 0.34
2.46 2.74 2.96 3.23 3.12 3.12 3.04 2.75 2.48 2.26 2.01 1.81 1.59 1.41 1.37 1.34 1.29 1.32 1.19 0.99 0.97 0.94 0.80 0.73 0.75 0.80 0.78 0.70 0.65 0.59 0.54 0.49 0.43 0.37 0.32 0.27 0.23 0.21 0.20 0.19 0.18 0.18 0.23
2.20 2.49 2.64 2.89 3.07 3.10 3.01 2.71 2.41 2.22 2.14 2.01 1.77 1.58 1.51 1.43 1.32 1.29 1.28 1.14 1.02 1.00 0.94 0.81 0.77 0.78 0.84 0.90 0.89 0.75 0.62 0.56 0.49 0.42 0.37 0.31 0.26 0.24 0.23 0.24 0.25 0.25 0.26
1.92 2.11 2.40 2.48 2.77 2.80 2.71 2.65 2.50 2.43 2.35 2.26 2.09 1.82 1.63 1.57 1.45 1.31 1.25 1.20 1.09 1.03 1.08 1.08 0.98 0.91 0.87 0.92 1.00 0.97 0.81 0.69 0.54 0.42 0.40 0.38 0.33 0.31 0.29 0.28 0.28 0.30 0.32
1.61 1.91 2.05 2.16 2.39 2.64 2.68 2.77 2.85 2.80 2.54 2.28 2.13 2.04 1.87 1.74 1.63 1.46 1.33 1.30 1.25 1.12 1.07 1.14 1.18 1.14 1.12 1.12 1.11 1.23 1.11 0.83 0.63 0.48 0.39 0.38 0.37 0.37 0.35 0.35 0.34 0.35 0.37
1.24 1.62 1.95 2.13 2.26 2.46 2.75 2.72 2.61 2.47 2.28 2.03 2.02 2.09 2.08 1.93 1.79 1.63 1.52 1.43 1.39 1.31 1.23 1.24 1.24 1.29 1.34 1.32 1.29 1.22 1.14 0.98 0.92 0.71 0.47 0.39 0.38 0.35 0.36 0.37 0.35 0.34 0.36
1.02 1.32 1.64 1.90 2.19 2.39 2.52 2.54 2.56 2.37 2.19 2.15 2.06 2.04 1.97 1.87 1.79 1.69 1.62 1.60 1.54 1.49 1.45 1.49 1.46 1.43 1.44 1.45 1.41 1.35 1.32 1.18 1.06 1.00 0.75 0.54 0.51 0.45 0.40 0.37 0.37 0.38 0.41
0.87 1.05 1.36 1.62 1.77 2.02 2.27 2.32 2.33 2.31 2.29 2.25 2.04 1.94 1.94 1.93 1.85 1.73 1.70 1.70 1.71 1.67 1.60 1.58 1.60 1.63 1.61 1.57 1.56 1.46 1.40 1.35 1.20 1.19 1.07 0.81 0.74 0.64 0.56 0.51 0.48 0.47 0.49

GEFSSE_prec_meanprecacc_228.txt.gz
Total_Precipitation_Accumulation
0.11 0.16 0.44 0.60 0.63 0.55 0.47 0.40 0.37 0.37 0.36 0.34 0.31 0.29 0.26 0.25 0.24 0.24 0.25 0.26 0.30 0.36 0.44 0.47 0.52 0.64 0.61 0.44 0.30 0.20 0.17 0.14 0.13 0.13 0.12 0.16 0.20 0.22 0.18 0.17 0.19 0.25 0.34
0.11 0.19 0.44 0.64 0.74 0.68 0.58 0.50 0.42 0.38 0.36 0.38 0.38 0.38 0.34 0.29 0.29 0.31 0.34 0.36 0.39 0.44 0.48 0.52 0.55 0.59 0.55 0.41 0.25 0.14 0.09 0.08 0.06 0.04 0.03 0.05 0.12 0.17 0.13 0.12 0.15 0.26 0.32
0.14 0.24 0.44 0.66 0.80 0.78 0.71 0.61 0.53 0.48 0.44 0.45 0.47 0.47 0.46 0.41 0.38 0.40 0.42 0.44 0.47 0.48 0.49 0.55 0.52 0.50 0.45 0.36 0.24 0.15 0.10 0.08 0.06 0.03 0.04 0.06 0.13 0.18 0.16 0.16 0.22 0.29 0.32
0.20 0.29 0.44 0.67 0.85 0.85 0.80 0.72 0.66 0.68 0.61 0.56 0.56 0.57 0.56 0.52 0.49 0.49 0.48 0.49 0.49 0.47 0.47 0.46 0.38 0.35 0.27 0.23 0.21 0.17 0.12 0.09 0.06 0.04 0.06 0.08 0.14 0.25 0.26 0.25 0.28 0.31 0.33
0.32 0.40 0.57 0.75 0.91 0.95 0.87 0.84 0.80 0.83 0.80 0.74 0.67 0.67 0.68 0.66 0.61 0.56 0.50 0.50 0.46 0.44 0.40 0.37 0.28 0.21 0.18 0.15 0.15 0.16 0.12 0.09 0.05 0.05 0.05 0.08 0.13 0.27 0.27 0.25 0.25 0.26 0.32
0.46 0.53 0.72 0.87 0.99 1.03 0.93 0.89 0.90 0.91 0.92 0.89 0.77 0.75 0.77 0.78 0.71 0.59 0.52 0.47 0.42 0.38 0.36 0.31 0.25 0.19 0.16 0.16 0.14 0.14 0.12 0.08 0.05 0.04 0.06 0.08 0.12 0.23 0.24 0.22 0.22 0.24 0.29
0.68 0.75 0.88 1.07 1.22 1.25 1.15 1.07 1.01 0.97 0.97 0.98 0.89 0.82 0.83 0.87 0.86 0.68 0.53 0.44 0.38 0.34 0.30 0.27 0.23 0.20 0.17 0.16 0.17 0.14 0.11 0.07 0.05 0.05 0.07 0.09 0.15 0.26 0.24 0.22 0.23 0.24 0.26
0.88 0.95 1.10 1.31 1.38 1.44 1.35 1.23 1.18 1.12 1.03 1.01 1.01 0.96 0.92 0.95 0.96 0.77 0.55 0.45 0.41 0.35 0.30 0.29 0.25 0.21 0.19 0.18 0.17 0.14 0.11 0.06 0.04 0.04 0.05 0.07 0.14 0.24 0.26 0.24 0.23 0.24 0.24
1.16 1.26 1.31 1.41 1.50 1.64 1.47 1.27 1.23 1.23 1.17 1.11 1.08 1.05 0.97 0.96 0.93 0.77 0.56 0.48 0.45 0.39 0.33 0.31 0.30 0.26 0.22 0.21 0.19 0.15 0.11 0.07 0.04 0.03 0.04 0.06 0.11 0.21 0.27 0.28 0.28 0.29 0.27
1.45 1.56 1.54 1.52 1.58 1.72 1.65 1.40 1.23 1.15 1.14 1.17 1.13 0.99 0.81 0.78 0.84 0.75 0.53 0.46 0.44 0.39 0.34 0.33 0.31 0.29 0.26 0.21 0.18 0.15 0.12 0.11 0.07 0.05 0.06 0.07 0.13 0.21 0.24 0.28 0.29 0.32 0.32
1.77 1.80 1.79 1.70 1.62 1.70 1.72 1.48 1.36 1.26 1.21 1.20 1.17 0.94 0.81 0.82 0.80 0.71 0.49 0.38 0.41 0.38 0.34 0.34 0.36 0.34 0.29 0.22 0.18 0.13 0.11 0.12 0.10 0.08 0.07 0.09 0.15 0.21 0.27 0.28 0.27 0.30 0.30
1.87 1.93 1.97 1.84 1.79 1.80 1.78 1.64 1.57 1.44 1.34 1.28 1.18 1.06 0.95 0.88 0.87 0.73 0.59 0.40 0.38 0.38 0.36 0.37 0.37 0.40 0.33 0.25 0.21 0.17 0.14 0.12 0.12 0.10 0.08 0.10 0.19 0.24 0.29 0.29 0.27 0.27 0.27
2.07 2.12 2.17 2.03 1.99 1.94 1.87 1.69 1.60 1.47 1.41 1.39 1.35 1.17 1.10 1.04 0.95 0.93 0.79 0.64 0.53 0.40 0.40 0.37 0.39 0.36 0.31 0.28 0.26 0.21 0.18 0.17 0.16 0.12 0.09 0.11 0.20 0.28 0.35 0.37 0.33 0.31 0.34
2.31 2.40 2.37 2.28 2.21 2.12 2.02 1.80 1.55 1.42 1.35 1.31 1.30 1.29 1.23 1.16 1.05 0.94 0.84 0.69 0.61 0.48 0.42 0.39 0.35 0.32 0.30 0.32 0.32 0.28 0.23 0.19 0.15 0.14 0.11 0.11 0.16 0.28 0.35 0.38 0.38 0.41 0.47
2.57 2.59 2.62 2.52 2.36 2.18 2.11 1.98 1.64 1.40 1.25 1.24 1.24 1.24 1.22 1.13 1.03 0.97 0.88 0.81 0.71 0.57 0.50 0.46 0.40 0.36 0.33 0.34 0.33 0.28 0.26 0.23 0.20 0.19 0.16 0.14 0.13 0.20 0.33 0.38 0.42 0.46 0.49
2.76 2.84 2.90 2.75 2.55 2.24 2.06 2.02 1.80 1.53 1.35 1.29 1.22 1.18 1.22 1.17 1.10 1.07 0.90 0.87 0.81 0.73 0.66 0.61 0.54 0.50 0.45 0.41 0.37 0.32 0.31 0.29 0.28 0.28 0.25 0.20 0.16 0.16 0.24 0.38 0.52 0.61 0.64
2.84 3.03 3.08 3.03 2.83 2.44 2.14 2.04 1.88 1.67 1.53 1.43 1.22 1.13 1.15 1.21 1.25 1.25 1.02 0.93 0.87 0.84 0.83 0.79 0.72 0.69 0.60 0.50 0.42 0.41 0.36 0.31 0.27 0.28 0.27 0.25 0.22 0.19 0.19 0.30 0.47 0.59 0.65
2.90 3.03 3.09 3.09 3.01 2.72 2.35 2.18 2.02 1.79 1.66 1.58 1.43 1.28 1.18 1.21 1.35 1.41 1.15 1.02 0.95 0.92 0.89 0.83 0.77 0.74 0.64 0.58 0.49 0.43 0.40 0.34 0.30 0.28 0.27 0.24 0.23 0.20 0.18 0.21 0.31 0.45 0.54
2.73 2.95 3.18 3.12 3.04 2.94 2.68 2.47 2.31 2.06 1.87 1.72 1.52 1.37 1.35 1.33 1.39 1.50 1.24 1.06 1.04 0.99 0.88 0.87 0.83 0.78 0.69 0.62 0.57 0.51 0.46 0.41 0.35 0.32 0.28 0.24 0.23 0.22 0.20 0.19 0.20 0.25 0.36
2.51 2.79 2.99 3.26 3.19 3.22 3.14 2.86 2.61 2.40 2.12 1.90 1.64 1.44 1.42 1.42 1.41 1.52 1.40 1.17 1.15 1.11 0.93 0.82 0.83 0.88 0.86 0.77 0.71 0.63 0.56 0.50 0.44 0.39 0.34 0.28 0.24 0.21 0.20 0.19 0.19 0.20 0.25
2.25 2.54 2.68 2.92 3.12 3.17 3.09 2.79 2.49 2.31 2.25 2.10 1.84 1.62 1.58 1.54 1.44 1.47 1.49 1.32 1.18 1.15 1.06 0.91 0.86 0.86 0.92 0.98 0.95 0.80 0.66 0.58 0.50 0.44 0.39 0.34 0.29 0.25 0.24 0.25 0.26 0.27 0.28
1.97 2.16 2.45 2.53 2.82 2.86 2.77 2.73 2.57 2.49 2.43 2.33 2.15 1.87 1.72 1.68 1.58 1.49 1.44 1.38 1.24 1.17 1.18 1.16 1.07 1.00 0.95 0.98 1.05 1.03 0.85 0.72 0.56 0.44 0.42 0.41 0.36 0.34 0.31 0.30 0.30 0.33 0.34
1.68 1.97 2.11 2.22 2.45 2.70 2.74 2.85 2.93 2.87 2.62 2.36 2.20 2.10 1.93 1.82 1.75 1.63 1.51 1.46 1.39 1.25 1.16 1.20 1.25 1.23 1.21 1.19 1.16 1.28 1.16 0.88 0.67 0.50 0.42 0.41 0.40 0.40 0.39 0.37 0.36 0.38 0.40
1.35 1.71 2.02 2.19 2.32 2.52 2.82 2.81 2.70 2.56 2.35 2.09 2.09 2.15 2.13 2.01 1.90 1.76 1.68 1.60 1.52 1.43 1.32 1.30 1.31 1.37 1.43 1.40 1.36 1.27 1.19 1.02 0.96 0.75 0.50 0.42 0.41 0.38 0.39 0.40 0.39 0.37 0.38
1.11 1.44 1.75 2.00 2.27 2.46 2.60 2.64 2.67 2.46 2.26 2.21 2.13 2.11 2.03 1.94 1.88 1.80 1.74 1.74 1.66 1.58 1.53 1.55 1.51 1.49 1.52 1.53 1.48 1.41 1.36 1.22 1.08 1.03 0.78 0.57 0.54 0.48 0.43 0.40 0.41 0.43 0.45
0.93 1.14 1.46 1.71 1.85 2.09 2.35 2.40 2.42 2.40 2.37 2.32 2.10 2.00 2.01 1.99 1.91 1.79 1.79 1.80 1.81 1.76 1.68 1.64 1.66 1.68 1.67 1.65 1.63 1.51 1.44 1.38 1.23 1.22 1.10 0.84 0.77 0.68 0.60 0.53 0.49 0.49 0.51

GEFSSE_prec_meanprecacc_234.txt.gz
Total_Precipitation_Accumulation
0.11 0.16 0.45 0.62 0.65 0.57 0.48 0.41 0.38 0.38 0.37 0.34 0.32 0.30 0.27 0.26 0.25 0.25 0.27 0.28 0.31 0.37 0.45 0.48 0.53 0.65 0.62 0.44 0.31 0.21 0.18 0.16 0.14 0.14 0.13 0.16 0.21 0.23 0.19 0.17 0.19 0.26 0.35
0.11 0.19 0.45 0.65 0.75 0.70 0.59 0.51 0.43 0.39 0.37 0.39 0.39 0.38 0.35 0.30 0.30 0.32 0.36 0.37 0.41 0.47 0.51 0.55 0.57 0.61 0.57 0.42 0.25 0.14 0.10 0.08 0.06 0.04 0.04 0.05 0.12 0.18 0.14 0.12 0.16 0.27 0.33
0.14 0.24 0.45 0.67 0.81 0.79 0.72 0.63 0.54 0.50 0.45 0.46 0.49 0.49 0.47 0.42 0.40 0.41 0.44 0.46 0.49 0.50 0.51 0.57 0.55 0.53 0.46 0.37 0.25 0.15 0.10 0.08 0.06 0.03 0.04 0.06 0.13 0.18 0.16 0.16 0.22 0.30 0.35
0.20 0.29 0.45 0.68 0.87 0.87 0.82 0.73 0.67 0.70 0.63 0.58 0.58 0.59 0.58 0.53 0.51 0.52 0.51 0.51 0.51 0.49 0.48 0.48 0.40 0.36 0.28 0.24 0.22 0.18 0.12 0.09 0.06 0.04 0.06 0.08 0.14 0.26 0.27 0.26 0.29 0.33 0.34
0.33 0.40 0.59 0.78 0.93 0.98 0.88 0.86 0.82 0.85 0.82 0.76 0.69 0.70 0.71 0.69 0.63 0.58 0.53 0.53 0.48 0.46 0.42 0.39 0.31 0.23 0.19 0.16 0.15 0.16 0.12 0.09 0.05 0.05 0.05 0.08 0.14 0.29 0.28 0.26 0.26 0.27 0.34
0.47 0.54 0.73 0.90 1.02 1.06 0.95 0.91 0.92 0.93 0.95 0.91 0.79 0.77 0.80 0.81 0.73 0.60 0.54 0.50 0.45 0.40 0.37 0.32 0.27 0.21 0.17 0.16 0.15 0.14 0.12 0.08 0.05 0.04 0.06 0.09 0.12 0.24 0.24 0.22 0.23 0.25 0.30
0.68 0.75 0.89 1.09 1.25 1.28 1.18 1.10 1.04 1.00 0.99 1.00 0.91 0.84 0.86 0.91 0.89 0.70 0.55 0.46 0.40 0.37 0.32 0.28 0.24 0.22 0.19 0.17 0.18 0.15 0.11 0.07 0.05 0.05 0.07 0.10 0.15 0.27 0.25 0.23 0.24 0.26 0.27
0.88 0.96 1.11 1.33 1.41 1.48 1.39 1.27 1.22 1.15 1.06 1.04 1.05 1.00 0.96 0.98 1.00 0.81 0.59 0.48 0.43 0.37 0.32 0.30 0.26 0.22 0.20 0.18 0.18 0.15 0.11 0.07 0.05 0.04 0.06 0.08 0.15 0.25 0.27 0.26 0.25 0.26 0.26
1.16 1.27 1.32 1.44 1.54 1.68 1.51 1.32 1.28 1.26 1.19 1.12 1.11 1.09 1.01 1.00 0.96 0.82 0.61 0.52 0.48 0.42 0.35 0.32 0.31 0.27 0.23 0.21 0.19 0.16 0.11 0.07 0.04 0.04 0.04 0.07 0.12 0.22 0.28 0.30 0.30 0.31 0.30
1.46 1.56 1.55 1.54 1.61 1.77 1.71 1.45 1.28 1.18 1.16 1.19 1.15 1.01 0.84 0.81 0.86 0.80 0.56 0.50 0.48 0.43 0.36 0.34 0.33 0.31 0.27 0.21 0.18 0.16 0.13 0.12 0.07 0.05 0.06 0.07 0.14 0.22 0.25 0.29 0.31 0.34 0.34
1.78 1.82 1.81 1.73 1.65 1.74 1.77 1.55 1.43 1.30 1.24 1.22 1.18 0.97 0.83 0.84 0.83 0.75 0.53 0.40 0.44 0.41 0.36 0.35 0.38 0.36 0.31 0.23 0.18 0.14 0.12 0.12 0.10 0.08 0.08 0.09 0.16 0.24 0.29 0.30 0.29 0.32 0.33
1.88 1.94 1.99 1.87 1.81 1.83 1.84 1.72 1.64 1.49 1.37 1.29 1.19 1.07 0.97 0.90 0.89 0.77 0.63 0.42 0.41 0.41 0.40 0.40 0.39 0.42 0.35 0.26 0.21 0.18 0.14 0.12 0.13 0.10 0.08 0.11 0.21 0.26 0.31 0.32 0.29 0.30 0.31
2.08 2.13 2.19 2.05 2.01 1.97 1.93 1.78 1.69 1.53 1.44 1.39 1.36 1.18 1.12 1.06 0.98 0.96 0.82 0.67 0.57 0.44 0.45 0.42 0.42 0.38 0.33 0.29 0.27 0.22 0.18 0.17 0.16 0.12 0.09 0.12 0.22 0.30 0.37 0.40 0.36 0.34 0.37
2.32 2.41 2.39 2.31 2.24 2.14 2.05 1.87 1.67 1.53 1.40 1.32 1.31 1.30 1.24 1.18 1.07 0.96 0.86 0.72 0.65 0.53 0.47 0.44 0.39 0.34 0.31 0.33 0.33 0.28 0.23 0.19 0.16 0.14 0.12 0.12 0.18 0.29 0.37 0.42 0.43 0.44 0.49
2.58 2.61 2.64 2.55 2.40 2.21 2.14 2.04 1.75 1.53 1.34 1.26 1.26 1.26 1.24 1.14 1.05 0.99 0.90 0.83 0.74 0.62 0.54 0.50 0.44 0.38 0.35 0.35 0.34 0.28 0.26 0.24 0.21 0.19 0.17 0.15 0.15 0.24 0.36 0.41 0.44 0.49 0.53
2.77 2.86 2.92 2.78 2.58 2.26 2.07 2.07 1.89 1.65 1.44 1.33 1.23 1.19 1.23 1.19 1.13 1.11 0.93 0.89 0.85 0.77 0.71 0.65 0.57 0.52 0.46 0.43 0.38 0.34 0.32 0.30 0.29 0.29 0.26 0.22 0.17 0.18 0.27 0.40 0.55 0.64 0.68
2.85 3.04 3.11 3.07 2.85 2.46 2.16 2.06 1.94 1.77 1.64 1.50 1.24 1.15 1.17 1.24 1.28 1.30 1.07 0.96 0.90 0.88 0.89 0.84 0.76 0.72 0.62 0.52 0.44 0.42 0.37 0.32 0.28 0.29 0.28 0.26 0.23 0.20 0.20 0.32 0.49 0.61 0.68
2.90 3.04 3.11 3.13 3.04 2.74 2.37 2.20 2.05 1.85 1.75 1.66 1.46 1.30 1.19 1.23 1.38 1.48 1.22 1.06 0.99 0.98 0.97 0.91 0.82 0.77 0.67 0.61 0.51 0.45 0.40 0.35 0.31 0.29 0.27 0.25 0.24 0.21 0.19 0.22 0.32 0.47 0.57
2.74 2.97 3.21 3.15 3.08 2.97 2.71 2.50 2.33 2.10 1.93 1.80 1.58 1.40 1.38 1.35 1.42 1.57 1.32 1.13 1.09 1.04 0.97 0.97 0.92 0.85 0.73 0.65 0.60 0.53 0.47 0.42 0.36 0.33 0.29 0.25 0.24 0.23 0.21 0.20 0.21 0.27 0.38
2.53 2.83 3.03 3.30 3.25 3.27 3.17 2.89 2.64 2.43 2.17 1.96 1.70 1.49 1.46 1.45 1.44 1.57 1.47 1.25 1.20 1.17 1.02 0.95 0.95 0.98 0.95 0.83 0.75 0.67 0.59 0.53 0.47 0.40 0.35 0.29 0.24 0.22 0.22 0.20 0.20 0.21 0.26
2.27 2.58 2.74 2.97 3.18 3.22 3.13 2.82 2.53 2.34 2.28 2.15 1.89 1.67 1.64 1.59 1.49 1.53 1.56 1.41 1.24 1.21 1.14 1.04 0.99 0.98 1.03 1.09 1.05 0.89 0.73 0.63 0.54 0.46 0.42 0.36 0.30 0.26 0.24 0.25 0.27 0.28 0.29
1.99 2.19 2.49 2.58 2.88 2.92 2.82 2.76 2.61 2.53 2.46 2.37 2.21 1.93 1.78 1.74 1.64 1.55 1.53 1.49 1.33 1.23 1.26 1.27 1.19 1.12 1.06 1.10 1.16 1.13 0.96 0.82 0.63 0.49 0.46 0.44 0.39 0.36 0.33 0.31 0.31 0.34 0.35
1.71 2.01 2.14 2.26 2.50 2.75 2.79 2.90 2.98 2.91 2.66 2.40 2.26 2.18 2.01 1.90 1.83 1.69 1.60 1.60 1.50 1.33 1.23 1.28 1.34 1.33 1.31 1.30 1.26 1.36 1.24 0.96 0.74 0.56 0.47 0.46 0.45 0.44 0.41 0.39 0.38 0.40 0.42
1.37 1.73 2.05 2.23 2.36 2.56 2.86 2.85 2.74 2.60 2.40 2.14 2.14 2.22 2.21 2.10 1.99 1.84 1.77 1.75 1.67 1.52 1.38 1.38 1.40 1.47 1.52 1.49 1.45 1.35 1.25 1.07 1.01 0.80 0.55 0.47 0.45 0.41 0.42 0.43 0.41 0.39 0.41
1.12 1.45 1.77 2.03 2.32 2.52 2.65 2.69 2.72 2.51 2.32 2.27 2.20 2.20 2.12 2.03 1.97 1.91 1.85 1.90 1.83 1.70 1.63 1.64 1.61 1.60 1.62 1.61 1.55 1.47 1.41 1.26 1.12 1.06 0.81 0.60 0.56 0.51 0.45 0.43 0.43 0.46 0.48
0.93 1.15 1.47 1.75 1.92 2.17 2.42 2.47 2.48 2.47 2.43 2.38 2.19 2.10 2.08 2.06 2.00 1.90 1.90 1.94 1.95 1.89 1.79 1.76 1.77 1.77 1.77 1.74 1.70 1.57 1.49 1.42 1.26 1.24 1.12 0.86 0.79 0.70 0.62 0.55 0.52 0.52 0.54

GEFSSE_prec_meanprecacc_240.txt.gz
Total_Precipitation_Accumulation
0.11 0.16 0.45 0.62 0.66 0.58 0.49 0.42 0.39 0.39 0.37 0.35 0.33 0.30 0.28 0.28 0.27 0.26 0.27 0.29 0.33 0.39 0.47 0.49 0.54 0.66 0.63 0.45 0.32 0.22 0.18 0.16 0.15 0.14 0.14 0.17 0.22 0.23 0.19 0.18 0.21 0.28 0.37
0.11 0.19 0.45 0.66 0.76 0.71 0.61 0.52 0.44 0.39 0.38 0.39 0.39 0.39 0.36 0.32 0.32 0.35 0.37 0.38 0.42 0.48 0.52 0.56 0.59 0.63 0.58 0.44 0.27 0.15 0.10 0.08 0.06 0.05 0.04 0.05 0.12 0.19 0.14 0.13 0.17 0.28 0.35
0.14 0.24 0.45 0.67 0.82 0.80 0.73 0.64 0.56 0.52 0.47 0.47 0.50 0.49 0.48 0.44 0.42 0.45 0.48 0.48 0.51 0.52 0.53 0.59 0.58 0.56 0.49 0.39 0.25 0.16 0.10 0.08 0.06 0.03 0.04 0.07 0.14 0.19 0.17 0.18 0.24 0.32 0.37
0.20 0.29 0.45 0.68 0.87 0.88 0.83 0.75 0.68 0.71 0.65 0.60 0.60 0.62 0.59 0.56 0.54 0.55 0.55 0.54 0.54 0.51 0.50 0.50 0.43 0.40 0.31 0.26 0.23 0.18 0.13 0.09 0.06 0.05 0.07 0.09 0.16 0.27 0.28 0.27 0.30 0.34 0.36
0.33 0.41 0.59 0.78 0.94 0.98 0.89 0.88 0.83 0.86 0.84 0.77 0.71 0.72 0.74 0.72 0.66 0.61 0.56 0.56 0.52 0.49 0.44 0.40 0.32 0.25 0.22 0.19 0.17 0.17 0.13 0.09 0.06 0.05 0.07 0.09 0.15 0.30 0.29 0.27 0.26 0.28 0.35
0.47 0.54 0.73 0.91 1.03 1.07 0.97 0.93 0.93 0.95 0.97 0.93 0.82 0.79 0.83 0.83 0.75 0.62 0.57 0.53 0.47 0.43 0.40 0.34 0.28 0.22 0.19 0.19 0.16 0.15 0.13 0.09 0.06 0.05 0.07 0.10 0.14 0.26 0.25 0.23 0.23 0.26 0.31
0.68 0.75 0.89 1.10 1.26 1.30 1.20 1.11 1.06 1.03 1.03 1.03 0.94 0.85 0.87 0.92 0.91 0.72 0.59 0.49 0.42 0.39 0.35 0.31 0.25 0.23 0.20 0.19 0.19 0.16 0.12 0.08 0.06 0.07 0.08 0.11 0.17 0.28 0.27 0.24 0.24 0.26 0.28
0.89 0.96 1.11 1.34 1.42 1.50 1.41 1.30 1.25 1.18 1.10 1.07 1.06 1.01 0.97 0.99 1.02 0.84 0.62 0.51 0.45 0.39 0.34 0.33 0.29 0.23 0.21 0.20 0.20 0.16 0.12 0.08 0.06 0.06 0.07 0.09 0.16 0.27 0.29 0.27 0.26 0.27 0.28
1.17 1.27 1.33 1.45 1.56 1.70 1.53 1.33 1.30 1.28 1.22 1.16 1.13 1.09 1.01 1.00 0.97 0.83 0.63 0.54 0.51 0.45 0.38 0.35 0.34 0.29 0.24 0.23 0.21 0.16 0.12 0.08 0.05 0.06 0.06 0.08 0.13 0.24 0.29 0.31 0.31 0.32 0.31
1.46 1.57 1.56 1.56 1.62 1.79 1.73 1.47 1.30 1.21 1.19 1.22 1.16 1.02 0.84 0.82 0.87 0.80 0.58 0.52 0.51 0.46 0.39 0.37 0.36 0.34 0.28 0.23 0.20 0.16 0.13 0.13 0.09 0.07 0.07 0.08 0.15 0.23 0.27 0.30 0.32 0.35 0.36
1.79 1.83 1.83 1.75 1.66 1.75 1.79 1.57 1.45 1.33 1.27 1.25 1.21 0.99 0.83 0.85 0.84 0.76 0.54 0.41 0.46 0.44 0.40 0.39 0.41 0.39 0.32 0.24 0.19 0.14 0.13 0.13 0.12 0.10 0.09 0.10 0.18 0.25 0.30 0.31 0.30 0.34 0.35
1.89 1.95 2.01 1.90 1.83 1.85 1.86 1.74 1.68 1.53 1.41 1.33 1.21 1.09 0.98 0.91 0.90 0.78 0.65 0.44 0.42 0.43 0.44 0.44 0.43 0.45 0.37 0.27 0.21 0.18 0.15 0.13 0.14 0.11 0.10 0.13 0.23 0.29 0.33 0.33 0.30 0.32 0.33
2.09 2.14 2.21 2.08 2.05 2.00 1.96 1.81 1.72 1.58 1.50 1.45 1.40 1.21 1.13 1.07 0.99 0.97 0.84 0.70 0.60 0.48 0.49 0.46 0.47 0.42 0.35 0.30 0.27 0.22 0.18 0.18 0.16 0.13 0.11 0.15 0.25 0.33 0.41 0.43 0.39 0.36 0.38
2.33 2.43 2.42 2.34 2.29 2.19 2.08 1.90 1.70 1.55 1.45 1.40 1.39 1.36 1.27 1.19 1.08 0.97 0.87 0.74 0.68 0.55 0.50 0.48 0.43 0.37 0.34 0.35 0.34 0.28 0.23 0.19 0.16 0.15 0.13 0.14 0.20 0.32 0.40 0.44 0.45 0.46 0.50
2.59 2.62 2.67 2.60 2.46 2.26 2.17 2.07 1.77 1.55 1.37 1.35 1.38 1.36 1.29 1.16 1.06 1.00 0.92 0.86 0.77 0.64 0.57 0.53 0.47 0.42 0.38 0.38 0.36 0.29 0.27 0.24 0.21 0.20 0.18 0.16 0.16 0.25 0.38 0.43 0.46 0.51 0.55
2.78 2.88 2.95 2.83 2.64 2.32 2.11 2.09 1.91 1.66 1.46 1.38 1.32 1.30 1.33 1.23 1.14 1.12 0.95 0.92 0.88 0.80 0.73 0.67 0.59 0.56 0.50 0.47 0.41 0.35 0.34 0.31 0.30 0.30 0.27 0.22 0.18 0.18 0.28 0.42 0.56 0.66 0.70
2.86 3.06 3.13 3.11 2.92 2.53 2.22 2.10 1.96 1.79 1.66 1.52 1.29 1.22 1.25 1.29 1.31 1.32 1.10 0.99 0.94 0.91 0.91 0.86 0.79 0.76 0.66 0.56 0.47 0.45 0.39 0.34 0.29 0.29 0.28 0.26 0.23 0.20 0.21 0.33 0.50 0.62 0.70
2.92 3.07 3.13 3.15 3.09 2.81 2.43 2.26 2.09 1.88 1.77 1.68 1.50 1.34 1.24 1.27 1.41 1.52 1.27 1.10 1.04 1.03 1.00 0.93 0.85 0.81 0.72 0.64 0.54 0.47 0.42 0.37 0.32 0.29 0.28 0.25 0.25 0.22 0.20 0.22 0.33 0.48 0.58
2.76 2.99 3.23 3.18 3.11 3.02 2.77 2.56 2.39 2.15 1.97 1.82 1.61 1.44 1.41 1.39 1.45 1.60 1.37 1.18 1.13 1.11 1.02 1.01 0.95 0.88 0.77 0.69 0.63 0.56 0.49 0.43 0.37 0.33 0.29 0.25 0.25 0.24 0.21 0.20 0.21 0.27 0.39
2.55 2.85 3.05 3.32 3.28 3.33 3.24 2.96 2.69 2.49 2.22 1.99 1.73 1.52 1.49 1.48 1.46 1.61 1.52 1.30 1.24 1.22 1.09 1.00 0.99 1.02 0.99 0.88 0.80 0.71 0.62 0.55 0.48 0.42 0.36 0.30 0.25 0.23 0.22 0.21 0.21 0.22 0.27
2.29 2.60 2.76 2.99 3.21 3.28 3.21 2.89 2.59 2.39 2.32 2.19 1.92 1.70 1.67 1.61 1.51 1.55 1.60 1.46 1.29 1.25 1.20 1.10 1.04 1.02 1.07 1.13 1.10 0.95 0.79 0.69 0.57 0.49 0.44 0.37 0.31 0.27 0.25 0.26 0.28 0.29 0.29
2.01 2.21 2.52 2.61 2.91 2.97 2.89 2.85 2.68 2.59 2.50 2.41 2.24 1.95 1.82 1.77 1.66 1.57 1.55 1.54 1.39 1.28 1.31 1.33 1.24 1.16 1.10 1.13 1.19 1.18 1.02 0.90 0.71 0.55 0.50 0.47 0.42 0.39 0.35 0.33 0.32 0.35 0.36
1.73 2.03 2.17 2.31 2.55 2.80 2.86 2.99 3.07 2.99 2.72 2.44 2.29 2.20 2.03 1.93 1.85 1.71 1.62 1.62 1.55 1.39 1.29 1.35 1.39 1.35 1.34 1.33 1.29 1.40 1.29 1.02 0.81 0.63 0.53 0.51 0.49 0.47 0.45 0.42 0.40 0.41 0.43
1.38 1.75 2.07 2.28 2.43 2.61 2.93 2.92 2.81 2.67 2.47 2.19 2.16 2.24 2.22 2.12 2.01 1.86 1.79 1.78 1.69 1.56 1.43 1.42 1.44 1.49 1.54 1.52 1.48 1.38 1.29 1.11 1.05 0.85 0.61 0.52 0.50 0.46 0.46 0.47 0.44 0.41 0.41
1.13 1.46 1.79 2.06 2.38 2.61 2.73 2.74 2.76 2.56 2.37 2.32 2.23 2.23 2.14 2.04 1.99 1.94 1.88 1.93 1.86 1.74 1.67 1.68 1.64 1.64 1.65 1.64 1.58 1.50 1.45 1.30 1.15 1.10 0.86 0.65 0.61 0.55 0.48 0.46 0.46 0.48 0.50
0.94 1.16 1.49 1.77 1.94 2.23 2.52 2.53 2.52 2.51 2.46 2.42 2.23 2.14 2.12 2.08 2.01 1.93 1.94 1.98 1.99 1.93 1.84 1.80 1.81 1.82 1.81 1.77 1.73 1.60 1.52 1.45 1.29 1.28 1.15 0.90 0.82 0.73 0.65 0.58 0.55 0.55 0.56

GEFSSE_prec_meanprecacc_246.txt.gz
Total_Precipitation_Accumulation
0.11 0.16 0.46 0.63 0.66 0.58 0.49 0.42 0.39 0.39 0.38 0.35 0.33 0.31 0.28 0.28 0.27 0.27 0.28 0.30 0.34 0.41 0.49 0.51 0.56 0.68 0.64 0.46 0.32 0.22 0.19 0.17 0.15 0.15 0.14 0.18 0.22 0.25 0.21 0.19 0.22 0.29 0.39
0.11 0.20 0.45 0.66 0.76 0.71 0.61 0.52 0.44 0.40 0.38 0.39 0.39 0.39 0.36 0.32 0.33 0.35 0.38 0.40 0.44 0.50 0.54 0.58 0.61 0.65 0.59 0.45 0.27 0.16 0.11 0.08 0.07 0.05 0.04 0.06 0.13 0.20 0.16 0.15 0.19 0.30 0.37
0.14 0.24 0.45 0.68 0.82 0.80 0.74 0.64 0.56 0.52 0.47 0.47 0.51 0.50 0.49 0.45 0.44 0.46 0.49 0.50 0.53 0.54 0.55 0.61 0.60 0.58 0.51 0.40 0.26 0.17 0.11 0.08 0.06 0.04 0.04 0.07 0.15 0.21 0.19 0.20 0.26 0.34 0.39
0.20 0.29 0.46 0.69 0.88 0.88 0.83 0.75 0.69 0.71 0.65 0.60 0.61 0.62 0.60 0.58 0.56 0.57 0.57 0.56 0.55 0.53 0.52 0.53 0.45 0.42 0.32 0.27 0.23 0.19 0.13 0.09 0.06 0.05 0.07 0.09 0.17 0.30 0.31 0.30 0.32 0.35 0.37
0.33 0.41 0.59 0.78 0.94 0.98 0.89 0.88 0.84 0.87 0.85 0.79 0.73 0.73 0.76 0.74 0.68 0.62 0.58 0.58 0.53 0.51 0.46 0.42 0.34 0.26 0.22 0.20 0.18 0.18 0.13 0.10 0.06 0.06 0.07 0.10 0.16 0.32 0.31 0.29 0.27 0.29 0.36
0.47 0.54 0.74 0.91 1.04 1.07 0.97 0.94 0.94 0.96 0.98 0.95 0.85 0.82 0.84 0.84 0.76 0.63 0.58 0.54 0.48 0.44 0.42 0.36 0.29 0.23 0.20 0.19 0.17 0.16 0.14 0.09 0.06 0.06 0.07 0.10 0.15 0.27 0.27 0.24 0.24 0.27 0.32
0.68 0.76 0.89 1.11 1.27 1.31 1.21 1.12 1.07 1.04 1.05 1.06 0.97 0.87 0.89 0.94 0.92 0.73 0.59 0.50 0.43 0.40 0.36 0.33 0.27 0.23 0.20 0.19 0.20 0.17 0.13 0.09 0.07 0.07 0.08 0.11 0.18 0.30 0.28 0.25 0.25 0.27 0.29
0.89 0.96 1.12 1.35 1.43 1.51 1.42 1.31 1.27 1.20 1.11 1.08 1.08 1.03 0.98 1.00 1.02 0.84 0.62 0.52 0.46 0.40 0.35 0.34 0.31 0.24 0.21 0.21 0.21 0.17 0.13 0.08 0.06 0.06 0.07 0.10 0.18 0.29 0.30 0.28 0.27 0.28 0.29
1.17 1.27 1.34 1.46 1.57 1.71 1.55 1.35 1.32 1.31 1.24 1.18 1.15 1.11 1.02 1.01 0.97 0.84 0.64 0.55 0.52 0.45 0.38 0.36 0.36 0.31 0.25 0.24 0.22 0.17 0.13 0.09 0.05 0.06 0.06 0.08 0.14 0.25 0.31 0.33 0.32 0.33 0.32
1.46 1.57 1.57 1.56 1.63 1.80 1.74 1.48 1.32 1.22 1.21 1.25 1.19 1.03 0.85 0.83 0.87 0.81 0.58 0.52 0.52 0.47 0.40 0.38 0.38 0.37 0.31 0.24 0.20 0.17 0.14 0.14 0.09 0.07 0.07 0.09 0.16 0.26 0.29 0.32 0.34 0.36 0.37
1.80 1.84 1.84 1.76 1.67 1.75 1.80 1.58 1.47 1.34 1.28 1.27 1.23 1.00 0.84 0.85 0.84 0.76 0.55 0.41 0.46 0.45 0.41 0.40 0.43 0.41 0.34 0.25 0.20 0.15 0.13 0.14 0.12 0.11 0.09 0.11 0.19 0.28 0.32 0.33 0.32 0.35 0.35
1.90 1.96 2.02 1.91 1.85 1.86 1.87 1.75 1.69 1.54 1.42 1.34 1.22 1.10 0.99 0.91 0.90 0.79 0.65 0.45 0.43 0.44 0.44 0.45 0.45 0.48 0.39 0.28 0.22 0.19 0.15 0.13 0.14 0.12 0.10 0.14 0.25 0.31 0.35 0.34 0.32 0.33 0.34
2.10 2.15 2.22 2.09 2.06 2.02 1.97 1.82 1.73 1.59 1.52 1.47 1.41 1.22 1.15 1.09 0.99 0.97 0.84 0.70 0.60 0.48 0.49 0.47 0.49 0.44 0.37 0.30 0.27 0.22 0.19 0.18 0.17 0.13 0.11 0.15 0.26 0.35 0.43 0.45 0.40 0.37 0.39
2.34 2.45 2.43 2.36 2.31 2.20 2.10 1.92 1.72 1.57 1.47 1.42 1.40 1.37 1.28 1.21 1.09 0.98 0.87 0.74 0.68 0.56 0.51 0.48 0.44 0.39 0.35 0.35 0.35 0.29 0.24 0.20 0.16 0.15 0.13 0.14 0.20 0.33 0.42 0.46 0.47 0.48 0.51
2.60 2.64 2.68 2.61 2.47 2.28 2.19 2.09 1.78 1.57 1.39 1.36 1.40 1.38 1.32 1.19 1.09 1.02 0.92 0.87 0.77 0.64 0.57 0.54 0.48 0.43 0.39 0.38 0.37 0.30 0.28 0.24 0.21 0.20 0.18 0.16 0.16 0.26 0.39 0.44 0.48 0.53 0.57
2.79 2.90 2.97 2.86 2.67 2.35 2.13 2.11 1.92 1.68 1.48 1.39 1.34 1.33 1.38 1.31 1.19 1.15 0.96 0.93 0.88 0.80 0.73 0.67 0.60 0.57 0.51 0.48 0.43 0.37 0.35 0.31 0.30 0.30 0.27 0.22 0.18 0.18 0.29 0.43 0.57 0.67 0.73
2.87 3.07 3.14 3.13 2.95 2.57 2.25 2.12 1.98 1.82 1.67 1.53 1.29 1.23 1.27 1.35 1.39 1.38 1.13 1.00 0.95 0.92 0.92 0.87 0.80 0.77 0.67 0.57 0.50 0.47 0.41 0.35 0.30 0.30 0.28 0.27 0.23 0.20 0.22 0.34 0.51 0.63 0.71
2.94 3.08 3.15 3.18 3.13 2.86 2.48 2.30 2.12 1.91 1.80 1.70 1.50 1.35 1.26 1.30 1.45 1.56 1.32 1.13 1.05 1.03 1.01 0.94 0.86 0.82 0.73 0.66 0.57 0.50 0.45 0.39 0.34 0.30 0.28 0.26 0.25 0.22 0.20 0.23 0.34 0.49 0.59
2.77 3.01 3.25 3.21 3.15 3.06 2.82 2.62 2.44 2.19 2.00 1.85 1.63 1.46 1.43 1.42 1.48 1.62 1.40 1.20 1.15 1.12 1.03 1.03 0.97 0.89 0.79 0.71 0.66 0.59 0.53 0.47 0.40 0.35 0.30 0.26 0.25 0.24 0.21 0.20 0.22 0.28 0.40
2.56 2.87 3.07 3.36 3.31 3.37 3.28 3.01 2.78 2.58 2.29 2.04 1.77 1.55 1.52 1.51 1.49 1.62 1.53 1.31 1.26 1.24 1.11 1.02 1.02 1.04 1.01 0.91 0.83 0.75 0.67 0.58 0.51 0.43 0.37 0.31 0.26 0.23 0.22 0.21 0.21 0.22 0.28
2.30 2.62 2.78 3.02 3.25 3.33 3.26 2.94 2.65 2.48 2.43 2.27 1.97 1.74 1.71 1.66 1.55 1.58 1.61 1.47 1.30 1.27 1.22 1.12 1.08 1.06 1.11 1.17 1.14 0.99 0.86 0.74 0.61 0.51 0.46 0.39 0.33 0.28 0.26 0.27 0.28 0.29 0.30
2.02 2.22 2.53 2.64 2.95 3.01 2.93 2.89 2.74 2.66 2.60 2.49 2.32 2.01 1.86 1.81 1.70 1.60 1.57 1.55 1.40 1.29 1.33 1.36 1.28 1.20 1.15 1.17 1.23 1.22 1.09 1.00 0.78 0.58 0.53 0.50 0.44 0.41 0.38 0.35 0.35 0.37 0.38
1.74 2.04 2.18 2.33 2.58 2.84 2.90 3.05 3.13 3.07 2.81 2.54 2.39 2.29 2.09 1.97 1.90 1.75 1.65 1.64 1.57 1.42 1.30 1.37 1.42 1.40 1.39 1.39 1.33 1.43 1.33 1.09 0.89 0.70 0.58 0.54 0.51 0.50 0.47 0.45 0.43 0.44 0.45
1.39 1.78 2.11 2.30 2.47 2.66 2.98 2.97 2.85 2.71 2.53 2.25 2.25 2.32 2.31 2.19 2.07 1.91 1.83 1.80 1.71 1.60 1.47 1.45 1.49 1.55 1.59 1.58 1.53 1.41 1.31 1.14 1.09 0.91 0.67 0.57 0.53 0.48 0.48 0.49 0.47 0.43 0.43
1.14 1.48 1.83 2.10 2.41 2.65 2.77 2.79 2.81 2.60 2.42 2.37 2.30 2.30 2.21 2.12 2.08 2.02 1.94 1.97 1.89 1.76 1.71 1.72 1.69 1.71 1.72 1.69 1.62 1.53 1.48 1.33 1.18 1.12 0.89 0.68 0.65 0.58 0.51 0.48 0.49 0.50 0.52
0.95 1.18 1.53 1.80 1.97 2.27 2.57 2.59 2.58 2.55 2.50 2.47 2.27 2.19 2.17 2.12 2.07 2.01 2.01 2.03 2.03 1.96 1.86 1.84 1.84 1.87 1.87 1.82 1.78 1.64 1.55 1.48 1.33 1.31 1.18 0.93 0.86 0.77 0.68 0.61 0.58 0.57 0.59

GEFSSE_prec_meanprecacc_252.txt.gz
Total_Precipitation_Accumulation
0.11 0.17 0.47 0.63 0.66 0.59 0.50 0.43 0.40 0.40 0.38 0.35 0.33 0.31 0.29 0.28 0.28 0.27 0.29 0.31 0.36 0.43 0.51 0.54 0.58 0.69 0.65 0.47 0.33 0.22 0.20 0.18 0.17 0.16 0.15 0.19 0.24 0.26 0.22 0.21 0.24 0.31 0.41
0.11 0.20 0.47 0.67 0.77 0.72 0.61 0.53 0.45 0.40 0.38 0.40 0.40 0.40 0.37 0.33 0.33 0.36 0.39 0.41 0.45 0.52 0.58 0.62 0.64 0.67 0.60 0.46 0.28 0.16 0.11 0.09 0.07 0.05 0.04 0.06 0.15 0.21 0.18 0.17 0.20 0.32 0.39
0.14 0.24 0.46 0.69 0.83 0.81 0.74 0.65 0.56 0.53 0.48 0.48 0.52 0.51 0.50 0.45 0.45 0.47 0.50 0.51 0.55 0.56 0.57 0.65 0.62 0.60 0.52 0.41 0.27 0.17 0.11 0.08 0.06 0.04 0.04 0.07 0.16 0.23 0.22 0.21 0.27 0.36 0.40
0.20 0.30 0.46 0.69 0.88 0.89 0.83 0.76 0.69 0.72 0.66 0.61 0.62 0.64 0.61 0.59 0.57 0.58 0.58 0.57 0.57 0.55 0.54 0.55 0.47 0.43 0.34 0.28 0.24 0.19 0.13 0.10 0.06 0.05 0.07 0.10 0.17 0.32 0.33 0.32 0.33 0.36 0.39
0.33 0.41 0.60 0.79 0.95 0.99 0.90 0.89 0.85 0.88 0.86 0.80 0.74 0.75 0.77 0.75 0.68 0.64 0.59 0.60 0.55 0.52 0.47 0.44 0.35 0.27 0.23 0.20 0.19 0.19 0.14 0.10 0.07 0.06 0.07 0.10 0.17 0.34 0.33 0.31 0.29 0.30 0.36
0.47 0.54 0.74 0.92 1.05 1.08 0.97 0.94 0.95 0.97 1.00 0.97 0.86 0.83 0.86 0.86 0.77 0.63 0.59 0.55 0.49 0.45 0.43 0.37 0.30 0.24 0.20 0.20 0.18 0.17 0.15 0.10 0.06 0.06 0.07 0.11 0.15 0.30 0.29 0.27 0.26 0.28 0.33
0.69 0.76 0.90 1.12 1.29 1.32 1.21 1.13 1.09 1.06 1.06 1.08 0.99 0.90 0.92 0.96 0.94 0.74 0.60 0.51 0.44 0.41 0.37 0.34 0.28 0.24 0.21 0.20 0.21 0.18 0.14 0.09 0.07 0.07 0.09 0.12 0.19 0.33 0.31 0.28 0.27 0.29 0.31
0.89 0.96 1.12 1.36 1.44 1.53 1.44 1.33 1.29 1.22 1.13 1.11 1.11 1.05 1.01 1.03 1.04 0.85 0.63 0.52 0.47 0.41 0.37 0.35 0.32 0.25 0.22 0.22 0.21 0.18 0.13 0.08 0.07 0.06 0.07 0.10 0.19 0.31 0.33 0.32 0.30 0.30 0.31
1.17 1.28 1.34 1.47 1.58 1.73 1.57 1.38 1.35 1.34 1.28 1.20 1.17 1.13 1.05 1.03 0.99 0.85 0.64 0.56 0.53 0.46 0.39 0.37 0.37 0.32 0.27 0.24 0.22 0.18 0.13 0.09 0.06 0.06 0.06 0.09 0.16 0.27 0.33 0.36 0.35 0.36 0.33
1.47 1.58 1.57 1.57 1.63 1.81 1.76 1.50 1.33 1.24 1.24 1.27 1.21 1.05 0.86 0.85 0.89 0.81 0.59 0.53 0.53 0.48 0.41 0.39 0.39 0.38 0.32 0.24 0.21 0.17 0.14 0.14 0.09 0.08 0.07 0.10 0.17 0.28 0.31 0.34 0.36 0.38 0.38
1.81 1.85 1.85 1.77 1.68 1.76 1.81 1.60 1.49 1.36 1.30 1.28 1.24 1.01 0.85 0.86 0.85 0.76 0.55 0.42 0.47 0.45 0.42 0.41 0.44 0.42 0.34 0.25 0.21 0.15 0.13 0.14 0.13 0.11 0.09 0.12 0.21 0.31 0.34 0.35 0.34 0.38 0.38
1.91 1.97 2.03 1.92 1.86 1.87 1.88 1.77 1.71 1.57 1.44 1.36 1.23 1.11 1.00 0.92 0.90 0.79 0.65 0.45 0.43 0.44 0.45 0.46 0.46 0.49 0.39 0.28 0.22 0.19 0.15 0.14 0.15 0.12 0.10 0.15 0.27 0.34 0.38 0.36 0.34 0.35 0.36
2.10 2.17 2.23 2.11 2.08 2.03 1.98 1.84 1.75 1.62 1.54 1.49 1.43 1.23 1.15 1.09 1.00 0.98 0.85 0.70 0.60 0.49 0.49 0.47 0.49 0.44 0.37 0.30 0.28 0.23 0.19 0.18 0.17 0.14 0.13 0.17 0.28 0.38 0.45 0.46 0.42 0.39 0.41
2.35 2.46 2.44 2.37 2.32 2.22 2.11 1.93 1.73 1.58 1.48 1.44 1.42 1.39 1.30 1.22 1.11 0.99 0.88 0.75 0.68 0.56 0.51 0.48 0.44 0.39 0.35 0.35 0.35 0.29 0.25 0.20 0.17 0.16 0.15 0.16 0.22 0.36 0.46 0.48 0.49 0.50 0.53
2.61 2.65 2.70 2.62 2.49 2.29 2.21 2.10 1.79 1.58 1.40 1.37 1.41 1.40 1.34 1.22 1.11 1.03 0.93 0.87 0.78 0.65 0.57 0.54 0.49 0.43 0.39 0.39 0.37 0.31 0.29 0.25 0.22 0.21 0.19 0.17 0.17 0.27 0.42 0.47 0.49 0.55 0.59
2.80 2.91 2.99 2.87 2.69 2.37 2.15 2.12 1.93 1.69 1.49 1.40 1.35 1.34 1.39 1.33 1.22 1.17 0.98 0.93 0.89 0.80 0.73 0.67 0.61 0.57 0.52 0.48 0.43 0.38 0.36 0.33 0.31 0.31 0.28 0.23 0.19 0.19 0.31 0.46 0.61 0.70 0.76
2.88 3.09 3.16 3.16 2.98 2.59 2.27 2.14 2.00 1.83 1.69 1.54 1.30 1.23 1.28 1.37 1.42 1.41 1.16 1.02 0.95 0.92 0.92 0.87 0.80 0.77 0.68 0.58 0.50 0.48 0.42 0.37 0.31 0.31 0.30 0.27 0.24 0.21 0.22 0.36 0.55 0.68 0.76
2.95 3.11 3.19 3.22 3.16 2.89 2.51 2.32 2.13 1.92 1.81 1.71 1.51 1.36 1.27 1.32 1.48 1.59 1.34 1.14 1.06 1.04 1.01 0.94 0.86 0.82 0.73 0.66 0.57 0.51 0.46 0.41 0.36 0.32 0.30 0.27 0.26 0.22 0.20 0.23 0.36 0.52 0.63
2.79 3.03 3.28 3.26 3.18 3.09 2.85 2.64 2.46 2.20 2.02 1.87 1.64 1.47 1.45 1.43 1.50 1.66 1.43 1.22 1.16 1.13 1.04 1.03 0.97 0.90 0.79 0.72 0.66 0.60 0.54 0.48 0.42 0.38 0.32 0.27 0.26 0.24 0.22 0.21 0.23 0.29 0.41
2.58 2.89 3.09 3.38 3.35 3.40 3.32 3.05 2.82 2.61 2.31 2.06 1.79 1.56 1.53 1.52 1.52 1.66 1.57 1.34 1.27 1.25 1.12 1.02 1.02 1.05 1.02 0.92 0.83 0.75 0.68 0.60 0.53 0.45 0.39 0.33 0.27 0.24 0.23 0.22 0.23 0.23 0.29
2.32 2.63 2.80 3.04 3.27 3.36 3.29 2.97 2.69 2.52 2.46 2.29 1.99 1.76 1.73 1.67 1.58 1.62 1.66 1.51 1.32 1.28 1.23 1.12 1.08 1.06 1.12 1.18 1.15 1.00 0.87 0.76 0.64 0.54 0.47 0.40 0.34 0.30 0.28 0.28 0.30 0.31 0.32
2.04 2.23 2.55 2.66 2.97 3.03 2.95 2.91 2.76 2.69 2.63 2.52 2.34 2.03 1.88 1.84 1.74 1.65 1.60 1.58 1.42 1.30 1.34 1.36 1.29 1.21 1.15 1.18 1.24 1.23 1.10 1.02 0.82 0.62 0.56 0.53 0.46 0.43 0.39 0.37 0.37 0.39 0.39
1.77 2.06 2.20 2.35 2.60 2.87 2.93 3.08 3.17 3.11 2.85 2.58 2.42 2.32 2.12 2.00 1.93 1.78 1.67 1.66 1.59 1.43 1.31 1.38 1.44 1.41 1.40 1.39 1.34 1.44 1.34 1.10 0.92 0.74 0.62 0.57 0.54 0.53 0.50 0.47 0.44 0.45 0.46
1.42 1.80 2.12 2.32 2.49 2.68 3.00 3.00 2.89 2.75 2.57 2.29 2.28 2.36 2.35 2.23 2.11 1.93 1.85 1.83 1.74 1.62 1.48 1.46 1.50 1.57 1.61 1.59 1.54 1.43 1.33 1.15 1.10 0.94 0.71 0.62 0.58 0.53 0.52 0.53 0.49 0.45 0.44
1.15 1.51 1.86 2.13 2.44 2.67 2.80 2.82 2.84 2.64 2.46 2.41 2.35 2.36 2.27 2.16 2.13 2.07 1.98 2.01 1.92 1.79 1.73 1.73 1.70 1.73 1.74 1.71 1.64 1.55 1.49 1.34 1.19 1.14 0.93 0.73 0.69 0.63 0.57 0.54 0.54 0.55 0.57
0.96 1.19 1.55 1.83 2.00 2.29 2.60 2.63 2.61 2.59 2.54 2.51 2.31 2.23 2.25 2.20 2.12 2.06 2.10 2.12 2.09 2.01 1.89 1.86 1.86 1.89 1.90 1.86 1.81 1.67 1.58 1.50 1.34 1.32 1.20 0.96 0.90 0.81 0.73 0.66 0.64 0.63 0.65